Darstellungsparameter: Aktuell verwendete Einstellungen:
Skalierung der Graphiken ... ?
xyx+y,   Skalierungsfaktor:      Skalierung: Modus: x, Faktor: 1
Darstellungszeitraum ... ?
Vom - - bis: - -   Zeitraum: 18.03.2021 - 31.03.2021
Min/Max/Avg-Anzeige ... ?
Zeige MMA aktuell
Zeige MMA Monat
Zeige MMA alles
Zeige --A aktuell
Zeige --A Monat
Zeige --A alles
Keine MMA-Anzeige
MMA:
Keine MMA-Graphiken
MMA-Basis: 18.03.2021 - 31.03.2021
Quicknavigation für Darstellung... ?
Tage:      1T, 2T, 3T, 5T -1T -2T -3T -5T +1T +2T +3T +5T
Wochen: 1W, 2W, 3W -1W -2W -3W +1W +2W +3W
Monate: 1M, 3M, 6M -1M -3M -6M +1M +3M +6M
Jahre:    1J, 3J, 5J, 10J -1J -3J -5J -10J +1J +3J +5J +10J
Nutze für die Darstellung ... ?
Originaldaten oder Mittelwerte auf ...
Stundenbasis Tagesbasis Wochenbasis
Monatsbasis Jahresbasis      Datenbasis: Original-Daten
Darstellen als:
Statistik (Auto) Statistik J:M      Darstellung:
Zur Graphik,    zurück zur Übersicht aller Sensoren.
 
Tabellarische Datenbersicht: ?
 
Sensor: Nr:Datum:Temp:Feuchte:
Aussen-T/F 1 18-03-2021 00:01:17 0.8 C 46 %
2 18-03-2021 00:11:17 0.7 C 46 %
3 18-03-2021 00:21:18 0.9 C 46 %
4 18-03-2021 00:31:18 0.8 C 46 %
5 18-03-2021 00:41:18 0.7 C 46 %
6 18-03-2021 00:51:17 0.7 C 46 %
7 18-03-2021 01:01:18 0.6 C 46 %
8 18-03-2021 01:11:18 0.6 C 46 %
9 18-03-2021 01:21:18 0.1 C 46 %
10 18-03-2021 01:31:17 -0.1 C 49 %
11 18-03-2021 01:41:17 -0.8 C 47 %
12 18-03-2021 01:51:17 -1.1 C 48 %
13 18-03-2021 02:01:17 -1.1 C 50 %
14 18-03-2021 02:11:17 -1.1 C 49 %
15 18-03-2021 02:21:17 -1.4 C 49 %
16 18-03-2021 02:31:17 -1.8 C 49 %
17 18-03-2021 02:41:17 -1.7 C 50 %
18 18-03-2021 02:51:18 -1.5 C 50 %
19 18-03-2021 03:01:18 -1.4 C 50 %
20 18-03-2021 03:11:18 -1.5 C 50 %
21 18-03-2021 03:21:18 -1.5 C 50 %
22 18-03-2021 03:31:18 -1.5 C 50 %
23 18-03-2021 03:41:18 -1.6 C 50 %
24 18-03-2021 03:51:18 -1.8 C 50 %
25 18-03-2021 04:01:17 -1.9 C 50 %
Sensor: Nr:Datum:Temp:Feuchte:
Aussen-T/F 26 18-03-2021 04:11:18 -1.7 C 50 %
27 18-03-2021 04:21:17 -2.1 C 50 %
28 18-03-2021 04:31:18 -2.3 C 50 %
29 18-03-2021 04:41:18 -2.2 C 50 %
30 18-03-2021 04:51:18 -2.3 C 50 %
31 18-03-2021 05:01:18 -2.4 C 50 %
32 18-03-2021 05:11:18 -2.3 C 50 %
33 18-03-2021 05:21:17 -2.3 C 50 %
34 18-03-2021 05:31:17 -0.8 C 51 %
35 18-03-2021 05:41:17 -0.6 C 51 %
36 18-03-2021 05:51:18 -0.4 C 51 %
37 18-03-2021 06:01:18 -0.4 C 51 %
38 18-03-2021 06:11:18 -0.4 C 50 %
39 18-03-2021 06:21:18 -0.4 C 50 %
40 18-03-2021 06:31:17 -0.3 C 50 %
41 18-03-2021 06:41:17 -0.1 C 50 %
42 18-03-2021 06:51:17 0.1 C 51 %
43 18-03-2021 07:01:18 0.1 C 51 %
44 18-03-2021 07:11:18 0.2 C 51 %
45 18-03-2021 07:21:18 0.5 C 51 %
46 18-03-2021 07:31:17 0.4 C 50 %
47 18-03-2021 07:41:17 0.5 C 50 %
48 18-03-2021 07:51:17 0.5 C 50 %
49 18-03-2021 08:01:17 0.6 C 50 %
50 18-03-2021 08:11:17 0.9 C 50 %
Sensor: Nr:Datum:Temp:Feuchte:
Aussen-T/F 51 18-03-2021 08:21:18 1.2 C 49 %
52 18-03-2021 08:31:18 1.1 C 47 %
53 18-03-2021 08:41:18 1.3 C 47 %
54 18-03-2021 08:51:18 1.4 C 47 %
55 18-03-2021 09:01:17 1.5 C 46 %
56 18-03-2021 09:11:18 1.7 C 46 %
57 18-03-2021 09:21:18 1.9 C 46 %
58 18-03-2021 09:31:18 2.2 C 45 %
59 18-03-2021 09:41:18 2.2 C 44 %
60 18-03-2021 09:51:18 2.7 C 43 %
61 18-03-2021 10:01:17 3.1 C 42 %
62 18-03-2021 10:11:17 4.2 C 40 %
63 18-03-2021 10:21:18 3.7 C 41 %
64 18-03-2021 10:31:17 3.2 C 41 %
65 18-03-2021 10:41:17 3.3 C 41 %
66 18-03-2021 10:51:17 3.1 C 41 %
67 18-03-2021 11:01:18 3.3 C 41 %
68 18-03-2021 11:11:18 3.7 C 41 %
69 18-03-2021 11:21:18 3.8 C 41 %
70 18-03-2021 11:31:17 4 C 40 %
71 18-03-2021 11:41:17 3.6 C 41 %
72 18-03-2021 11:51:17 4.1 C 40 %
73 18-03-2021 12:01:17 5.2 C 38 %
74 18-03-2021 12:11:17 4.5 C 39 %
75 18-03-2021 12:21:17 4.8 C 39 %
Sensor: Nr:Datum:Temp:Feuchte:
Aussen-T/F 76 18-03-2021 12:31:18 5.2 C 38 %
77 18-03-2021 12:41:18 6.2 C 37 %
78 18-03-2021 12:51:18 7.7 C 35 %
79 18-03-2021 13:01:18 7.1 C 35 %
80 18-03-2021 13:11:18 7 C 34 %
81 18-03-2021 13:21:17 7.8 C 34 %
82 18-03-2021 13:31:17 9.4 C 32 %
83 18-03-2021 13:41:17 8.3 C 32 %
84 18-03-2021 13:51:17 7.7 C 33 %
85 18-03-2021 14:01:17 7.8 C 33 %
86 18-03-2021 14:11:17 7 C 34 %
87 18-03-2021 14:21:17 7.8 C 33 %
88 18-03-2021 14:31:18 8.1 C 32 %
89 18-03-2021 14:41:18 6.8 C 35 %
90 18-03-2021 14:51:17 7.5 C 33 %
91 18-03-2021 15:01:18 9.2 C 32 %
92 18-03-2021 15:11:18 6.7 C 34 %
93 18-03-2021 15:21:17 6.9 C 35 %
94 18-03-2021 15:31:17 6.9 C 34 %
95 18-03-2021 15:41:17 7.1 C 33 %
96 18-03-2021 15:51:18 7.5 C 33 %
97 18-03-2021 16:01:17 6.8 C 35 %
98 18-03-2021 16:11:17 6.8 C 35 %
99 18-03-2021 16:21:18 7 C 34 %
100 18-03-2021 16:31:17 7.4 C 33 %
Sensor: Nr:Datum:Temp:Feuchte:
Aussen-T/F 101 18-03-2021 16:41:18 7 C 33 %
102 18-03-2021 16:51:17 6.9 C 35 %
103 18-03-2021 17:01:17 6.7 C 34 %
104 18-03-2021 17:11:17 6.7 C 34 %
105 18-03-2021 17:21:18 6.6 C 34 %
106 18-03-2021 17:31:17 6.3 C 34 %
107 18-03-2021 17:41:17 6.1 C 34 %
108 18-03-2021 17:51:17 5.9 C 35 %
109 18-03-2021 18:01:17 5.8 C 35 %
110 18-03-2021 18:11:17 5.6 C 35 %
111 18-03-2021 18:21:17 5.4 C 35 %
112 18-03-2021 18:31:18 5.2 C 36 %
113 18-03-2021 18:41:18 5.1 C 36 %
114 18-03-2021 18:51:17 5.2 C 36 %
115 18-03-2021 19:01:17 4.8 C 37 %
116 18-03-2021 19:11:17 4.7 C 37 %
117 18-03-2021 19:21:17 4.6 C 37 %
118 18-03-2021 19:31:17 4.7 C 37 %
119 18-03-2021 19:41:18 4.5 C 38 %
120 18-03-2021 19:51:17 4.4 C 38 %
121 18-03-2021 20:01:17 4.4 C 39 %
122 18-03-2021 20:11:17 4.2 C 40 %
123 18-03-2021 20:21:17 4.2 C 39 %
124 18-03-2021 20:31:17 4.4 C 39 %
125 18-03-2021 20:41:17 4.2 C 40 %
Sensor: Nr:Datum:Temp:Feuchte:
Aussen-T/F 126 18-03-2021 20:51:18 4.3 C 40 %
127 18-03-2021 21:01:17 3.8 C 42 %
128 18-03-2021 21:11:17 3.8 C 42 %
129 18-03-2021 21:21:18 3.6 C 44 %
130 18-03-2021 21:31:17 3.6 C 44 %
131 18-03-2021 21:41:17 3.5 C 43 %
132 18-03-2021 21:51:17 3.5 C 45 %
133 18-03-2021 22:01:18 3.2 C 45 %
134 18-03-2021 22:11:18 3.1 C 45 %
135 18-03-2021 22:21:17 3.2 C 46 %
136 18-03-2021 22:31:18 3.2 C 46 %
137 18-03-2021 22:41:18 3.1 C 47 %
138 18-03-2021 22:51:18 3.1 C 47 %
139 18-03-2021 23:01:18 3.2 C 47 %
140 18-03-2021 23:11:18 3.1 C 47 %
141 18-03-2021 23:21:18 2.9 C 49 %
142 18-03-2021 23:31:17 2.7 C 49 %
143 18-03-2021 23:41:17 2.5 C 49 %
144 18-03-2021 23:51:17 2.3 C 49 %
145 19-03-2021 00:01:17 1.9 C 50 %
146 19-03-2021 00:11:17 1.7 C 50 %
147 19-03-2021 00:21:18 1.5 C 50 %
148 19-03-2021 00:31:17 1.4 C 50 %
149 19-03-2021 00:41:17 1.3 C 50 %
150 19-03-2021 00:51:18 1.1 C 50 %
Sensor: Nr:Datum:Temp:Feuchte:
Aussen-T/F 151 19-03-2021 01:01:17 1.2 C 50 %
152 19-03-2021 01:11:18 1.2 C 50 %
153 19-03-2021 01:21:18 1.3 C 50 %
154 19-03-2021 01:31:18 1.4 C 50 %
155 19-03-2021 01:41:18 1.4 C 50 %
156 19-03-2021 01:51:17 1.5 C 50 %
157 19-03-2021 02:01:18 1.5 C 50 %
158 19-03-2021 02:11:18 1.5 C 50 %
159 19-03-2021 02:21:18 1.5 C 50 %
160 19-03-2021 02:31:17 1.5 C 50 %
161 19-03-2021 02:41:18 1.5 C 50 %
162 19-03-2021 02:51:18 1.6 C 50 %
163 19-03-2021 03:01:17 1.7 C 50 %
164 19-03-2021 03:11:17 1.7 C 50 %
165 19-03-2021 03:21:18 1.8 C 50 %
166 19-03-2021 03:31:17 1.8 C 50 %
167 19-03-2021 03:41:17 1.8 C 50 %
168 19-03-2021 03:51:18 1.9 C 50 %
169 19-03-2021 04:01:18 1.9 C 50 %
170 19-03-2021 04:11:18 1.9 C 50 %
171 19-03-2021 04:21:17 1.9 C 50 %
172 19-03-2021 04:31:17 1.9 C 50 %
173 19-03-2021 04:41:17 1.9 C 50 %
174 19-03-2021 04:51:17 1.9 C 50 %
175 19-03-2021 05:01:18 1.8 C 50 %
Sensor: Nr:Datum:Temp:Feuchte:
Aussen-T/F 176 19-03-2021 05:11:18 1.7 C 50 %
177 19-03-2021 05:21:17 1.7 C 50 %
178 19-03-2021 05:31:17 1.3 C 50 %
179 19-03-2021 05:41:17 1.3 C 50 %
180 19-03-2021 05:51:17 1.4 C 50 %
181 19-03-2021 06:01:17 1.2 C 50 %
182 19-03-2021 06:11:17 0.9 C 51 %
183 19-03-2021 06:21:18 0.6 C 51 %
184 19-03-2021 06:31:17 0.3 C 51 %
185 19-03-2021 06:41:17 0.4 C 51 %
186 19-03-2021 06:51:18 0.5 C 51 %
187 19-03-2021 07:01:18 0.4 C 51 %
188 19-03-2021 07:11:18 0.5 C 51 %
189 19-03-2021 07:21:18 0.6 C 51 %
190 19-03-2021 07:31:17 0.7 C 51 %
191 19-03-2021 07:41:17 0.6 C 51 %
192 19-03-2021 07:51:17 0.6 C 51 %
193 19-03-2021 08:01:17 0.3 C 51 %
194 19-03-2021 08:11:17 0.5 C 51 %
195 19-03-2021 08:21:17 1.2 C 50 %
196 19-03-2021 08:31:17 1.6 C 45 %
197 19-03-2021 08:41:17 1.7 C 44 %
198 19-03-2021 08:51:18 2.3 C 42 %
199 19-03-2021 09:01:17 3.1 C 40 %
200 19-03-2021 09:11:17 2.8 C 40 %
Sensor: Nr:Datum:Temp:Feuchte:
Aussen-T/F 201 19-03-2021 09:21:17 2.9 C 40 %
202 19-03-2021 09:31:18 3 C 40 %
203 19-03-2021 09:41:18 2.9 C 40 %
204 19-03-2021 09:51:17 3.6 C 39 %
205 19-03-2021 10:01:18 3.5 C 39 %
206 19-03-2021 10:11:18 3.6 C 38 %
207 19-03-2021 10:21:17 3.4 C 38 %
208 19-03-2021 10:31:18 3.4 C 38 %
209 19-03-2021 10:41:18 3.4 C 38 %
210 19-03-2021 10:51:17 4.5 C 36 %
211 19-03-2021 11:01:17 5.7 C 32 %
212 19-03-2021 11:11:17 5.8 C 33 %
213 19-03-2021 11:21:17 5.3 C 33 %
214 19-03-2021 11:31:18 4.9 C 33 %
215 19-03-2021 11:41:18 7.8 C 30 %
216 19-03-2021 11:51:18 6.6 C 30 %
217 19-03-2021 12:01:17 6.8 C 30 %
218 19-03-2021 12:11:17 5.9 C 30 %
219 19-03-2021 12:21:18 7.2 C 27 %
220 19-03-2021 12:31:17 7.1 C 26 %
221 19-03-2021 12:41:17 7.1 C 26 %
222 19-03-2021 12:51:17 8.2 C 26 %
223 19-03-2021 13:01:18 7.4 C 25 %
224 19-03-2021 13:11:18 7.8 C 26 %
225 19-03-2021 13:21:17 8.9 C 26 %
Sensor: Nr:Datum:Temp:Feuchte:
Aussen-T/F 226 19-03-2021 13:31:17 8.3 C 25 %
227 19-03-2021 13:41:17 8.1 C 25 %
228 19-03-2021 13:51:17 7.8 C 25 %
229 19-03-2021 14:01:18 8.1 C 26 %
230 19-03-2021 14:11:18 7.1 C 26 %
231 19-03-2021 14:21:18 8.5 C 26 %
232 19-03-2021 14:31:18 8 C 25 %
233 19-03-2021 14:41:18 8.9 C 25 %
234 19-03-2021 14:51:17 7.6 C 26 %
235 19-03-2021 15:01:18 7.2 C 26 %
236 19-03-2021 15:11:18 6.8 C 27 %
237 19-03-2021 15:21:17 6.8 C 27 %
238 19-03-2021 15:31:17 8.9 C 26 %
239 19-03-2021 15:41:17 8.1 C 25 %
240 19-03-2021 15:51:17 9.2 C 25 %
241 19-03-2021 16:01:17 8.4 C 25 %
242 19-03-2021 16:11:17 7.8 C 25 %
243 19-03-2021 16:21:18 6.5 C 28 %
244 19-03-2021 16:31:17 6.5 C 29 %
245 19-03-2021 16:41:17 6.2 C 27 %
246 19-03-2021 16:51:17 7.4 C 26 %
247 19-03-2021 17:01:18 6.8 C 27 %
248 19-03-2021 17:11:18 6.8 C 27 %
249 19-03-2021 17:21:17 6.9 C 27 %
250 19-03-2021 17:31:18 6.8 C 27 %
Sensor: Nr:Datum:Temp:Feuchte:
Aussen-T/F 251 19-03-2021 17:41:18 6.5 C 28 %
252 19-03-2021 17:51:17 6.9 C 26 %
253 19-03-2021 18:01:17 7 C 25 %
254 19-03-2021 18:11:17 6.8 C 26 %
255 19-03-2021 18:21:17 6 C 27 %
256 19-03-2021 18:31:17 5.7 C 28 %
257 19-03-2021 18:41:17 5.2 C 29 %
258 19-03-2021 18:51:17 4.4 C 32 %
259 19-03-2021 19:01:17 4.4 C 31 %
260 19-03-2021 19:11:17 4.4 C 31 %
261 19-03-2021 19:21:18 3.9 C 35 %
262 19-03-2021 19:31:18 3.7 C 33 %
263 19-03-2021 19:41:18 3 C 37 %
264 19-03-2021 19:51:18 2.5 C 38 %
265 19-03-2021 20:01:18 2.3 C 38 %
266 19-03-2021 20:11:18 2.1 C 38 %
267 19-03-2021 20:21:18 1.9 C 40 %
268 19-03-2021 20:31:18 1.9 C 40 %
269 19-03-2021 20:41:18 1.5 C 40 %
270 19-03-2021 20:51:17 1.3 C 41 %
271 19-03-2021 21:01:18 1.4 C 42 %
272 19-03-2021 21:11:18 1.5 C 42 %
273 19-03-2021 21:21:17 1.1 C 42 %
274 19-03-2021 21:31:17 1 C 42 %
275 19-03-2021 21:41:17 1.1 C 42 %
Sensor: Nr:Datum:Temp:Feuchte:
Aussen-T/F 276 19-03-2021 21:51:17 1.1 C 42 %
277 19-03-2021 22:01:18 0.5 C 44 %
278 19-03-2021 22:11:18 1.1 C 41 %
279 19-03-2021 22:21:17 0.3 C 44 %
280 19-03-2021 22:31:18 0.2 C 45 %
281 19-03-2021 22:41:18 0.1 C 45 %
282 19-03-2021 22:51:17 -0.2 C 45 %
283 19-03-2021 23:01:17 -0.4 C 46 %
284 19-03-2021 23:11:17 -0.4 C 44 %
285 19-03-2021 23:21:17 -0.5 C 45 %
286 19-03-2021 23:31:18 -1 C 46 %
287 19-03-2021 23:41:18 -1.3 C 46 %
288 19-03-2021 23:51:17 0.3 C 45 %
289 20-03-2021 00:01:17 0 C 45 %
290 20-03-2021 00:11:17 0.3 C 44 %
291 20-03-2021 00:21:18 0.6 C 44 %
292 20-03-2021 00:31:18 0.7 C 44 %
293 20-03-2021 00:41:18 0.8 C 44 %
294 20-03-2021 00:51:17 0.6 C 45 %
295 20-03-2021 01:01:17 0.6 C 44 %
296 20-03-2021 01:11:17 0.4 C 44 %
297 20-03-2021 01:21:18 0 C 45 %
298 20-03-2021 01:31:17 -1.1 C 45 %
299 20-03-2021 01:41:17 -1.1 C 47 %
300 20-03-2021 01:51:18 -1.2 C 48 %
Sensor: Nr:Datum:Temp:Feuchte:
Aussen-T/F 301 20-03-2021 02:01:17 -1.6 C 47 %
302 20-03-2021 02:11:17 -1.3 C 49 %
303 20-03-2021 02:21:18 -1.3 C 48 %
304 20-03-2021 02:31:18 -1.8 C 47 %
305 20-03-2021 02:41:18 -1.8 C 48 %
306 20-03-2021 02:51:18 -1.7 C 49 %
307 20-03-2021 03:01:17 -2.2 C 48 %
308 20-03-2021 03:11:17 -2.4 C 48 %
309 20-03-2021 03:21:18 -2.4 C 48 %
310 20-03-2021 03:31:18 -2.4 C 49 %
311 20-03-2021 03:41:18 -2.5 C 49 %
312 20-03-2021 03:51:17 -2.6 C 49 %
313 20-03-2021 04:01:18 -2.3 C 50 %
314 20-03-2021 04:11:18 -2.4 C 50 %
315 20-03-2021 04:21:17 -2.1 C 50 %
316 20-03-2021 04:31:18 -2.1 C 50 %
317 20-03-2021 04:41:18 -2.3 C 49 %
318 20-03-2021 04:51:17 -2.3 C 50 %
319 20-03-2021 05:01:17 -2.4 C 49 %
320 20-03-2021 05:11:17 -2.3 C 50 %
321 20-03-2021 05:21:18 -1.8 C 50 %
322 20-03-2021 05:31:18 -1.4 C 50 %
323 20-03-2021 05:41:18 -1.3 C 50 %
324 20-03-2021 05:51:17 -1.4 C 50 %
325 20-03-2021 06:01:18 -1.3 C 50 %
Sensor: Nr:Datum:Temp:Feuchte:
Aussen-T/F 326 20-03-2021 06:11:18 -1.5 C 50 %
327 20-03-2021 06:21:18 -1.8 C 50 %
328 20-03-2021 06:31:17 -1.3 C 51 %
329 20-03-2021 06:41:17 -1.5 C 50 %
330 20-03-2021 06:51:18 -1.6 C 50 %
331 20-03-2021 07:01:18 -1.2 C 50 %
332 20-03-2021 07:11:18 -0.9 C 51 %
333 20-03-2021 07:21:17 -0.6 C 51 %
334 20-03-2021 07:31:18 -0.7 C 50 %
335 20-03-2021 07:41:18 -0.5 C 50 %
336 20-03-2021 07:51:17 -0.5 C 50 %
337 20-03-2021 08:01:17 -0.7 C 49 %
338 20-03-2021 08:11:17 -0.4 C 50 %
339 20-03-2021 08:21:17 0.2 C 50 %
340 20-03-2021 08:31:17 0.5 C 46 %
341 20-03-2021 08:41:18 0.4 C 46 %
342 20-03-2021 08:51:17 0.8 C 46 %
343 20-03-2021 09:01:17 1.4 C 44 %
344 20-03-2021 09:11:18 1.5 C 43 %
345 20-03-2021 09:21:17 2.6 C 42 %
346 20-03-2021 09:31:17 2.2 C 40 %
347 20-03-2021 09:41:17 2.5 C 39 %
348 20-03-2021 09:51:17 2.4 C 38 %
349 20-03-2021 10:01:18 3.2 C 37 %
350 20-03-2021 10:11:18 3.1 C 37 %
Sensor: Nr:Datum:Temp:Feuchte:
Aussen-T/F 351 20-03-2021 10:21:17 3.1 C 37 %
352 20-03-2021 10:31:17 3.1 C 37 %
353 20-03-2021 10:41:18 3.7 C 37 %
354 20-03-2021 10:51:17 3.9 C 36 %
355 20-03-2021 11:01:18 4.3 C 34 %
356 20-03-2021 11:11:18 4.9 C 32 %
357 20-03-2021 11:21:17 5.8 C 31 %
358 20-03-2021 11:31:17 6.8 C 30 %
359 20-03-2021 11:41:17 6.8 C 30 %
360 20-03-2021 11:51:17 5.2 C 30 %
361 20-03-2021 12:01:18 6.6 C 29 %
362 20-03-2021 12:11:18 7 C 27 %
363 20-03-2021 12:21:17 5.6 C 28 %
364 20-03-2021 12:31:17 5.6 C 29 %
365 20-03-2021 12:41:17 6.2 C 30 %
366 20-03-2021 12:51:17 7.2 C 28 %
367 20-03-2021 13:01:17 7.2 C 27 %
368 20-03-2021 13:11:17 10.8 C 26 %
369 20-03-2021 13:21:17 9.3 C 25 %
370 20-03-2021 13:31:18 12 C 20 %
371 20-03-2021 13:41:18 10 C 22 %
372 20-03-2021 13:51:18 9.7 C 25 %
373 20-03-2021 14:01:18 9.5 C 25 %
374 20-03-2021 14:11:18 9.7 C 21 %
375 20-03-2021 14:21:17 9.7 C 21 %
Sensor: Nr:Datum:Temp:Feuchte:
Aussen-T/F 376 20-03-2021 14:31:17 9.5 C 25 %
377 20-03-2021 14:41:17 9.4 C 25 %
378 20-03-2021 14:51:18 8.6 C 25 %
379 20-03-2021 15:01:17 11.2 C 20 %
380 20-03-2021 15:11:17 12.5 C 20 %
381 20-03-2021 15:21:17 13.8 C 20 %
382 20-03-2021 15:31:18 13 C 20 %
383 20-03-2021 15:41:18 12.3 C 20 %
384 20-03-2021 15:51:18 12 C 20 %
385 20-03-2021 16:01:17 13.6 C 20 %
386 20-03-2021 16:11:17 10.2 C 20 %
387 20-03-2021 16:21:18 13.2 C 20 %
388 20-03-2021 16:31:17 12.4 C 20 %
389 20-03-2021 16:41:17 12.8 C 20 %
390 20-03-2021 16:51:18 10.7 C 20 %
391 20-03-2021 17:01:18 8.9 C 20 %
392 20-03-2021 17:11:18 7.9 C 20 %
393 20-03-2021 17:21:17 7.9 C 20 %
394 20-03-2021 17:31:18 7.9 C 20 %
395 20-03-2021 17:41:18 7.8 C 20 %
396 20-03-2021 17:51:19 7.4 C 20 %
397 20-03-2021 18:01:17 7.2 C 20 %
398 20-03-2021 18:11:17 6.9 C 21 %
399 20-03-2021 18:21:17 6.8 C 23 %
400 20-03-2021 18:31:18 6.6 C 23 %
Sensor: Nr:Datum:Temp:Feuchte:
Aussen-T/F 401 20-03-2021 18:41:18 6.3 C 23 %
402 20-03-2021 18:51:18 6.1 C 25 %
403 20-03-2021 19:01:18 6 C 25 %
404 20-03-2021 19:11:18 5.9 C 25 %
405 20-03-2021 19:21:18 5.8 C 25 %
406 20-03-2021 19:31:17 5.6 C 26 %
407 20-03-2021 19:41:17 5.6 C 26 %
408 20-03-2021 19:51:17 5.5 C 26 %
409 20-03-2021 20:01:18 5.3 C 26 %
410 20-03-2021 20:11:18 5.4 C 25 %
411 20-03-2021 20:21:17 5.2 C 26 %
412 20-03-2021 20:31:17 5.2 C 26 %
413 20-03-2021 20:41:17 5 C 27 %
414 20-03-2021 20:51:17 4.8 C 30 %
415 20-03-2021 21:01:18 4.6 C 30 %
416 20-03-2021 21:11:18 4.6 C 30 %
417 20-03-2021 21:21:17 4.5 C 31 %
418 20-03-2021 21:31:17 4.6 C 31 %
419 20-03-2021 21:41:17 4.7 C 31 %
420 20-03-2021 21:51:18 4.5 C 32 %
421 20-03-2021 22:01:18 4.4 C 32 %
422 20-03-2021 22:11:18 4.3 C 32 %
423 20-03-2021 22:21:17 4.4 C 32 %
424 20-03-2021 22:31:17 4.2 C 33 %
425 20-03-2021 22:41:17 4.2 C 33 %
Sensor: Nr:Datum:Temp:Feuchte:
Aussen-T/F 426 20-03-2021 22:51:18 4.2 C 34 %
427 20-03-2021 23:01:17 4.2 C 33 %
428 20-03-2021 23:11:17 4.2 C 34 %
429 20-03-2021 23:21:17 4.1 C 34 %
430 20-03-2021 23:31:17 4 C 34 %
431 20-03-2021 23:41:18 4 C 34 %
432 20-03-2021 23:51:17 4.2 C 33 %
433 21-03-2021 00:01:18 4.1 C 35 %
434 21-03-2021 00:11:18 4.1 C 35 %
435 21-03-2021 00:21:18 4.2 C 33 %
436 21-03-2021 00:31:17 4.5 C 32 %
437 21-03-2021 00:41:17 4.4 C 32 %
438 21-03-2021 00:51:18 4.3 C 33 %
439 21-03-2021 01:01:17 4.3 C 33 %
440 21-03-2021 01:11:17 4.2 C 33 %
441 21-03-2021 01:21:18 4.3 C 33 %
442 21-03-2021 01:31:17 4.3 C 32 %
443 21-03-2021 01:41:17 4.3 C 34 %
444 21-03-2021 01:51:17 4.2 C 35 %
445 21-03-2021 02:01:17 4.4 C 33 %
446 21-03-2021 02:11:17 4.4 C 34 %
447 21-03-2021 02:21:17 4.4 C 35 %
448 21-03-2021 02:31:17 4.4 C 35 %
449 21-03-2021 02:41:17 4.5 C 35 %
450 21-03-2021 02:51:17 4.6 C 35 %
Sensor: Nr:Datum:Temp:Feuchte:
Aussen-T/F 451 21-03-2021 03:01:18 4.6 C 36 %
452 21-03-2021 03:11:18 4.8 C 37 %
453 21-03-2021 03:21:18 5 C 37 %
454 21-03-2021 03:31:18 4.7 C 39 %
455 21-03-2021 03:41:18 4.5 C 40 %
456 21-03-2021 03:51:17 4.3 C 40 %
457 21-03-2021 04:01:18 4.2 C 41 %
458 21-03-2021 04:11:18 4.3 C 41 %
459 21-03-2021 04:21:18 4.2 C 41 %
460 21-03-2021 04:31:17 4.1 C 41 %
461 21-03-2021 04:41:17 4 C 42 %
462 21-03-2021 04:51:17 4 C 42 %
463 21-03-2021 05:01:18 3.7 C 45 %
464 21-03-2021 05:11:18 3.6 C 45 %
465 21-03-2021 05:21:17 3.6 C 45 %
466 21-03-2021 05:31:17 3.7 C 45 %
467 21-03-2021 05:41:17 3.7 C 44 %
468 21-03-2021 05:51:17 3.7 C 45 %
469 21-03-2021 06:01:17 3.5 C 45 %
470 21-03-2021 06:11:17 3.6 C 45 %
471 21-03-2021 06:21:17 3.5 C 46 %
472 21-03-2021 06:31:17 3.5 C 46 %
473 21-03-2021 06:41:17 3.6 C 46 %
474 21-03-2021 06:51:17 3.6 C 46 %
475 21-03-2021 07:01:18 3.6 C 46 %
Sensor: Nr:Datum:Temp:Feuchte:
Aussen-T/F 476 21-03-2021 07:11:18 3.6 C 47 %
477 21-03-2021 07:21:17 3.7 C 47 %
478 21-03-2021 07:31:17 3.7 C 47 %
479 21-03-2021 07:41:17 3.8 C 46 %
480 21-03-2021 07:51:17 3.8 C 46 %
481 21-03-2021 08:01:18 4 C 45 %
482 21-03-2021 08:11:18 4.2 C 45 %
483 21-03-2021 08:21:18 4.3 C 45 %
484 21-03-2021 08:31:17 4.4 C 45 %
485 21-03-2021 08:41:17 4.4 C 45 %
486 21-03-2021 08:51:17 4.5 C 45 %
487 21-03-2021 09:01:18 4.6 C 45 %
488 21-03-2021 09:11:18 4.8 C 45 %
489 21-03-2021 09:21:18 5.1 C 44 %
490 21-03-2021 09:31:18 5.3 C 44 %
491 21-03-2021 09:41:18 5.5 C 43 %
492 21-03-2021 09:51:17 5.5 C 44 %
493 21-03-2021 10:01:18 5.7 C 44 %
494 21-03-2021 10:11:18 6.3 C 41 %
495 21-03-2021 10:21:17 6.5 C 40 %
496 21-03-2021 10:31:18 6.5 C 40 %
497 21-03-2021 10:41:18 6.7 C 40 %
498 21-03-2021 10:51:18 6.4 C 40 %
499 21-03-2021 11:01:17 6.7 C 40 %
500 21-03-2021 11:11:17 7.1 C 39 %
Sensor: Nr:Datum:Temp:Feuchte:
Aussen-T/F 501 21-03-2021 11:21:17 7.5 C 39 %
502 21-03-2021 11:31:17 7.3 C 39 %
503 21-03-2021 11:41:17 7.4 C 39 %
504 21-03-2021 11:51:17 7.5 C 38 %
505 21-03-2021 12:01:18 7.3 C 38 %
506 21-03-2021 12:11:18 7.4 C 38 %
507 21-03-2021 12:21:18 7.2 C 38 %
508 21-03-2021 12:31:18 7.9 C 37 %
509 21-03-2021 12:41:18 8.2 C 36 %
510 21-03-2021 12:51:18 8.1 C 36 %
511 21-03-2021 13:01:17 7.9 C 37 %
512 21-03-2021 13:11:17 8.9 C 36 %
513 21-03-2021 13:21:17 8.3 C 35 %
514 21-03-2021 13:31:17 8.2 C 35 %
515 21-03-2021 13:41:17 8.5 C 34 %
516 21-03-2021 13:51:18 8.3 C 34 %
517 21-03-2021 14:01:17 9.2 C 33 %
518 21-03-2021 14:11:17 8.4 C 33 %
519 21-03-2021 14:21:17 8.5 C 34 %
520 21-03-2021 14:31:18 8.6 C 33 %
521 21-03-2021 14:41:18 8.8 C 33 %
522 21-03-2021 14:51:17 8.6 C 34 %
523 21-03-2021 15:01:18 9.2 C 33 %
524 21-03-2021 15:11:18 8.9 C 33 %
525 21-03-2021 15:21:18 8.2 C 33 %
Sensor: Nr:Datum:Temp:Feuchte:
Aussen-T/F 526 21-03-2021 15:31:18 8.6 C 33 %
527 21-03-2021 15:41:18 8.7 C 33 %
528 21-03-2021 15:51:18 8.8 C 33 %
529 21-03-2021 16:01:17 8.5 C 33 %
530 21-03-2021 16:11:17 8.5 C 33 %
531 21-03-2021 16:21:17 9.2 C 32 %
532 21-03-2021 16:31:18 8.8 C 32 %
533 21-03-2021 16:41:18 9.1 C 32 %
534 21-03-2021 16:51:17 9.3 C 32 %
535 21-03-2021 17:01:18 8.2 C 32 %
536 21-03-2021 17:11:18 8 C 32 %
537 21-03-2021 17:21:18 8 C 32 %
538 21-03-2021 17:31:17 8 C 32 %
539 21-03-2021 17:41:17 7.8 C 33 %
540 21-03-2021 17:51:17 7.5 C 33 %
541 21-03-2021 18:01:18 7.4 C 33 %
542 21-03-2021 18:11:18 7 C 34 %
543 21-03-2021 18:21:18 6.8 C 35 %
544 21-03-2021 18:31:17 6.5 C 35 %
545 21-03-2021 18:41:17 6.4 C 35 %
546 21-03-2021 18:51:18 6.3 C 35 %
547 21-03-2021 19:01:18 6 C 35 %
548 21-03-2021 19:11:18 5.7 C 35 %
549 21-03-2021 19:21:17 5.5 C 35 %
550 21-03-2021 19:31:18 5.6 C 36 %
Sensor: Nr:Datum:Temp:Feuchte:
Aussen-T/F 551 21-03-2021 19:41:18 5.4 C 36 %
552 21-03-2021 19:51:18 5.3 C 36 %
553 21-03-2021 20:01:18 5.3 C 36 %
554 21-03-2021 20:11:18 5.2 C 36 %
555 21-03-2021 20:21:17 5.3 C 36 %
556 21-03-2021 20:31:17 5.2 C 36 %
557 21-03-2021 20:41:17 5 C 36 %
558 21-03-2021 20:51:17 5.2 C 36 %
559 21-03-2021 21:01:18 5.2 C 36 %
560 21-03-2021 21:11:18 5.3 C 36 %
561 21-03-2021 21:21:17 5.4 C 36 %
562 21-03-2021 21:31:17 5.3 C 36 %
563 21-03-2021 21:41:17 4.7 C 38 %
564 21-03-2021 21:51:17 4.5 C 38 %
565 21-03-2021 22:01:17 4.4 C 38 %
566 21-03-2021 22:11:17 4.1 C 39 %
567 21-03-2021 22:21:18 4.2 C 39 %
568 21-03-2021 22:31:17 4.6 C 38 %
569 21-03-2021 22:41:17 3.9 C 39 %
570 21-03-2021 22:51:18 3.6 C 40 %
571 21-03-2021 23:01:18 3.9 C 40 %
572 21-03-2021 23:11:18 4 C 38 %
573 21-03-2021 23:21:17 3.9 C 40 %
574 21-03-2021 23:31:18 3.4 C 40 %
575 21-03-2021 23:41:18 3.4 C 40 %
Sensor: Nr:Datum:Temp:Feuchte:
Aussen-T/F 576 21-03-2021 23:51:17 3.8 C 40 %
577 22-03-2021 00:01:17 3.7 C 40 %
578 22-03-2021 00:11:17 3.5 C 40 %
579 22-03-2021 00:21:18 3.5 C 40 %
580 22-03-2021 00:31:17 3.3 C 40 %
581 22-03-2021 00:41:17 2.9 C 40 %
582 22-03-2021 00:51:17 3.2 C 40 %
583 22-03-2021 01:01:17 3.4 C 40 %
584 22-03-2021 01:11:17 3.2 C 40 %
585 22-03-2021 01:21:18 3.5 C 40 %
586 22-03-2021 01:31:18 3.6 C 40 %
587 22-03-2021 01:41:18 3.5 C 40 %
588 22-03-2021 01:51:18 3.8 C 40 %
589 22-03-2021 02:01:18 3.8 C 40 %
590 22-03-2021 02:11:18 3.8 C 41 %
591 22-03-2021 02:21:18 3.8 C 40 %
592 22-03-2021 02:31:18 3.9 C 40 %
593 22-03-2021 02:41:18 4 C 40 %
594 22-03-2021 02:51:18 3.9 C 40 %
595 22-03-2021 03:01:17 4 C 39 %
596 22-03-2021 03:11:17 3.9 C 40 %
597 22-03-2021 03:21:17 3.8 C 40 %
598 22-03-2021 03:31:18 3.9 C 40 %
599 22-03-2021 03:41:18 3.8 C 40 %
600 22-03-2021 03:51:18 3.8 C 40 %
Sensor: Nr:Datum:Temp:Feuchte:
Aussen-T/F 601 22-03-2021 04:01:17 3.8 C 40 %
602 22-03-2021 04:11:18 3.9 C 40 %
603 22-03-2021 04:21:18 3.9 C 40 %
604 22-03-2021 04:31:18 3.8 C 41 %
605 22-03-2021 04:41:18 3.9 C 41 %
606 22-03-2021 04:51:18 3.8 C 41 %
607 22-03-2021 05:01:18 3.9 C 41 %
608 22-03-2021 05:11:18 3.9 C 41 %
609 22-03-2021 05:21:18 3.7 C 41 %
610 22-03-2021 05:31:18 3.8 C 41 %
611 22-03-2021 05:41:18 3.8 C 41 %
612 22-03-2021 05:51:17 3.7 C 41 %
613 22-03-2021 06:01:17 3.6 C 42 %
614 22-03-2021 06:11:18 3.7 C 41 %
615 22-03-2021 06:21:18 3.6 C 41 %
616 22-03-2021 06:31:18 3.2 C 42 %
617 22-03-2021 06:41:18 3.4 C 42 %
618 22-03-2021 06:51:18 3.6 C 42 %
619 22-03-2021 07:01:17 3.7 C 42 %
620 22-03-2021 07:11:17 3.8 C 42 %
621 22-03-2021 07:21:17 3.9 C 42 %
622 22-03-2021 07:31:17 4 C 41 %
623 22-03-2021 07:41:17 4 C 41 %
624 22-03-2021 07:51:17 4.3 C 41 %
625 22-03-2021 08:01:17 4.3 C 41 %
Sensor: Nr:Datum:Temp:Feuchte:
Aussen-T/F 626 22-03-2021 08:11:18 4.7 C 41 %
627 22-03-2021 08:21:18 4.8 C 41 %
628 22-03-2021 08:31:17 5.1 C 40 %
629 22-03-2021 08:41:17 5.2 C 40 %
630 22-03-2021 08:51:18 5.6 C 39 %
631 22-03-2021 09:01:17 5.8 C 39 %
632 22-03-2021 09:11:17 5.8 C 39 %
633 22-03-2021 09:21:17 6.1 C 38 %
634 22-03-2021 09:31:17 5.9 C 38 %
635 22-03-2021 09:41:17 6.1 C 38 %
636 22-03-2021 09:51:17 5.9 C 39 %
637 22-03-2021 10:01:17 5.7 C 39 %
638 22-03-2021 10:11:17 6.3 C 39 %
639 22-03-2021 10:21:17 6.2 C 39 %
640 22-03-2021 10:31:18 6.5 C 38 %
641 22-03-2021 10:41:18 6.1 C 38 %
642 22-03-2021 10:51:18 6.2 C 39 %
643 22-03-2021 11:01:17 6.2 C 38 %
644 22-03-2021 11:11:17 6.2 C 38 %
645 22-03-2021 11:21:17 6.5 C 39 %
646 22-03-2021 11:31:17 6.3 C 38 %
647 22-03-2021 11:41:17 8.2 C 36 %
648 22-03-2021 11:51:18 7.4 C 36 %
649 22-03-2021 12:01:17 7.3 C 36 %
650 22-03-2021 12:11:17 7.1 C 36 %
Sensor: Nr:Datum:Temp:Feuchte:
Aussen-T/F 651 22-03-2021 12:21:17 6.4 C 36 %
652 22-03-2021 12:31:18 6.4 C 37 %
653 22-03-2021 12:41:18 6 C 37 %
654 22-03-2021 12:51:17 7 C 36 %
655 22-03-2021 13:01:17 7.5 C 36 %
656 22-03-2021 13:11:17 7 C 36 %
657 22-03-2021 13:21:17 6.8 C 36 %
658 22-03-2021 13:31:17 7.1 C 36 %
659 22-03-2021 13:41:17 7.1 C 36 %
660 22-03-2021 13:51:17 7.4 C 35 %
661 22-03-2021 14:01:18 7.7 C 35 %
662 22-03-2021 14:11:18 7.4 C 35 %
663 22-03-2021 14:21:17 7.4 C 35 %
664 22-03-2021 14:31:18 7.7 C 35 %
665 22-03-2021 14:41:18 7.6 C 35 %
666 22-03-2021 14:51:17 7.1 C 35 %
667 22-03-2021 15:01:17 7.1 C 36 %
668 22-03-2021 15:11:17 7.3 C 36 %
669 22-03-2021 15:21:18 7.3 C 36 %
670 22-03-2021 15:31:17 7.3 C 36 %
671 22-03-2021 15:41:17 7.5 C 36 %
672 22-03-2021 15:51:18 7.3 C 36 %
673 22-03-2021 16:01:17 7.1 C 36 %
674 22-03-2021 16:11:17 7.3 C 36 %
675 22-03-2021 16:21:17 7.4 C 36 %
Sensor: Nr:Datum:Temp:Feuchte:
Aussen-T/F 676 22-03-2021 16:31:18 7.5 C 36 %
677 22-03-2021 16:41:18 7.3 C 36 %
678 22-03-2021 16:51:17 7.1 C 36 %
679 22-03-2021 17:01:18 6.9 C 37 %
680 22-03-2021 17:11:18 6.8 C 37 %
681 22-03-2021 17:21:17 6.7 C 37 %
682 22-03-2021 17:31:17 6.7 C 37 %
683 22-03-2021 17:41:17 6.7 C 37 %
684 22-03-2021 17:51:18 6.7 C 37 %
685 22-03-2021 18:01:18 6.6 C 37 %
686 22-03-2021 18:11:18 6.6 C 37 %
687 22-03-2021 18:21:17 6.5 C 37 %
688 22-03-2021 18:31:17 6.4 C 37 %
689 22-03-2021 18:41:17 6.3 C 37 %
690 22-03-2021 18:51:17 6.3 C 37 %
691 22-03-2021 19:01:18 6.2 C 37 %
692 22-03-2021 19:11:18 6.1 C 38 %
693 22-03-2021 19:21:18 6 C 38 %
694 22-03-2021 19:31:17 5.9 C 38 %
695 22-03-2021 19:41:18 5.9 C 39 %
696 22-03-2021 19:51:18 5.9 C 38 %
697 22-03-2021 20:01:18 5.8 C 39 %
698 22-03-2021 20:11:18 5.8 C 39 %
699 22-03-2021 20:21:17 5.7 C 39 %
700 22-03-2021 20:31:18 5.6 C 39 %
Sensor: Nr:Datum:Temp:Feuchte:
Aussen-T/F 701 22-03-2021 20:41:18 5.7 C 39 %
702 22-03-2021 20:51:17 5.6 C 40 %
703 22-03-2021 21:01:17 5.5 C 40 %
704 22-03-2021 21:11:17 5.5 C 40 %
705 22-03-2021 21:21:18 5.5 C 39 %
706 22-03-2021 21:31:18 5.7 C 39 %
707 22-03-2021 21:41:18 5.7 C 39 %
708 22-03-2021 21:51:17 5.7 C 39 %
709 22-03-2021 22:01:17 5.8 C 38 %
710 22-03-2021 22:11:17 5.7 C 39 %
711 22-03-2021 22:21:17 5.7 C 38 %
712 22-03-2021 22:31:17 5.6 C 39 %
713 22-03-2021 22:41:17 5.4 C 40 %
714 22-03-2021 22:51:18 5.3 C 40 %
715 22-03-2021 23:01:18 5.3 C 40 %
716 22-03-2021 23:11:18 5.1 C 40 %
717 22-03-2021 23:21:17 5.2 C 40 %
718 22-03-2021 23:31:17 5.1 C 40 %
719 22-03-2021 23:41:18 5.2 C 40 %
720 22-03-2021 23:51:18 5.1 C 40 %
721 23-03-2021 00:01:17 5.1 C 40 %
722 23-03-2021 00:11:17 4.9 C 41 %
723 23-03-2021 00:21:17 4.8 C 41 %
724 23-03-2021 00:31:17 4.8 C 41 %
725 23-03-2021 00:41:18 4.7 C 41 %
Sensor: Nr:Datum:Temp:Feuchte:
Aussen-T/F 726 23-03-2021 00:51:18 4.7 C 41 %
727 23-03-2021 01:01:17 4.7 C 41 %
728 23-03-2021 01:11:17 4.7 C 41 %
729 23-03-2021 01:21:18 4.7 C 41 %
730 23-03-2021 01:31:17 4.6 C 42 %
731 23-03-2021 01:41:17 4.5 C 42 %
732 23-03-2021 01:51:17 4.5 C 41 %
733 23-03-2021 02:01:18 4.5 C 41 %
734 23-03-2021 02:11:18 4.4 C 42 %
735 23-03-2021 02:21:18 4.3 C 42 %
736 23-03-2021 02:31:18 4.3 C 42 %
737 23-03-2021 02:41:18 4.3 C 41 %
738 23-03-2021 02:51:17 4.4 C 41 %
739 23-03-2021 03:01:17 4.3 C 41 %
740 23-03-2021 03:11:17 4.3 C 41 %
741 23-03-2021 03:21:17 4.4 C 41 %
742 23-03-2021 03:31:17 4.3 C 41 %
743 23-03-2021 03:41:17 4.5 C 41 %
744 23-03-2021 03:51:17 4.6 C 40 %
745 23-03-2021 04:01:17 4.5 C 41 %
746 23-03-2021 04:11:17 4.5 C 41 %
747 23-03-2021 04:21:17 4.6 C 40 %
748 23-03-2021 04:31:17 4.6 C 40 %
749 23-03-2021 04:41:18 4.7 C 40 %
750 23-03-2021 04:51:18 5 C 39 %
Sensor: Nr:Datum:Temp:Feuchte:
Aussen-T/F 751 23-03-2021 05:01:18 5.1 C 39 %
752 23-03-2021 05:11:18 4.8 C 39 %
753 23-03-2021 05:21:17 4.8 C 40 %
754 23-03-2021 05:31:18 4.7 C 40 %
755 23-03-2021 05:41:18 4.8 C 40 %
756 23-03-2021 05:51:17 4.9 C 39 %
757 23-03-2021 06:01:18 5.1 C 38 %
758 23-03-2021 06:11:18 5.1 C 38 %
759 23-03-2021 06:21:18 5.1 C 38 %
760 23-03-2021 06:31:17 5.1 C 37 %
761 23-03-2021 06:41:17 5.2 C 37 %
762 23-03-2021 06:51:18 5.2 C 37 %
763 23-03-2021 07:01:17 5.2 C 37 %
764 23-03-2021 07:11:17 5.3 C 37 %
765 23-03-2021 07:21:17 5.4 C 37 %
766 23-03-2021 07:31:17 5.3 C 37 %
767 23-03-2021 07:41:17 5.3 C 37 %
768 23-03-2021 07:51:18 5.5 C 37 %
769 23-03-2021 08:01:17 5.6 C 37 %
770 23-03-2021 08:11:17 5.7 C 37 %
771 23-03-2021 08:21:17 5.8 C 37 %
772 23-03-2021 08:31:17 5.9 C 36 %
773 23-03-2021 08:41:17 5.9 C 36 %
774 23-03-2021 08:51:17 6 C 36 %
775 23-03-2021 09:01:17 6.3 C 36 %
Sensor: Nr:Datum:Temp:Feuchte:
Aussen-T/F 776 23-03-2021 09:11:17 6.3 C 35 %
777 23-03-2021 09:21:17 6.2 C 35 %
778 23-03-2021 09:31:17 6.4 C 35 %
779 23-03-2021 09:41:17 6.4 C 35 %
780 23-03-2021 09:51:17 6.5 C 35 %
781 23-03-2021 10:01:17 6.5 C 35 %
782 23-03-2021 10:11:18 6.8 C 35 %
783 23-03-2021 10:21:18 7.1 C 35 %
784 23-03-2021 10:31:17 7.1 C 35 %
785 23-03-2021 10:41:18 7.1 C 35 %
786 23-03-2021 10:51:18 7.4 C 35 %
787 23-03-2021 11:01:17 7.4 C 35 %
788 23-03-2021 11:11:17 7.5 C 35 %
789 23-03-2021 11:21:18 7.4 C 35 %
790 23-03-2021 11:31:17 8.1 C 34 %
791 23-03-2021 11:41:17 8.1 C 34 %
792 23-03-2021 11:51:18 9.3 C 33 %
793 23-03-2021 12:01:18 8.8 C 33 %
794 23-03-2021 12:11:18 8.9 C 33 %
795 23-03-2021 12:21:18 9.8 C 32 %
796 23-03-2021 12:31:18 10.8 C 31 %
797 23-03-2021 12:41:18 10.6 C 31 %
798 23-03-2021 12:51:17 10.8 C 31 %
799 23-03-2021 13:01:17 10.8 C 31 %
800 23-03-2021 13:11:17 10.2 C 31 %
Sensor: Nr:Datum:Temp:Feuchte:
Aussen-T/F 801 23-03-2021 13:21:17 10.7 C 31 %
802 23-03-2021 13:31:18 10.3 C 31 %
803 23-03-2021 13:41:18 10.9 C 31 %
804 23-03-2021 13:51:18 11.5 C 30 %
805 23-03-2021 14:01:17 11.1 C 30 %
806 23-03-2021 14:11:17 11.7 C 30 %
807 23-03-2021 14:21:17 11.6 C 30 %
808 23-03-2021 14:31:18 11 C 30 %
809 23-03-2021 14:41:18 11.8 C 30 %
810 23-03-2021 14:51:17 12 C 30 %
811 23-03-2021 15:01:18 13 C 28 %
812 23-03-2021 15:11:18 13.8 C 27 %
813 23-03-2021 15:21:18 13.8 C 27 %
814 23-03-2021 15:31:18 15.6 C 25 %
815 23-03-2021 15:41:18 13.4 C 27 %
816 23-03-2021 15:51:17 15.3 C 25 %
817 23-03-2021 16:01:17 14.3 C 26 %
818 23-03-2021 16:11:17 13.2 C 26 %
819 23-03-2021 16:21:17 13.3 C 26 %
820 23-03-2021 16:31:18 13.7 C 26 %
821 23-03-2021 16:41:18 14.6 C 26 %
822 23-03-2021 16:51:18 13.4 C 26 %
823 23-03-2021 17:01:18 11.9 C 29 %
824 23-03-2021 17:11:18 11.7 C 29 %
825 23-03-2021 17:21:17 11.5 C 30 %
Sensor: Nr:Datum:Temp:Feuchte:
Aussen-T/F 826 23-03-2021 17:31:17 11.4 C 30 %
827 23-03-2021 17:41:18 10.8 C 30 %
828 23-03-2021 17:51:17 10.7 C 30 %
829 23-03-2021 18:01:17 10.1 C 30 %
830 23-03-2021 18:11:17 9.6 C 33 %
831 23-03-2021 18:21:18 8.7 C 35 %
832 23-03-2021 18:31:18 8.2 C 35 %
833 23-03-2021 18:41:18 7.7 C 35 %
834 23-03-2021 18:51:17 7.3 C 36 %
835 23-03-2021 19:01:17 6.7 C 37 %
836 23-03-2021 19:11:17 6.4 C 37 %
837 23-03-2021 19:21:17 6.3 C 37 %
838 23-03-2021 19:31:18 6.1 C 37 %
839 23-03-2021 19:41:18 6.1 C 37 %
840 23-03-2021 19:51:17 5.5 C 39 %
841 23-03-2021 20:01:17 5.2 C 40 %
842 23-03-2021 20:11:17 4.2 C 41 %
843 23-03-2021 20:21:17 3.8 C 43 %
844 23-03-2021 20:31:17 3.6 C 43 %
845 23-03-2021 20:41:17 3.7 C 43 %
846 23-03-2021 20:51:18 3.2 C 43 %
847 23-03-2021 21:01:17 2.8 C 45 %
848 23-03-2021 21:11:17 2.5 C 45 %
849 23-03-2021 21:21:17 2.4 C 45 %
850 23-03-2021 21:31:18 2.2 C 45 %
Sensor: Nr:Datum:Temp:Feuchte:
Aussen-T/F 851 23-03-2021 21:41:18 2 C 45 %
852 23-03-2021 21:51:17 2.1 C 46 %
853 23-03-2021 22:01:17 2 C 46 %
854 23-03-2021 22:11:17 1.6 C 46 %
855 23-03-2021 22:21:18 1.5 C 47 %
856 23-03-2021 22:31:18 1.5 C 47 %
857 23-03-2021 22:41:18 1.4 C 47 %
858 23-03-2021 22:51:18 1.2 C 47 %
859 23-03-2021 23:01:17 0.9 C 48 %
860 23-03-2021 23:11:17 1 C 48 %
861 23-03-2021 23:21:17 0.8 C 49 %
862 23-03-2021 23:31:17 0.7 C 49 %
863 23-03-2021 23:41:18 0.7 C 50 %
864 23-03-2021 23:51:18 0.5 C 50 %
865 24-03-2021 00:01:17 0.4 C 49 %
866 24-03-2021 00:11:17 0.1 C 50 %
867 24-03-2021 00:21:18 0.2 C 50 %
868 24-03-2021 00:31:17 0.1 C 50 %
869 24-03-2021 00:41:17 -0.2 C 50 %
870 24-03-2021 00:51:17 -0.1 C 50 %
871 24-03-2021 01:01:17 0 C 50 %
872 24-03-2021 01:11:17 0 C 50 %
873 24-03-2021 01:21:17 -0.2 C 50 %
874 24-03-2021 01:31:17 -0.3 C 50 %
875 24-03-2021 01:41:17 -0.4 C 50 %
Sensor: Nr:Datum:Temp:Feuchte:
Aussen-T/F 876 24-03-2021 01:51:17 -0.6 C 50 %
877 24-03-2021 02:01:17 -0.7 C 50 %
878 24-03-2021 02:11:17 -0.8 C 50 %
879 24-03-2021 02:21:17 -0.9 C 50 %
880 24-03-2021 02:31:18 -1 C 50 %
881 24-03-2021 02:41:18 -1.1 C 50 %
882 24-03-2021 02:51:17 -1.3 C 50 %
883 24-03-2021 03:01:17 -1.3 C 50 %
884 24-03-2021 03:11:17 -1.2 C 50 %
885 24-03-2021 03:21:17 -1.2 C 51 %
886 24-03-2021 03:31:17 -1.4 C 51 %
887 24-03-2021 03:41:17 -1.3 C 50 %
888 24-03-2021 03:51:18 -1.2 C 51 %
889 24-03-2021 04:01:18 -1.3 C 51 %
890 24-03-2021 04:11:18 -1.1 C 51 %
891 24-03-2021 04:21:17 -1.5 C 50 %
892 24-03-2021 04:31:17 -1.1 C 51 %
893 24-03-2021 04:41:17 -1.2 C 51 %
894 24-03-2021 04:51:17 -1.6 C 50 %
895 24-03-2021 05:01:17 -1.3 C 51 %
896 24-03-2021 05:11:17 -1.6 C 50 %
897 24-03-2021 05:21:18 -1.6 C 50 %
898 24-03-2021 05:31:18 -1.4 C 51 %
899 24-03-2021 05:41:18 -1.7 C 50 %
900 24-03-2021 05:51:18 -1.4 C 51 %
Sensor: Nr:Datum:Temp:Feuchte:
Aussen-T/F 901 24-03-2021 06:01:17 -1.6 C 51 %
902 24-03-2021 06:11:17 -1.7 C 51 %
903 24-03-2021 06:21:18 -1.7 C 50 %
904 24-03-2021 06:31:17 -1.9 C 50 %
905 24-03-2021 06:41:17 -1.7 C 50 %
906 24-03-2021 06:51:18 -1.8 C 50 %
907 24-03-2021 07:01:18 -1.4 C 51 %
908 24-03-2021 07:11:18 -1.6 C 50 %
909 24-03-2021 07:21:17 -1.4 C 50 %
910 24-03-2021 07:31:18 -1.2 C 50 %
911 24-03-2021 07:41:18 -1.2 C 50 %
912 24-03-2021 07:51:17 -0.7 C 51 %
913 24-03-2021 08:01:17 -0.8 C 50 %
914 24-03-2021 08:11:18 -0.5 C 51 %
915 24-03-2021 08:21:17 -0.3 C 51 %
916 24-03-2021 08:31:17 -0.1 C 51 %
917 24-03-2021 08:41:17 0.2 C 51 %
918 24-03-2021 08:51:17 0.7 C 51 %
919 24-03-2021 09:01:18 0.7 C 51 %
920 24-03-2021 09:11:18 0.8 C 51 %
921 24-03-2021 09:21:17 1.2 C 50 %
922 24-03-2021 09:31:18 1.7 C 50 %
923 24-03-2021 09:41:18 2.5 C 49 %
924 24-03-2021 09:51:17 3.1 C 48 %
925 24-03-2021 10:01:17 4.6 C 46 %
Sensor: Nr:Datum:Temp:Feuchte:
Aussen-T/F 926 24-03-2021 10:11:17 5.1 C 44 %
927 24-03-2021 10:21:17 5.8 C 43 %
928 24-03-2021 10:31:17 6.9 C 41 %
929 24-03-2021 10:41:17 8.4 C 40 %
930 24-03-2021 10:51:18 9.3 C 37 %
931 24-03-2021 11:01:17 10.6 C 36 %
932 24-03-2021 11:11:17 12.9 C 31 %
933 24-03-2021 11:21:18 13.8 C 30 %
934 24-03-2021 11:31:17 14.7 C 28 %
935 24-03-2021 11:41:17 13.2 C 29 %
936 24-03-2021 11:51:17 13 C 29 %
937 24-03-2021 12:01:18 15 C 26 %
938 24-03-2021 12:11:18 15.4 C 26 %
939 24-03-2021 12:21:18 15.5 C 26 %
940 24-03-2021 12:31:17 15.2 C 26 %
941 24-03-2021 12:41:17 14.7 C 27 %
942 24-03-2021 12:51:17 15.5 C 26 %
943 24-03-2021 13:01:18 15.6 C 26 %
944 24-03-2021 13:11:18 17 C 25 %
945 24-03-2021 13:21:17 18.3 C 22 %
946 24-03-2021 13:31:18 20.1 C 21 %
947 24-03-2021 13:41:18 18.1 C 21 %
948 24-03-2021 13:51:17 18.8 C 21 %
949 24-03-2021 14:01:17 18.1 C 21 %
950 24-03-2021 14:11:17 18.3 C 20 %
Sensor: Nr:Datum:Temp:Feuchte:
Aussen-T/F 951 24-03-2021 14:21:17 19.4 C 20 %
952 24-03-2021 14:31:18 21.4 C 20 %
953 24-03-2021 14:41:18 22.3 C 20 %
954 24-03-2021 14:51:17 22.3 C 20 %
955 24-03-2021 15:01:17 21.4 C 20 %
956 24-03-2021 15:11:17 21.9 C 20 %
957 24-03-2021 15:21:17 23 C 20 %
958 24-03-2021 15:31:17 22.8 C 20 %
959 24-03-2021 15:41:17 22.9 C 20 %
960 24-03-2021 15:51:18 22.2 C 20 %
961 24-03-2021 16:01:17 21.4 C 20 %
962 24-03-2021 16:11:17 22.7 C 20 %
963 24-03-2021 16:21:17 22 C 20 %
964 24-03-2021 16:31:18 20.6 C 20 %
965 24-03-2021 16:41:18 20.7 C 20 %
966 24-03-2021 16:51:18 18.7 C 20 %
967 24-03-2021 17:01:18 18.3 C 20 %
968 24-03-2021 17:11:18 17.6 C 20 %
969 24-03-2021 17:21:17 17.5 C 20 %
970 24-03-2021 17:31:18 17.2 C 20 %
971 24-03-2021 17:41:18 16.8 C 21 %
972 24-03-2021 17:51:18 16.4 C 22 %
973 24-03-2021 18:01:18 15.6 C 23 %
974 24-03-2021 18:11:18 14.4 C 25 %
975 24-03-2021 18:21:17 13.5 C 26 %
Sensor: Nr:Datum:Temp:Feuchte:
Aussen-T/F 976 24-03-2021 18:31:17 12.9 C 28 %
977 24-03-2021 18:41:17 11.9 C 30 %
978 24-03-2021 18:51:17 11.7 C 30 %
979 24-03-2021 19:01:18 11.4 C 30 %
980 24-03-2021 19:11:18 11.2 C 30 %
981 24-03-2021 19:21:18 11.1 C 30 %
982 24-03-2021 19:31:18 10.6 C 31 %
983 24-03-2021 19:41:18 10.5 C 31 %
984 24-03-2021 19:51:18 10.2 C 31 %
985 24-03-2021 20:01:18 10.2 C 31 %
986 24-03-2021 20:11:18 9.8 C 33 %
987 24-03-2021 20:21:18 9.7 C 33 %
988 24-03-2021 20:31:17 9.4 C 33 %
989 24-03-2021 20:41:17 9.2 C 34 %
990 24-03-2021 20:51:18 8.6 C 35 %
991 24-03-2021 21:01:18 7.9 C 36 %
992 24-03-2021 21:11:18 7.6 C 36 %
993 24-03-2021 21:21:17 7.5 C 37 %
994 24-03-2021 21:31:18 7.8 C 36 %
995 24-03-2021 21:41:18 8.8 C 35 %
996 24-03-2021 21:51:18 8.7 C 35 %
997 24-03-2021 22:01:18 7.7 C 36 %
998 24-03-2021 22:11:18 6.9 C 37 %
999 24-03-2021 22:21:17 6 C 37 %
1000 24-03-2021 22:31:18 5.5 C 39 %
Sensor: Nr:Datum:Temp:Feuchte:
Aussen-T/F 1001 24-03-2021 22:41:18 5.2 C 40 %
1002 24-03-2021 22:51:18 4.8 C 41 %
1003 24-03-2021 23:01:17 4.8 C 41 %
1004 24-03-2021 23:11:18 4.5 C 41 %
1005 24-03-2021 23:21:17 4.2 C 41 %
1006 24-03-2021 23:31:18 4.3 C 41 %
1007 24-03-2021 23:41:18 4.3 C 42 %
1008 24-03-2021 23:51:18 3.9 C 42 %
1009 25-03-2021 00:01:18 4.2 C 42 %
1010 25-03-2021 00:11:18 4 C 42 %
1011 25-03-2021 00:21:17 3.9 C 43 %
1012 25-03-2021 00:31:17 4.1 C 42 %
1013 25-03-2021 00:41:17 4.2 C 42 %
1014 25-03-2021 00:51:18 3.8 C 43 %
1015 25-03-2021 01:01:18 3.6 C 43 %
1016 25-03-2021 01:11:18 3.8 C 43 %
1017 25-03-2021 01:21:17 3.5 C 43 %
1018 25-03-2021 01:31:18 3.2 C 44 %
1019 25-03-2021 01:41:18 3 C 44 %
1020 25-03-2021 01:51:18 2.7 C 45 %
1021 25-03-2021 02:01:17 2.6 C 46 %
1022 25-03-2021 02:11:17 2.3 C 46 %
1023 25-03-2021 02:21:17 2.2 C 46 %
1024 25-03-2021 02:31:17 2.2 C 46 %
1025 25-03-2021 02:41:17 2.1 C 47 %
Sensor: Nr:Datum:Temp:Feuchte:
Aussen-T/F 1026 25-03-2021 02:51:18 1.8 C 47 %
1027 25-03-2021 03:01:17 1.8 C 48 %
1028 25-03-2021 03:11:17 1.6 C 48 %
1029 25-03-2021 03:21:17 1.6 C 48 %
1030 25-03-2021 03:31:17 1.5 C 48 %
1031 25-03-2021 03:41:17 1.4 C 49 %
1032 25-03-2021 03:51:17 1.4 C 49 %
1033 25-03-2021 04:01:17 1.5 C 49 %
1034 25-03-2021 04:11:17 1.2 C 49 %
1035 25-03-2021 04:21:17 1.4 C 49 %
1036 25-03-2021 04:31:17 1.2 C 49 %
1037 25-03-2021 04:41:18 1.5 C 50 %
1038 25-03-2021 04:51:17 1.1 C 49 %
1039 25-03-2021 05:01:17 1.2 C 50 %
1040 25-03-2021 05:11:17 1.1 C 50 %
1041 25-03-2021 05:21:18 0.9 C 50 %
1042 25-03-2021 05:31:18 0.8 C 50 %
1043 25-03-2021 05:41:18 1 C 50 %
1044 25-03-2021 05:51:18 0.7 C 50 %
1045 25-03-2021 06:01:18 0.6 C 51 %
1046 25-03-2021 06:11:18 0.3 C 50 %
1047 25-03-2021 06:21:17 0.5 C 51 %
1048 25-03-2021 06:31:17 0.8 C 51 %
1049 25-03-2021 06:41:17 0.8 C 51 %
1050 25-03-2021 06:51:17 0.9 C 51 %
Sensor: Nr:Datum:Temp:Feuchte:
Aussen-T/F 1051 25-03-2021 07:01:17 1.1 C 50 %
1052 25-03-2021 07:11:17 1.3 C 50 %
1053 25-03-2021 07:21:18 1.5 C 50 %
1054 25-03-2021 07:31:17 2.2 C 50 %
1055 25-03-2021 07:41:17 3.2 C 49 %
1056 25-03-2021 07:52:17 3.7 C 48 %
1057 25-03-2021 08:01:18 4.1 C 45 %
1058 25-03-2021 08:11:18 4.7 C 42 %
1059 25-03-2021 08:21:18 5.1 C 42 %
1060 25-03-2021 08:31:17 5.1 C 41 %
1061 25-03-2021 08:41:17 5 C 40 %
1062 25-03-2021 08:51:17 5.4 C 40 %
1063 25-03-2021 09:01:18 5.9 C 40 %
1064 25-03-2021 09:11:18 6.5 C 40 %
1065 25-03-2021 09:21:18 6.8 C 38 %
1066 25-03-2021 09:32:17 7.5 C 38 %
1067 25-03-2021 09:42:17 8.7 C 37 %
1068 25-03-2021 09:51:18 9.5 C 36 %
1069 25-03-2021 10:01:17 10.2 C 35 %
1070 25-03-2021 10:11:17 10.5 C 35 %
1071 25-03-2021 10:21:17 10.6 C 35 %
1072 25-03-2021 10:31:17 11.8 C 34 %
1073 25-03-2021 10:41:17 12.3 C 32 %
1074 25-03-2021 10:51:17 12.4 C 32 %
1075 25-03-2021 11:01:17 13 C 31 %
Sensor: Nr:Datum:Temp:Feuchte:
Aussen-T/F 1076 25-03-2021 11:11:18 13.6 C 31 %
1077 25-03-2021 11:21:18 13.6 C 30 %
1078 25-03-2021 11:31:18 14.1 C 30 %
1079 25-03-2021 11:41:18 14.8 C 30 %
1080 25-03-2021 11:52:17 14.6 C 30 %
1081 25-03-2021 12:01:17 13.6 C 30 %
1082 25-03-2021 12:11:17 13.6 C 30 %
1083 25-03-2021 12:21:17 14.2 C 30 %
1084 25-03-2021 12:31:18 14 C 30 %
1085 25-03-2021 12:41:18 14.2 C 30 %
1086 25-03-2021 12:52:17 14.7 C 30 %
1087 25-03-2021 13:01:18 16 C 28 %
1088 25-03-2021 13:11:18 15.7 C 29 %
1089 25-03-2021 13:22:17 17.7 C 27 %
1090 25-03-2021 13:31:18 18.4 C 26 %
1091 25-03-2021 13:41:18 18.7 C 25 %
1092 25-03-2021 13:52:17 18.3 C 25 %
1093 25-03-2021 14:01:18 16.5 C 26 %
1094 25-03-2021 14:11:18 18.1 C 26 %
1095 25-03-2021 14:22:17 20.1 C 24 %
1096 25-03-2021 14:31:18 21.1 C 22 %
1097 25-03-2021 14:41:18 21.7 C 22 %
1098 25-03-2021 14:51:18 19.8 C 23 %
1099 25-03-2021 15:02:17 21.8 C 21 %
1100 25-03-2021 15:12:17 20.9 C 22 %
Sensor: Nr:Datum:Temp:Feuchte:
Aussen-T/F 1101 25-03-2021 15:22:17 21.7 C 21 %
1102 25-03-2021 15:31:18 18.7 C 25 %
1103 25-03-2021 15:41:18 17.9 C 25 %
1104 25-03-2021 15:52:17 16.5 C 26 %
1105 25-03-2021 16:02:18 15.7 C 26 %
1106 25-03-2021 16:11:18 15.3 C 27 %
1107 25-03-2021 16:21:18 15.3 C 26 %
1108 25-03-2021 16:31:18 15.3 C 26 %
1109 25-03-2021 16:41:18 15.1 C 26 %
1110 25-03-2021 16:51:18 15 C 26 %
1111 25-03-2021 17:02:17 14.7 C 27 %
1112 25-03-2021 17:12:17 14.3 C 27 %
1113 25-03-2021 17:21:18 14.1 C 28 %
1114 25-03-2021 17:32:17 13.7 C 29 %
1115 25-03-2021 17:42:18 13.5 C 29 %
1116 25-03-2021 17:52:17 13.1 C 30 %
1117 25-03-2021 18:02:18 12.8 C 30 %
1118 25-03-2021 18:11:18 12.5 C 31 %
1119 25-03-2021 18:22:17 12.4 C 31 %
1120 25-03-2021 18:32:18 12.1 C 32 %
1121 25-03-2021 18:42:18 12.1 C 31 %
1122 25-03-2021 18:52:17 12 C 31 %
1123 25-03-2021 19:02:17 11.9 C 32 %
1124 25-03-2021 19:12:17 11.6 C 33 %
1125 25-03-2021 19:22:17 11.6 C 33 %
Sensor: Nr:Datum:Temp:Feuchte:
Aussen-T/F 1126 25-03-2021 19:32:18 11.3 C 33 %
1127 25-03-2021 19:42:18 10.7 C 35 %
1128 25-03-2021 19:52:17 10.6 C 35 %
1129 25-03-2021 20:02:18 10.7 C 35 %
1130 25-03-2021 20:11:18 10.7 C 35 %
1131 25-03-2021 20:22:17 10.6 C 35 %
1132 25-03-2021 20:32:18 10.4 C 36 %
1133 25-03-2021 20:42:18 10.1 C 36 %
1134 25-03-2021 20:51:18 10.2 C 36 %
1135 25-03-2021 21:02:17 10.2 C 36 %
1136 25-03-2021 21:12:18 9.9 C 37 %
1137 25-03-2021 21:21:18 9.4 C 38 %
1138 25-03-2021 21:32:17 9.2 C 38 %
1139 25-03-2021 21:42:17 9.1 C 38 %
1140 25-03-2021 21:52:18 8.5 C 39 %
1141 25-03-2021 22:01:18 8.9 C 39 %
1142 25-03-2021 22:11:18 8.1 C 39 %
1143 25-03-2021 22:22:18 8.2 C 40 %
1144 25-03-2021 22:32:17 7.6 C 40 %
1145 25-03-2021 22:42:17 7.5 C 41 %
1146 25-03-2021 22:52:18 7.3 C 40 %
1147 25-03-2021 23:02:17 7 C 41 %
1148 25-03-2021 23:12:17 6.7 C 42 %
1149 25-03-2021 23:22:18 6.3 C 42 %
1150 25-03-2021 23:32:17 6.1 C 43 %
Sensor: Nr:Datum:Temp:Feuchte:
Aussen-T/F 1151 25-03-2021 23:42:18 6.1 C 44 %
1152 25-03-2021 23:52:18 6.1 C 44 %
1153 26-03-2021 00:02:18 6 C 44 %
1154 26-03-2021 00:12:18 5.9 C 45 %
1155 26-03-2021 00:22:18 5.5 C 45 %
1156 26-03-2021 00:32:17 5.3 C 45 %
1157 26-03-2021 00:42:18 5 C 45 %
1158 26-03-2021 00:52:18 5.1 C 45 %
1159 26-03-2021 01:02:18 5.4 C 46 %
1160 26-03-2021 01:12:18 5.6 C 46 %
1161 26-03-2021 01:21:18 5.5 C 46 %
1162 26-03-2021 01:32:17 5.7 C 46 %
1163 26-03-2021 01:42:17 6 C 45 %
1164 26-03-2021 01:52:18 6 C 45 %
1165 26-03-2021 02:02:18 6 C 45 %
1166 26-03-2021 02:12:19 5.9 C 45 %
1167 26-03-2021 02:22:18 6 C 45 %
1168 26-03-2021 02:32:18 5.9 C 45 %
1169 26-03-2021 02:42:19 5.7 C 45 %
1170 26-03-2021 02:52:18 5.7 C 45 %
1171 26-03-2021 03:02:17 5.8 C 45 %
1172 26-03-2021 03:12:18 5.9 C 45 %
1173 26-03-2021 03:22:18 6.3 C 44 %
1174 26-03-2021 03:32:18 6.1 C 44 %
1175 26-03-2021 03:42:18 6.1 C 44 %
Sensor: Nr:Datum:Temp:Feuchte:
Aussen-T/F 1176 26-03-2021 03:52:17 6.3 C 43 %
1177 26-03-2021 04:02:17 6 C 43 %
1178 26-03-2021 04:12:17 5.5 C 44 %
1179 26-03-2021 04:22:18 4.8 C 45 %
1180 26-03-2021 04:32:17 4.4 C 45 %
1181 26-03-2021 04:42:17 4 C 46 %
1182 26-03-2021 04:52:18 3.8 C 47 %
1183 26-03-2021 05:02:17 3.7 C 47 %
1184 26-03-2021 05:12:17 3.7 C 48 %
1185 26-03-2021 05:22:18 3.4 C 47 %
1186 26-03-2021 05:32:17 3.2 C 48 %
1187 26-03-2021 05:42:17 3.1 C 48 %
1188 26-03-2021 05:52:18 3 C 48 %
1189 26-03-2021 06:02:18 2.8 C 49 %
1190 26-03-2021 06:12:18 2.7 C 49 %
1191 26-03-2021 06:22:18 2.5 C 49 %
1192 26-03-2021 06:32:17 2.5 C 50 %
1193 26-03-2021 06:42:17 2.4 C 50 %
1194 26-03-2021 06:52:18 2.6 C 50 %
1195 26-03-2021 07:02:17 2.9 C 50 %
1196 26-03-2021 07:12:17 3.5 C 49 %
1197 26-03-2021 07:22:17 3.8 C 49 %
1198 26-03-2021 07:32:18 3.9 C 49 %
1199 26-03-2021 07:42:18 3.8 C 49 %
1200 26-03-2021 07:52:17 3.7 C 49 %
Sensor: Nr:Datum:Temp:Feuchte:
Aussen-T/F 1201 26-03-2021 08:02:17 3.7 C 49 %
1202 26-03-2021 08:12:17 3.8 C 49 %
1203 26-03-2021 08:22:18 4 C 48 %
1204 26-03-2021 08:32:17 4.3 C 48 %
1205 26-03-2021 08:42:17 4.6 C 49 %
1206 26-03-2021 08:52:18 5 C 48 %
1207 26-03-2021 09:02:18 5.4 C 48 %
1208 26-03-2021 09:12:18 5.7 C 48 %
1209 26-03-2021 09:22:17 6.1 C 47 %
1210 26-03-2021 09:32:18 6.4 C 47 %
1211 26-03-2021 09:42:18 7 C 46 %
1212 26-03-2021 09:52:18 7.9 C 45 %
1213 26-03-2021 10:02:18 8.9 C 42 %
1214 26-03-2021 10:12:18 9.7 C 40 %
1215 26-03-2021 10:22:18 10.5 C 40 %
1216 26-03-2021 10:32:17 11.3 C 38 %
1217 26-03-2021 10:42:17 11.4 C 36 %
1218 26-03-2021 10:52:18 12.3 C 34 %
1219 26-03-2021 11:02:17 13.2 C 31 %
1220 26-03-2021 11:12:17 13.3 C 31 %
1221 26-03-2021 11:22:18 15.7 C 29 %
1222 26-03-2021 11:32:18 16.6 C 27 %
1223 26-03-2021 11:42:18 16.8 C 26 %
1224 26-03-2021 11:52:17 16.5 C 26 %
1225 26-03-2021 12:02:17 15.5 C 26 %
Sensor: Nr:Datum:Temp:Feuchte:
Aussen-T/F 1226 26-03-2021 12:12:18 14.8 C 27 %
1227 26-03-2021 12:22:18 15.9 C 26 %
1228 26-03-2021 12:32:18 16.6 C 26 %
1229 26-03-2021 12:42:18 15.7 C 27 %
1230 26-03-2021 12:52:17 16.8 C 26 %
1231 26-03-2021 13:02:17 17.3 C 26 %
1232 26-03-2021 13:12:17 16.6 C 26 %
1233 26-03-2021 13:22:17 16.9 C 25 %
1234 26-03-2021 13:32:18 16.9 C 25 %
1235 26-03-2021 13:42:18 18.1 C 25 %
1236 26-03-2021 13:52:18 18.9 C 24 %
1237 26-03-2021 14:02:18 15.7 C 25 %
1238 26-03-2021 14:12:18 18.4 C 24 %
1239 26-03-2021 14:22:18 18.9 C 23 %
1240 26-03-2021 14:32:17 20.8 C 22 %
1241 26-03-2021 14:42:17 17.6 C 23 %
1242 26-03-2021 14:52:17 17.3 C 24 %
1243 26-03-2021 15:02:18 19 C 22 %
1244 26-03-2021 15:12:18 17.8 C 23 %
1245 26-03-2021 15:22:18 18.4 C 23 %
1246 26-03-2021 15:32:17 20.9 C 21 %
1247 26-03-2021 15:42:17 16.9 C 24 %
1248 26-03-2021 15:52:18 17 C 25 %
1249 26-03-2021 16:02:17 16.9 C 24 %
1250 26-03-2021 16:12:17 16.9 C 25 %
Sensor: Nr:Datum:Temp:Feuchte:
Aussen-T/F 1251 26-03-2021 16:22:18 17.3 C 23 %
1252 26-03-2021 16:32:18 17.3 C 24 %
1253 26-03-2021 16:42:18 17.1 C 23 %
1254 26-03-2021 16:52:18 16.8 C 24 %
1255 26-03-2021 17:02:18 15.7 C 25 %
1256 26-03-2021 17:12:18 15.7 C 25 %
1257 26-03-2021 17:22:18 15.6 C 25 %
1258 26-03-2021 17:32:17 15.4 C 25 %
1259 26-03-2021 17:42:17 15.7 C 25 %
1260 26-03-2021 17:52:18 15.7 C 25 %
1261 26-03-2021 18:02:17 15.3 C 25 %
1262 26-03-2021 18:12:17 15.1 C 25 %
1263 26-03-2021 18:22:18 14.8 C 26 %
1264 26-03-2021 18:32:18 14.6 C 26 %
1265 26-03-2021 18:42:18 13.5 C 28 %
1266 26-03-2021 18:52:17 12.7 C 30 %
1267 26-03-2021 19:02:17 12 C 30 %
1268 26-03-2021 19:12:17 11.9 C 32 %
1269 26-03-2021 19:22:18 11.7 C 32 %
1270 26-03-2021 19:32:17 11.8 C 32 %
1271 26-03-2021 19:42:18 11.3 C 31 %
1272 26-03-2021 19:52:18 11.4 C 31 %
1273 26-03-2021 20:02:17 11.2 C 32 %
1274 26-03-2021 20:12:17 11.4 C 31 %
1275 26-03-2021 20:22:17 11 C 31 %
Sensor: Nr:Datum:Temp:Feuchte:
Aussen-T/F 1276 26-03-2021 20:32:17 11.1 C 31 %
1277 26-03-2021 20:42:18 10.5 C 32 %
1278 26-03-2021 20:52:17 10.3 C 32 %
1279 26-03-2021 21:02:18 10.2 C 32 %
1280 26-03-2021 21:12:18 10 C 32 %
1281 26-03-2021 21:22:18 9.5 C 34 %
1282 26-03-2021 21:32:17 9.2 C 35 %
1283 26-03-2021 21:42:17 9.3 C 35 %
1284 26-03-2021 21:52:17 9.2 C 35 %
1285 26-03-2021 22:02:17 8.8 C 35 %
1286 26-03-2021 22:12:17 8.6 C 36 %
1287 26-03-2021 22:22:18 8.7 C 35 %
1288 26-03-2021 22:32:18 8.5 C 36 %
1289 26-03-2021 22:42:18 8.7 C 36 %
1290 26-03-2021 22:52:18 8.4 C 36 %
1291 26-03-2021 23:02:18 8.9 C 35 %
1292 26-03-2021 23:12:18 8.8 C 36 %
1293 26-03-2021 23:22:17 8.5 C 35 %
1294 26-03-2021 23:32:17 7.8 C 36 %
1295 26-03-2021 23:42:17 7.6 C 37 %
1296 26-03-2021 23:52:18 7.5 C 37 %
1297 27-03-2021 00:02:18 7.4 C 37 %
1298 27-03-2021 00:12:18 7.4 C 37 %
1299 27-03-2021 00:22:18 7.7 C 38 %
1300 27-03-2021 00:32:17 9 C 35 %
Sensor: Nr:Datum:Temp:Feuchte:
Aussen-T/F 1301 27-03-2021 00:42:17 9.2 C 35 %
1302 27-03-2021 00:52:18 9.3 C 35 %
1303 27-03-2021 01:02:18 9 C 36 %
1304 27-03-2021 01:12:18 8.7 C 39 %
1305 27-03-2021 01:22:17 9.5 C 36 %
1306 27-03-2021 01:32:17 10.1 C 35 %
1307 27-03-2021 01:42:18 10.3 C 35 %
1308 27-03-2021 01:52:18 10.2 C 35 %
1309 27-03-2021 02:02:18 9.6 C 36 %
1310 27-03-2021 02:12:18 9.5 C 36 %
1311 27-03-2021 02:22:17 10.3 C 35 %
1312 27-03-2021 02:32:17 10.2 C 35 %
1313 27-03-2021 02:42:17 9.9 C 36 %
1314 27-03-2021 02:52:17 8.6 C 36 %
1315 27-03-2021 03:02:18 8.4 C 35 %
1316 27-03-2021 03:12:18 7.5 C 36 %
1317 27-03-2021 03:22:17 7.1 C 37 %
1318 27-03-2021 03:32:18 7 C 36 %
1319 27-03-2021 03:42:18 6.7 C 37 %
1320 27-03-2021 03:52:17 7 C 36 %
1321 27-03-2021 04:02:18 7 C 36 %
1322 27-03-2021 04:12:18 6.9 C 37 %
1323 27-03-2021 04:22:17 6.8 C 37 %
1324 27-03-2021 04:32:17 6.9 C 36 %
1325 27-03-2021 04:42:17 6.9 C 36 %
Sensor: Nr:Datum:Temp:Feuchte:
Aussen-T/F 1326 27-03-2021 04:52:17 6.7 C 37 %
1327 27-03-2021 05:02:18 6.6 C 36 %
1328 27-03-2021 05:12:18 6.6 C 36 %
1329 27-03-2021 05:22:17 6.4 C 36 %
1330 27-03-2021 05:32:17 6.2 C 36 %
1331 27-03-2021 05:42:18 6 C 36 %
1332 27-03-2021 05:52:17 5.8 C 36 %
1333 27-03-2021 06:02:17 5.3 C 37 %
1334 27-03-2021 06:12:17 5.3 C 37 %
1335 27-03-2021 06:22:18 5.4 C 37 %
1336 27-03-2021 06:32:17 5.4 C 37 %
1337 27-03-2021 06:42:18 5.1 C 37 %
1338 27-03-2021 06:52:18 5.3 C 37 %
1339 27-03-2021 07:02:17 5.3 C 37 %
1340 27-03-2021 07:12:17 5.6 C 37 %
1341 27-03-2021 07:22:18 5.4 C 37 %
1342 27-03-2021 07:32:17 5.8 C 37 %
1343 27-03-2021 07:42:17 6 C 36 %
1344 27-03-2021 07:52:17 6.2 C 36 %
1345 27-03-2021 08:02:18 6.2 C 36 %
1346 27-03-2021 08:12:18 6.1 C 36 %
1347 27-03-2021 08:22:17 6.7 C 36 %
1348 27-03-2021 08:32:17 6.9 C 36 %
1349 27-03-2021 08:42:17 7.1 C 35 %
1350 27-03-2021 08:52:18 6.9 C 36 %
Sensor: Nr:Datum:Temp:Feuchte:
Aussen-T/F 1351 27-03-2021 09:02:17 5.8 C 39 %
1352 27-03-2021 09:12:17 6.9 C 37 %
1353 27-03-2021 09:22:18 7.4 C 35 %
1354 27-03-2021 09:32:18 7.6 C 35 %
1355 27-03-2021 09:42:18 8 C 35 %
1356 27-03-2021 09:52:18 7.9 C 35 %
1357 27-03-2021 10:02:17 8.4 C 34 %
1358 27-03-2021 10:12:17 7.9 C 34 %
1359 27-03-2021 10:22:18 7.3 C 35 %
1360 27-03-2021 10:32:18 4.7 C 40 %
1361 27-03-2021 10:42:18 4.1 C 42 %
1362 27-03-2021 10:52:17 4.5 C 42 %
1363 27-03-2021 11:02:17 5.5 C 40 %
1364 27-03-2021 11:12:17 6 C 39 %
1365 27-03-2021 11:22:17 7 C 38 %
1366 27-03-2021 11:32:17 7.5 C 37 %
1367 27-03-2021 11:42:17 7.9 C 37 %
1368 27-03-2021 11:52:17 7.7 C 35 %
1369 27-03-2021 12:02:18 5.7 C 40 %
1370 27-03-2021 12:12:18 7 C 39 %
1371 27-03-2021 12:22:17 9.1 C 36 %
1372 27-03-2021 12:32:17 9.2 C 35 %
1373 27-03-2021 12:42:17 9.2 C 35 %
1374 27-03-2021 12:52:18 8.8 C 36 %
1375 27-03-2021 13:02:18 7.8 C 36 %
Sensor: Nr:Datum:Temp:Feuchte:
Aussen-T/F 1376 27-03-2021 13:12:18 6.3 C 39 %
1377 27-03-2021 13:22:17 6.8 C 39 %
1378 27-03-2021 13:32:18 7.9 C 37 %
1379 27-03-2021 13:42:18 7 C 36 %
1380 27-03-2021 13:52:18 6.6 C 37 %
1381 27-03-2021 14:02:18 6.5 C 37 %
1382 27-03-2021 14:12:18 7.1 C 36 %
1383 27-03-2021 14:22:18 10.1 C 32 %
1384 27-03-2021 14:32:18 11.1 C 30 %
1385 27-03-2021 14:42:18 12.8 C 30 %
1386 27-03-2021 14:52:18 11.4 C 29 %
1387 27-03-2021 15:02:18 8.9 C 31 %
1388 27-03-2021 15:12:18 9.1 C 31 %
1389 27-03-2021 15:22:17 9.2 C 30 %
1390 27-03-2021 15:32:17 9.5 C 30 %
1391 27-03-2021 15:42:17 9.4 C 30 %
1392 27-03-2021 15:52:17 9.8 C 30 %
1393 27-03-2021 16:02:17 9.8 C 30 %
1394 27-03-2021 16:12:17 10 C 30 %
1395 27-03-2021 16:22:18 9.6 C 31 %
1396 27-03-2021 16:32:18 9.5 C 31 %
1397 27-03-2021 16:42:18 9.6 C 31 %
1398 27-03-2021 16:52:18 9.5 C 31 %
1399 27-03-2021 17:02:18 9.2 C 32 %
1400 27-03-2021 17:12:18 9.3 C 32 %
Sensor: Nr:Datum:Temp:Feuchte:
Aussen-T/F 1401 27-03-2021 17:22:17 9 C 32 %
1402 27-03-2021 17:32:18 9 C 33 %
1403 27-03-2021 17:42:18 8.2 C 33 %
1404 27-03-2021 17:52:19 7.9 C 35 %
1405 27-03-2021 18:02:18 6.9 C 37 %
1406 27-03-2021 18:12:18 5.7 C 38 %
1407 27-03-2021 18:22:17 5.3 C 42 %
1408 27-03-2021 18:32:18 5.1 C 42 %
1409 27-03-2021 18:42:18 4.7 C 43 %
1410 27-03-2021 18:52:18 4.5 C 44 %
1411 27-03-2021 19:02:18 4.3 C 45 %
1412 27-03-2021 19:12:18 4.3 C 45 %
1413 27-03-2021 19:22:18 4.9 C 42 %
1414 27-03-2021 19:32:18 4.6 C 43 %
1415 27-03-2021 19:42:18 4.8 C 42 %
1416 27-03-2021 19:52:17 4.8 C 42 %
1417 27-03-2021 20:02:18 4.6 C 42 %
1418 27-03-2021 20:12:18 4.1 C 43 %
1419 27-03-2021 20:22:17 4.2 C 43 %
1420 27-03-2021 20:32:17 4.2 C 43 %
1421 27-03-2021 20:42:17 4.9 C 42 %
1422 27-03-2021 20:52:17 4.9 C 42 %
1423 27-03-2021 21:02:17 4.9 C 42 %
1424 27-03-2021 21:12:17 5.3 C 41 %
1425 27-03-2021 21:22:18 4.9 C 42 %
Sensor: Nr:Datum:Temp:Feuchte:
Aussen-T/F 1426 27-03-2021 21:32:18 5 C 41 %
1427 27-03-2021 21:42:18 4.3 C 42 %
1428 27-03-2021 21:52:18 4.1 C 43 %
1429 27-03-2021 22:02:17 3.7 C 44 %
1430 27-03-2021 22:12:17 3.9 C 45 %
1431 27-03-2021 22:22:18 3.7 C 44 %
1432 27-03-2021 22:32:17 4.3 C 42 %
1433 27-03-2021 22:42:17 3.9 C 43 %
1434 27-03-2021 22:52:17 4.1 C 42 %
1435 27-03-2021 23:02:18 3.5 C 43 %
1436 27-03-2021 23:12:18 3.2 C 45 %
1437 27-03-2021 23:22:18 3.1 C 46 %
1438 27-03-2021 23:32:17 3.1 C 46 %
1439 27-03-2021 23:42:17 3.6 C 44 %
1440 27-03-2021 23:52:18 3.7 C 44 %
1441 28-03-2021 00:02:17 3.5 C 44 %
1442 28-03-2021 00:12:17 3.3 C 44 %
1443 28-03-2021 00:22:17 3.8 C 44 %
1444 28-03-2021 00:32:17 3.7 C 44 %
1445 28-03-2021 00:42:17 3.5 C 44 %
1446 28-03-2021 00:52:18 3 C 45 %
1447 28-03-2021 01:02:17 3.4 C 45 %
1448 28-03-2021 01:12:17 3.5 C 45 %
1449 28-03-2021 01:22:17 4.1 C 44 %
1450 28-03-2021 01:32:17 4.1 C 44 %
Sensor: Nr:Datum:Temp:Feuchte:
Aussen-T/F 1451 28-03-2021 01:42:17 4.2 C 43 %
1452 28-03-2021 01:52:17 4.4 C 43 %
1453 28-03-2021 02:02:17 4.4 C 43 %
1454 28-03-2021 02:12:17 4.4 C 42 %
1455 28-03-2021 02:22:17 4.4 C 43 %
1456 28-03-2021 02:32:17 4.6 C 43 %
1457 28-03-2021 02:42:18 4.7 C 42 %
1458 28-03-2021 02:52:18 4.6 C 43 %
1459 28-03-2021 04:02:18 4.7 C 43 %
1460 28-03-2021 04:12:18 4.8 C 43 %
1461 28-03-2021 04:22:18 4.8 C 43 %
1462 28-03-2021 04:32:17 4.8 C 43 %
1463 28-03-2021 04:42:17 4.8 C 43 %
1464 28-03-2021 04:52:18 4.8 C 43 %
1465 28-03-2021 05:02:17 4.6 C 43 %
1466 28-03-2021 05:12:17 4.3 C 43 %
1467 28-03-2021 05:22:17 4.5 C 43 %
1468 28-03-2021 05:32:18 4.2 C 43 %
1469 28-03-2021 05:42:18 4 C 43 %
1470 28-03-2021 05:52:18 3.9 C 45 %
1471 28-03-2021 06:02:17 3.8 C 45 %
1472 28-03-2021 06:12:18 3.8 C 45 %
1473 28-03-2021 06:22:17 3.8 C 45 %
1474 28-03-2021 06:32:17 3.7 C 45 %
1475 28-03-2021 06:42:17 3.9 C 45 %
Sensor: Nr:Datum:Temp:Feuchte:
Aussen-T/F 1476 28-03-2021 06:52:17 3.9 C 45 %
1477 28-03-2021 07:02:18 4.1 C 43 %
1478 28-03-2021 07:12:18 4.3 C 43 %
1479 28-03-2021 07:22:17 4.7 C 42 %
1480 28-03-2021 07:32:18 4.8 C 42 %
1481 28-03-2021 07:42:18 5.3 C 41 %
1482 28-03-2021 07:52:18 5.3 C 41 %
1483 28-03-2021 08:02:17 5.4 C 41 %
1484 28-03-2021 08:12:18 5.4 C 41 %
1485 28-03-2021 08:22:17 5.6 C 41 %
1486 28-03-2021 08:32:18 5.7 C 41 %
1487 28-03-2021 08:42:18 6 C 40 %
1488 28-03-2021 08:52:18 5.8 C 41 %
1489 28-03-2021 09:02:17 6 C 40 %
1490 28-03-2021 09:12:17 6.4 C 40 %
1491 28-03-2021 09:22:18 6.7 C 40 %
1492 28-03-2021 09:32:18 7.1 C 39 %
1493 28-03-2021 09:42:18 7.2 C 39 %
1494 28-03-2021 09:52:18 7.5 C 39 %
1495 28-03-2021 10:02:17 7.6 C 38 %
1496 28-03-2021 10:12:18 7 C 39 %
1497 28-03-2021 10:22:18 7 C 40 %
1498 28-03-2021 10:32:17 8.5 C 37 %
1499 28-03-2021 10:42:17 10.3 C 35 %
1500 28-03-2021 10:52:17 10.8 C 35 %
Sensor: Nr:Datum:Temp:Feuchte:
Aussen-T/F 1501 28-03-2021 11:02:17 10.8 C 34 %
1502 28-03-2021 11:12:17 11.4 C 33 %
1503 28-03-2021 11:22:17 11.2 C 33 %
1504 28-03-2021 11:32:17 11.8 C 33 %
1505 28-03-2021 11:42:17 12.5 C 32 %
1506 28-03-2021 11:52:17 12.2 C 31 %
1507 28-03-2021 12:02:18 13.1 C 30 %
1508 28-03-2021 12:12:18 13 C 29 %
1509 28-03-2021 12:22:18 13.2 C 28 %
1510 28-03-2021 12:32:18 14.4 C 27 %
1511 28-03-2021 12:42:18 13.1 C 27 %
1512 28-03-2021 12:52:17 13.7 C 28 %
1513 28-03-2021 13:02:17 13.8 C 27 %
1514 28-03-2021 13:12:17 14.4 C 26 %
1515 28-03-2021 13:22:18 13.4 C 26 %
1516 28-03-2021 13:32:18 14.8 C 26 %
1517 28-03-2021 13:42:18 14 C 26 %
1518 28-03-2021 13:52:18 14.4 C 26 %
1519 28-03-2021 14:02:18 14.7 C 26 %
1520 28-03-2021 14:12:18 15.6 C 25 %
1521 28-03-2021 14:22:18 16.2 C 25 %
1522 28-03-2021 14:32:18 16.3 C 25 %
1523 28-03-2021 14:42:18 15.3 C 25 %
1524 28-03-2021 14:52:18 16.5 C 25 %
1525 28-03-2021 15:02:18 15.9 C 25 %
Sensor: Nr:Datum:Temp:Feuchte:
Aussen-T/F 1526 28-03-2021 15:12:18 17.3 C 24 %
1527 28-03-2021 15:22:18 18.1 C 22 %
1528 28-03-2021 15:32:18 18.2 C 22 %
1529 28-03-2021 15:42:18 17.2 C 22 %
1530 28-03-2021 15:52:18 16.6 C 22 %
1531 28-03-2021 16:02:18 18.1 C 21 %
1532 28-03-2021 16:12:18 17.2 C 22 %
1533 28-03-2021 16:22:18 17.6 C 22 %
1534 28-03-2021 16:32:17 17.6 C 22 %
1535 28-03-2021 16:42:18 17.1 C 22 %
1536 28-03-2021 16:52:17 16.7 C 22 %
1537 28-03-2021 17:02:18 16.7 C 22 %
1538 28-03-2021 17:12:18 15.8 C 23 %
1539 28-03-2021 17:22:18 15.6 C 23 %
1540 28-03-2021 17:32:18 15.7 C 23 %
1541 28-03-2021 17:42:18 15.8 C 24 %
1542 28-03-2021 17:52:18 16 C 23 %
1543 28-03-2021 18:02:17 15.8 C 23 %
1544 28-03-2021 18:12:17 15.8 C 24 %
1545 28-03-2021 18:22:17 15.6 C 23 %
1546 28-03-2021 18:32:17 15.7 C 23 %
1547 28-03-2021 18:42:17 15.1 C 23 %
1548 28-03-2021 18:52:17 14.7 C 25 %
1549 28-03-2021 19:02:18 14.4 C 25 %
1550 28-03-2021 19:12:18 14.1 C 25 %
Sensor: Nr:Datum:Temp:Feuchte:
Aussen-T/F 1551 28-03-2021 19:22:18 13.5 C 26 %
1552 28-03-2021 19:32:18 13.5 C 26 %
1553 28-03-2021 19:42:18 12.6 C 28 %
1554 28-03-2021 19:52:18 12.4 C 27 %
1555 28-03-2021 20:02:18 12.7 C 27 %
1556 28-03-2021 20:12:18 12.4 C 27 %
1557 28-03-2021 20:22:17 12 C 28 %
1558 28-03-2021 20:32:18 12 C 27 %
1559 28-03-2021 20:42:18 11.3 C 30 %
1560 28-03-2021 20:52:17 10.3 C 31 %
1561 28-03-2021 21:02:18 10 C 31 %
1562 28-03-2021 21:12:18 9.9 C 32 %
1563 28-03-2021 21:22:17 9.6 C 32 %
1564 28-03-2021 21:32:17 9.2 C 33 %
1565 28-03-2021 21:42:17 8.9 C 34 %
1566 28-03-2021 21:52:18 8.6 C 34 %
1567 28-03-2021 22:02:17 8.6 C 35 %
1568 28-03-2021 22:12:18 8.4 C 35 %
1569 28-03-2021 22:22:18 8.4 C 35 %
1570 28-03-2021 22:32:18 8.4 C 35 %
1571 28-03-2021 22:42:18 8.4 C 35 %
1572 28-03-2021 22:52:18 8.4 C 35 %
1573 28-03-2021 23:02:18 8.2 C 35 %
1574 28-03-2021 23:12:18 8.2 C 35 %
1575 28-03-2021 23:22:18 8 C 35 %
Sensor: Nr:Datum:Temp:Feuchte:
Aussen-T/F 1576 28-03-2021 23:32:18 8 C 35 %
1577 28-03-2021 23:42:18 7.7 C 36 %
1578 28-03-2021 23:52:17 7.7 C 36 %
1579 29-03-2021 00:02:17 7.6 C 36 %
1580 29-03-2021 00:12:17 7.4 C 36 %
1581 29-03-2021 00:22:17 7.2 C 37 %
1582 29-03-2021 00:32:17 7.3 C 36 %
1583 29-03-2021 00:42:17 6.7 C 37 %
1584 29-03-2021 00:52:17 6.8 C 37 %
1585 29-03-2021 01:02:17 6.6 C 37 %
1586 29-03-2021 01:12:18 6.3 C 38 %
1587 29-03-2021 01:22:17 6.1 C 38 %
1588 29-03-2021 01:32:17 5.4 C 39 %
1589 29-03-2021 01:42:17 5 C 40 %
1590 29-03-2021 01:52:18 4.8 C 40 %
1591 29-03-2021 02:02:17 5.1 C 40 %
1592 29-03-2021 02:12:17 5.1 C 40 %
1593 29-03-2021 02:22:17 5 C 40 %
1594 29-03-2021 02:32:17 4.7 C 41 %
1595 29-03-2021 02:42:17 4.5 C 41 %
1596 29-03-2021 02:52:17 4.1 C 42 %
1597 29-03-2021 03:02:18 4 C 42 %
1598 29-03-2021 03:12:18 4 C 42 %
1599 29-03-2021 03:22:17 3.7 C 43 %
1600 29-03-2021 03:32:17 3.6 C 44 %
Sensor: Nr:Datum:Temp:Feuchte:
Aussen-T/F 1601 29-03-2021 03:42:17 3.7 C 44 %
1602 29-03-2021 03:52:17 3.8 C 45 %
1603 29-03-2021 04:02:17 3.9 C 44 %
1604 29-03-2021 04:12:18 3.5 C 44 %
1605 29-03-2021 04:22:17 3.7 C 44 %
1606 29-03-2021 04:32:17 3.5 C 44 %
1607 29-03-2021 04:42:18 3.4 C 44 %
1608 29-03-2021 04:52:17 3.2 C 44 %
1609 29-03-2021 05:02:17 3 C 45 %
1610 29-03-2021 05:12:18 2.9 C 46 %
1611 29-03-2021 05:22:18 2.8 C 46 %
1612 29-03-2021 05:32:17 3.1 C 45 %
1613 29-03-2021 05:42:18 3 C 45 %
1614 29-03-2021 05:52:17 3 C 45 %
1615 29-03-2021 06:02:17 3.1 C 45 %
1616 29-03-2021 06:12:17 3.1 C 45 %
1617 29-03-2021 06:22:17 3.1 C 45 %
1618 29-03-2021 06:32:18 3 C 45 %
1619 29-03-2021 06:42:18 3 C 45 %
1620 29-03-2021 06:52:18 2.7 C 46 %
1621 29-03-2021 07:02:18 2.7 C 46 %
1622 29-03-2021 07:12:18 2.6 C 46 %
1623 29-03-2021 07:22:18 2.6 C 47 %
1624 29-03-2021 07:32:18 2.7 C 47 %
1625 29-03-2021 07:42:18 2.8 C 47 %
Sensor: Nr:Datum:Temp:Feuchte:
Aussen-T/F 1626 29-03-2021 07:52:18 2.7 C 47 %
1627 29-03-2021 08:02:18 3.1 C 46 %
1628 29-03-2021 08:12:18 3.5 C 45 %
1629 29-03-2021 08:22:18 3.5 C 45 %
1630 29-03-2021 08:32:18 3.3 C 45 %
1631 29-03-2021 08:42:18 3.4 C 45 %
1632 29-03-2021 08:52:18 3.4 C 45 %
1633 29-03-2021 09:02:18 3.5 C 45 %
1634 29-03-2021 09:12:18 3.9 C 45 %
1635 29-03-2021 09:22:17 4.4 C 44 %
1636 29-03-2021 09:32:18 4.7 C 43 %
1637 29-03-2021 09:42:18 5.4 C 42 %
1638 29-03-2021 09:52:18 6.2 C 40 %
1639 29-03-2021 10:02:17 6.6 C 40 %
1640 29-03-2021 10:12:17 7.4 C 38 %
1641 29-03-2021 10:22:17 8 C 37 %
1642 29-03-2021 10:32:17 8.7 C 37 %
1643 29-03-2021 10:42:18 10.4 C 35 %
1644 29-03-2021 10:52:18 11.6 C 33 %
1645 29-03-2021 11:02:18 12.8 C 31 %
1646 29-03-2021 11:12:18 13.8 C 29 %
1647 29-03-2021 11:22:18 14.6 C 28 %
1648 29-03-2021 11:32:18 15.1 C 26 %
1649 29-03-2021 11:42:18 15.4 C 26 %
1650 29-03-2021 11:52:18 17.3 C 25 %
Sensor: Nr:Datum:Temp:Feuchte:
Aussen-T/F 1651 29-03-2021 12:02:18 17.7 C 25 %
1652 29-03-2021 12:12:18 17.5 C 24 %
1653 29-03-2021 12:22:18 18.4 C 23 %
1654 29-03-2021 12:32:17 18.8 C 22 %
1655 29-03-2021 12:42:17 17.9 C 23 %
1656 29-03-2021 12:52:18 18.2 C 22 %
1657 29-03-2021 13:02:18 19.4 C 21 %
1658 29-03-2021 13:12:18 19.3 C 21 %
1659 29-03-2021 13:22:17 18.9 C 21 %
1660 29-03-2021 13:32:17 19.3 C 21 %
1661 29-03-2021 13:42:17 19.1 C 20 %
1662 29-03-2021 13:52:17 19.5 C 21 %
1663 29-03-2021 14:02:18 20.4 C 20 %
1664 29-03-2021 14:12:18 20.7 C 20 %
1665 29-03-2021 14:22:17 22 C 20 %
1666 29-03-2021 14:32:18 23 C 20 %
1667 29-03-2021 14:42:18 23.2 C 20 %
1668 29-03-2021 14:52:18 24.4 C 20 %
1669 29-03-2021 15:02:17 23 C 20 %
1670 29-03-2021 15:12:17 24.1 C 20 %
1671 29-03-2021 15:22:17 24.5 C 20 %
1672 29-03-2021 15:32:18 24.1 C 20 %
1673 29-03-2021 15:42:18 26.5 C 20 %
1674 29-03-2021 15:52:18 24.8 C 20 %
1675 29-03-2021 16:02:18 25.1 C 20 %
Sensor: Nr:Datum:Temp:Feuchte:
Aussen-T/F 1676 29-03-2021 16:12:18 25.8 C 20 %
1677 29-03-2021 16:22:18 24.9 C 20 %
1678 29-03-2021 16:32:17 24.8 C 20 %
1679 29-03-2021 16:42:17 25.2 C 20 %
1680 29-03-2021 16:52:18 25.9 C 20 %
1681 29-03-2021 17:02:17 25.7 C 20 %
1682 29-03-2021 17:12:17 23.8 C 20 %
1683 29-03-2021 17:22:18 25.5 C 20 %
1684 29-03-2021 17:32:17 25.9 C 20 %
1685 29-03-2021 17:42:17 25 C 20 %
1686 29-03-2021 17:52:18 23.7 C 20 %
1687 29-03-2021 18:02:17 22.5 C 20 %
1688 29-03-2021 18:12:17 22 C 20 %
1689 29-03-2021 18:22:18 21.6 C 20 %
1690 29-03-2021 18:32:18 21.7 C 20 %
1691 29-03-2021 18:42:18 21.3 C 20 %
1692 29-03-2021 18:52:18 20.9 C 20 %
1693 29-03-2021 19:02:18 20.1 C 20 %
1694 29-03-2021 19:12:18 18.8 C 21 %
1695 29-03-2021 19:22:17 18.1 C 21 %
1696 29-03-2021 19:32:17 17.3 C 22 %
1697 29-03-2021 19:42:18 16.5 C 23 %
1698 29-03-2021 19:52:18 16.1 C 23 %
1699 29-03-2021 20:02:18 15.3 C 25 %
1700 29-03-2021 20:12:18 15 C 25 %
Sensor: Nr:Datum:Temp:Feuchte:
Aussen-T/F 1701 29-03-2021 20:22:17 14.4 C 26 %
1702 29-03-2021 20:32:17 14.5 C 26 %
1703 29-03-2021 20:42:18 14.1 C 27 %
1704 29-03-2021 20:52:17 13.8 C 27 %
1705 29-03-2021 21:02:18 13.3 C 27 %
1706 29-03-2021 21:12:18 13.4 C 27 %
1707 29-03-2021 21:22:17 13.1 C 28 %
1708 29-03-2021 21:32:17 12.5 C 30 %
1709 29-03-2021 21:42:17 11.7 C 31 %
1710 29-03-2021 21:52:17 11.6 C 31 %
1711 29-03-2021 22:02:18 11.2 C 31 %
1712 29-03-2021 22:12:18 10.1 C 32 %
1713 29-03-2021 22:22:18 9.6 C 34 %
1714 29-03-2021 22:32:18 8.9 C 35 %
1715 29-03-2021 22:42:18 8.9 C 35 %
1716 29-03-2021 22:52:18 8.6 C 35 %
1717 29-03-2021 23:02:18 8.2 C 35 %
1718 29-03-2021 23:12:18 8.1 C 35 %
1719 29-03-2021 23:22:18 8 C 35 %
1720 29-03-2021 23:32:17 7.8 C 36 %
1721 29-03-2021 23:42:17 7.7 C 36 %
1722 29-03-2021 23:52:18 7.9 C 36 %
1723 30-03-2021 00:02:17 7.3 C 36 %
1724 30-03-2021 00:12:17 6.8 C 38 %
1725 30-03-2021 00:22:17 6.8 C 38 %
Sensor: Nr:Datum:Temp:Feuchte:
Aussen-T/F 1726 30-03-2021 00:32:17 6.6 C 38 %
1727 30-03-2021 00:42:17 6.3 C 38 %
1728 30-03-2021 00:52:17 6.1 C 39 %
1729 30-03-2021 01:02:18 5.8 C 39 %
1730 30-03-2021 01:12:18 5.7 C 40 %
1731 30-03-2021 01:22:17 5.6 C 40 %
1732 30-03-2021 01:32:17 5.4 C 40 %
1733 30-03-2021 01:42:17 5.3 C 40 %
1734 30-03-2021 01:52:18 5.3 C 40 %
1735 30-03-2021 02:02:18 5.2 C 40 %
1736 30-03-2021 02:12:18 5 C 40 %
1737 30-03-2021 02:22:18 4.8 C 41 %
1738 30-03-2021 02:32:17 4.6 C 41 %
1739 30-03-2021 02:42:17 4.5 C 42 %
1740 30-03-2021 02:52:17 4.4 C 41 %
1741 30-03-2021 03:02:17 4.2 C 42 %
1742 30-03-2021 03:12:17 4.4 C 42 %
1743 30-03-2021 03:22:17 4.3 C 42 %
1744 30-03-2021 03:32:18 3.8 C 43 %
1745 30-03-2021 03:42:18 3.5 C 43 %
1746 30-03-2021 03:52:17 3.5 C 44 %
1747 30-03-2021 04:02:17 3.3 C 44 %
1748 30-03-2021 04:12:17 3.2 C 44 %
1749 30-03-2021 04:22:17 2.8 C 45 %
1750 30-03-2021 04:32:17 2.5 C 45 %
Sensor: Nr:Datum:Temp:Feuchte:
Aussen-T/F 1751 30-03-2021 04:42:17 2.6 C 46 %
1752 30-03-2021 04:52:17 2.7 C 46 %
1753 30-03-2021 05:02:17 2.5 C 46 %
1754 30-03-2021 05:12:17 2.4 C 46 %
1755 30-03-2021 05:22:17 1.9 C 47 %
1756 30-03-2021 05:32:18 1.8 C 47 %
1757 30-03-2021 05:42:18 1.8 C 48 %
1758 30-03-2021 05:52:17 1.7 C 48 %
1759 30-03-2021 06:02:18 1.5 C 47 %
1760 30-03-2021 06:12:18 1.5 C 49 %
1761 30-03-2021 06:22:18 2 C 48 %
1762 30-03-2021 06:32:17 2.1 C 48 %
1763 30-03-2021 06:42:17 2.1 C 47 %
1764 30-03-2021 06:52:18 2.2 C 47 %
1765 30-03-2021 07:02:17 1.4 C 47 %
1766 30-03-2021 07:12:17 1.6 C 49 %
1767 30-03-2021 07:22:18 1.5 C 48 %
1768 30-03-2021 07:32:18 1.4 C 48 %
1769 30-03-2021 07:42:18 1.3 C 48 %
1770 30-03-2021 07:52:17 1.2 C 48 %
1771 30-03-2021 08:02:17 1.1 C 48 %
1772 30-03-2021 08:12:17 1.1 C 49 %
1773 30-03-2021 08:22:18 1.6 C 50 %
1774 30-03-2021 08:32:18 1.5 C 49 %
1775 30-03-2021 08:42:18 1.7 C 49 %
Sensor: Nr:Datum:Temp:Feuchte:
Aussen-T/F 1776 30-03-2021 08:52:17 2.1 C 49 %
1777 30-03-2021 09:02:17 2.1 C 48 %
1778 30-03-2021 09:12:17 2.5 C 47 %
1779 30-03-2021 09:22:17 2.7 C 47 %
1780 30-03-2021 09:32:17 2.8 C 46 %
1781 30-03-2021 09:42:17 3.2 C 47 %
1782 30-03-2021 09:52:18 3.5 C 46 %
1783 30-03-2021 10:02:18 4.1 C 45 %
1784 30-03-2021 10:12:18 4.5 C 44 %
1785 30-03-2021 10:22:17 4.9 C 44 %
1786 30-03-2021 10:32:18 5.7 C 43 %
1787 30-03-2021 10:42:18 6.5 C 41 %
1788 30-03-2021 10:52:17 7.4 C 40 %
1789 30-03-2021 11:02:17 8.7 C 39 %
1790 30-03-2021 11:12:17 9.7 C 38 %
1791 30-03-2021 11:22:18 11.3 C 35 %
1792 30-03-2021 11:32:17 13 C 31 %
1793 30-03-2021 11:42:17 13.5 C 30 %
1794 30-03-2021 11:52:17 15.4 C 30 %
1795 30-03-2021 12:02:17 17.2 C 27 %
1796 30-03-2021 12:12:17 17.8 C 25 %
1797 30-03-2021 12:22:18 18 C 25 %
1798 30-03-2021 12:32:17 21.1 C 22 %
1799 30-03-2021 12:42:17 19.5 C 23 %
1800 30-03-2021 12:52:17 18.1 C 25 %
Sensor: Nr:Datum:Temp:Feuchte:
Aussen-T/F 1801 30-03-2021 13:02:17 19.8 C 23 %
1802 30-03-2021 13:12:17 19.4 C 23 %
1803 30-03-2021 13:22:17 19.5 C 23 %
1804 30-03-2021 13:32:17 19.7 C 23 %
1805 30-03-2021 13:42:17 20.2 C 21 %
1806 30-03-2021 13:52:17 20.5 C 21 %
1807 30-03-2021 14:02:17 22 C 20 %
1808 30-03-2021 14:12:17 22.1 C 20 %
1809 30-03-2021 14:22:18 24.1 C 20 %
1810 30-03-2021 14:32:18 26.3 C 20 %
1811 30-03-2021 14:42:18 27.1 C 20 %
1812 30-03-2021 14:52:18 26.8 C 20 %
1813 30-03-2021 15:02:18 27.8 C 20 %
1814 30-03-2021 15:12:18 28.3 C 20 %
1815 30-03-2021 15:22:18 29.7 C 20 %
1816 30-03-2021 15:32:18 28.1 C 20 %
1817 30-03-2021 15:42:18 29.3 C 20 %
1818 30-03-2021 15:52:17 30.2 C 20 %
1819 30-03-2021 16:02:18 30.1 C 20 %
1820 30-03-2021 16:12:18 31.2 C 20 %
1821 30-03-2021 16:22:18 31.2 C 20 %
1822 30-03-2021 16:32:18 32.2 C 20 %
1823 30-03-2021 16:42:18 30.2 C 20 %
1824 30-03-2021 16:52:17 29.8 C 20 %
1825 30-03-2021 17:02:17 28.8 C 20 %
Sensor: Nr:Datum:Temp:Feuchte:
Aussen-T/F 1826 30-03-2021 17:12:18 28.4 C 20 %
1827 30-03-2021 17:22:17 29.2 C 20 %
1828 30-03-2021 17:32:17 26.6 C 20 %
1829 30-03-2021 17:42:17 28.5 C 20 %
1830 30-03-2021 17:52:17 26.6 C 20 %
1831 30-03-2021 18:02:17 24.6 C 20 %
1832 30-03-2021 18:12:17 24.6 C 20 %
1833 30-03-2021 18:22:17 24.1 C 20 %
1834 30-03-2021 18:32:17 24.1 C 20 %
1835 30-03-2021 18:42:17 23.7 C 20 %
1836 30-03-2021 18:52:17 22.5 C 20 %
1837 30-03-2021 19:02:18 21.6 C 20 %
1838 30-03-2021 19:12:18 20.5 C 20 %
1839 30-03-2021 19:22:18 19.1 C 20 %
1840 30-03-2021 19:32:17 18.4 C 20 %
1841 30-03-2021 19:42:18 17.9 C 20 %
1842 30-03-2021 19:52:17 17.1 C 20 %
1843 30-03-2021 20:02:17 16.6 C 20 %
1844 30-03-2021 20:12:17 16 C 20 %
1845 30-03-2021 20:22:18 16 C 20 %
1846 30-03-2021 20:32:18 15.8 C 21 %
1847 30-03-2021 20:42:18 15.4 C 21 %
1848 30-03-2021 20:52:17 14.8 C 23 %
1849 30-03-2021 21:02:18 14.6 C 23 %
1850 30-03-2021 21:12:18 13.8 C 25 %
Sensor: Nr:Datum:Temp:Feuchte:
Aussen-T/F 1851 30-03-2021 21:22:18 13.3 C 25 %
1852 30-03-2021 21:32:18 12 C 27 %
1853 30-03-2021 21:42:18 11.2 C 29 %
1854 30-03-2021 21:52:17 11.1 C 30 %
1855 30-03-2021 22:02:17 10.4 C 31 %
1856 30-03-2021 22:12:17 10.5 C 31 %
1857 30-03-2021 22:22:18 10.5 C 31 %
1858 30-03-2021 22:32:17 9.9 C 31 %
1859 30-03-2021 22:42:17 9.6 C 31 %
1860 30-03-2021 22:52:17 9 C 33 %
1861 30-03-2021 23:02:18 9 C 32 %
1862 30-03-2021 23:12:18 8.5 C 33 %
1863 30-03-2021 23:22:18 8.5 C 34 %
1864 30-03-2021 23:32:18 8.2 C 34 %
1865 30-03-2021 23:42:18 8 C 34 %
1866 30-03-2021 23:52:18 7.8 C 35 %
1867 31-03-2021 00:02:17 8 C 34 %
1868 31-03-2021 00:12:17 7.6 C 35 %
1869 31-03-2021 00:22:17 7.6 C 35 %
1870 31-03-2021 00:32:17 7.7 C 35 %
1871 31-03-2021 00:42:17 7.2 C 35 %
1872 31-03-2021 00:52:17 7.2 C 35 %
1873 31-03-2021 01:02:17 6.7 C 36 %
1874 31-03-2021 01:12:17 6.8 C 36 %
1875 31-03-2021 01:22:17 6.4 C 37 %
Sensor: Nr:Datum:Temp:Feuchte:
Aussen-T/F 1876 31-03-2021 01:32:18 6.2 C 37 %
1877 31-03-2021 01:42:18 6.2 C 37 %
1878 31-03-2021 01:52:17 6.1 C 37 %
1879 31-03-2021 02:02:17 5.9 C 38 %
1880 31-03-2021 02:12:17 5.6 C 39 %
1881 31-03-2021 02:22:17 5.5 C 39 %
1882 31-03-2021 02:32:17 5.4 C 39 %
1883 31-03-2021 02:42:17 5.2 C 40 %
1884 31-03-2021 02:52:17 5.7 C 39 %
1885 31-03-2021 03:02:17 5.1 C 40 %
1886 31-03-2021 03:12:17 4.9 C 40 %
1887 31-03-2021 03:22:17 4.8 C 41 %
1888 31-03-2021 03:32:18 4.3 C 41 %
1889 31-03-2021 03:42:18 4.5 C 41 %
1890 31-03-2021 03:52:17 4.6 C 41 %
1891 31-03-2021 04:02:17 4.3 C 41 %
1892 31-03-2021 04:12:17 4.2 C 41 %
1893 31-03-2021 04:22:17 4.1 C 41 %
1894 31-03-2021 04:32:17 4 C 42 %
1895 31-03-2021 04:42:18 3.6 C 43 %
1896 31-03-2021 04:52:17 3.5 C 43 %
1897 31-03-2021 05:02:17 3.3 C 44 %
1898 31-03-2021 05:12:17 3.2 C 44 %
1899 31-03-2021 05:22:18 3 C 44 %
1900 31-03-2021 05:32:18 3.3 C 44 %
Sensor: Nr:Datum:Temp:Feuchte:
Aussen-T/F 1901 31-03-2021 05:42:18 3.3 C 44 %
1902 31-03-2021 05:52:17 3.2 C 44 %
1903 31-03-2021 06:02:17 3.3 C 45 %
1904 31-03-2021 06:12:17 2.9 C 45 %
1905 31-03-2021 06:22:17 2.7 C 45 %
1906 31-03-2021 06:32:17 2.4 C 45 %
1907 31-03-2021 06:42:17 2.2 C 45 %
1908 31-03-2021 06:52:18 2.4 C 46 %
1909 31-03-2021 07:02:17 2.5 C 46 %
1910 31-03-2021 07:12:17 2.2 C 46 %
1911 31-03-2021 07:22:18 2.3 C 46 %
1912 31-03-2021 07:32:18 2.5 C 46 %
1913 31-03-2021 07:42:18 2.7 C 46 %
1914 31-03-2021 07:52:18 2.7 C 46 %
1915 31-03-2021 08:02:17 2.8 C 46 %
1916 31-03-2021 08:12:17 3.3 C 46 %
1917 31-03-2021 08:22:18 3.1 C 45 %
1918 31-03-2021 08:32:18 3.4 C 45 %
1919 31-03-2021 08:42:18 3.6 C 45 %
1920 31-03-2021 08:52:18 3.8 C 45 %
1921 31-03-2021 09:02:17 4 C 43 %
1922 31-03-2021 09:12:18 4.3 C 43 %
1923 31-03-2021 09:22:18 4.7 C 43 %
1924 31-03-2021 09:32:17 5.1 C 42 %
1925 31-03-2021 09:42:18 5.6 C 41 %
Sensor: Nr:Datum:Temp:Feuchte:
Aussen-T/F 1926 31-03-2021 09:52:18 5.7 C 41 %
1927 31-03-2021 10:02:18 6 C 40 %
1928 31-03-2021 10:12:18 6.8 C 40 %
1929 31-03-2021 10:22:18 7 C 39 %
1930 31-03-2021 10:32:18 7.6 C 39 %
1931 31-03-2021 10:42:18 8.3 C 38 %
1932 31-03-2021 10:52:18 9.7 C 37 %
1933 31-03-2021 11:02:18 11.2 C 35 %
1934 31-03-2021 11:12:18 12 C 33 %
1935 31-03-2021 11:22:18 13.4 C 31 %
1936 31-03-2021 11:32:18 15.2 C 30 %
1937 31-03-2021 11:42:18 16.1 C 28 %
1938 31-03-2021 11:52:18 17.1 C 27 %
1939 31-03-2021 12:02:17 19.6 C 25 %
1940 31-03-2021 12:12:17 21.6 C 22 %
1941 31-03-2021 12:22:17 22.4 C 22 %
1942 31-03-2021 12:32:17 24 C 20 %
1943 31-03-2021 12:42:17 24.6 C 20 %
1944 31-03-2021 12:52:18 20.8 C 20 %
1945 31-03-2021 13:02:17 22.7 C 20 %
1946 31-03-2021 13:12:17 23.3 C 20 %
1947 31-03-2021 13:22:17 22.4 C 20 %
1948 31-03-2021 13:32:18 22.2 C 20 %
1949 31-03-2021 13:42:18 23.1 C 20 %
1950 31-03-2021 13:52:18 23.2 C 20 %
Sensor: Nr:Datum:Temp:Feuchte:
Aussen-T/F 1951 31-03-2021 14:02:18 23.5 C 20 %
1952 31-03-2021 14:12:18 24.1 C 20 %
1953 31-03-2021 14:22:17 26.4 C 20 %
1954 31-03-2021 14:32:17 28.3 C 20 %
1955 31-03-2021 14:42:18 30.2 C 20 %
1956 31-03-2021 14:52:17 30 C 20 %
1957 31-03-2021 15:02:17 29.6 C 20 %
1958 31-03-2021 15:12:18 29.2 C 20 %
1959 31-03-2021 15:22:17 29.5 C 20 %
1960 31-03-2021 15:32:18 32.4 C 20 %
1961 31-03-2021 15:42:18 31.4 C 20 %
1962 31-03-2021 15:52:17 30.4 C 20 %
1963 31-03-2021 16:02:17 31 C 20 %
1964 31-03-2021 16:12:18 31.1 C 20 %
1965 31-03-2021 16:22:17 31.5 C 20 %
1966 31-03-2021 16:32:18 29.8 C 20 %
1967 31-03-2021 16:42:18 30.7 C 20 %
1968 31-03-2021 16:52:18 30 C 20 %
1969 31-03-2021 17:02:17 30.1 C 20 %
1970 31-03-2021 17:12:18 30.8 C 20 %
1971 31-03-2021 17:22:17 30.7 C 20 %
1972 31-03-2021 17:32:18 29.7 C 20 %
1973 31-03-2021 17:42:18 30.6 C 20 %
1974 31-03-2021 17:52:18 27.6 C 20 %
1975 31-03-2021 18:02:18 26.7 C 20 %
Sensor: Nr:Datum:Temp:Feuchte:
Aussen-T/F 1976 31-03-2021 18:12:18 26.1 C 20 %
1977 31-03-2021 18:22:18 26.1 C 20 %
1978 31-03-2021 18:32:18 25.5 C 20 %
1979 31-03-2021 18:42:18 25.2 C 20 %
1980 31-03-2021 18:52:17 24.8 C 20 %
1981 31-03-2021 19:02:17 24.1 C 20 %
1982 31-03-2021 19:12:17 24 C 20 %
1983 31-03-2021 19:22:18 23.2 C 20 %
1984 31-03-2021 19:32:17 21.8 C 20 %
1985 31-03-2021 19:42:17 20.7 C 20 %
1986 31-03-2021 19:52:18 19.5 C 21 %
1987 31-03-2021 20:02:17 18.6 C 22 %
1988 31-03-2021 20:12:18 18.6 C 22 %
1989 31-03-2021 20:22:17 18.1 C 22 %
1990 31-03-2021 20:32:18 17.9 C 23 %
1991 31-03-2021 20:42:18 17 C 24 %
1992 31-03-2021 20:52:18 16.8 C 25 %
1993 31-03-2021 21:02:18 16.3 C 25 %
1994 31-03-2021 21:12:18 15.2 C 26 %
1995 31-03-2021 21:22:17 15 C 27 %
1996 31-03-2021 21:32:17 14.6 C 28 %
1997 31-03-2021 21:42:18 14.1 C 28 %
1998 31-03-2021 21:52:18 13.8 C 29 %
1999 31-03-2021 22:02:18 13.1 C 30 %
2000 31-03-2021 22:12:18 13.2 C 30 %
Sensor: Nr:Datum:Temp:Feuchte:
Aussen-T/F 2001 31-03-2021 22:22:18 13.1 C 30 %
2002 31-03-2021 22:32:17 13.1 C 30 %
2003 31-03-2021 22:42:17 15.1 C 27 %
2004 31-03-2021 22:52:18 13.8 C 29 %
2005 31-03-2021 23:02:18 12.5 C 31 %
2006 31-03-2021 23:12:18 12 C 31 %
2007 31-03-2021 23:22:17 11.9 C 32 %
2008 31-03-2021 23:32:18 12 C 31 %
2009 31-03-2021 23:42:18 11.3 C 32 %
2010 31-03-2021 23:52:18 11.1 C 32 %
Sensor: Nr:Datum:Temp:Feuchte:
G-T/H 1 18-03-2021 00:01:17 8.7 C 73 %
2 18-03-2021 00:11:17 8.7 C 73 %
3 18-03-2021 00:21:18 8.7 C 73 %
4 18-03-2021 00:31:18 8.7 C 73 %
5 18-03-2021 00:41:18 8.7 C 73 %
6 18-03-2021 00:51:17 8.7 C 72 %
7 18-03-2021 01:01:18 8.6 C 72 %
8 18-03-2021 01:11:18 8.6 C 72 %
9 18-03-2021 01:21:18 8.6 C 72 %
10 18-03-2021 01:31:17 8.6 C 72 %
11 18-03-2021 01:41:17 8.6 C 72 %
12 18-03-2021 01:51:17 8.6 C 72 %
13 18-03-2021 02:01:17 8.6 C 72 %
14 18-03-2021 02:11:17 8.6 C 72 %
15 18-03-2021 02:21:17 8.5 C 72 %
16 18-03-2021 02:31:17 8.5 C 72 %
17 18-03-2021 02:41:17 8.5 C 72 %
18 18-03-2021 02:51:18 8.5 C 72 %
19 18-03-2021 03:01:18 8.5 C 72 %
20 18-03-2021 03:11:18 8.5 C 72 %
21 18-03-2021 03:21:18 8.5 C 72 %
22 18-03-2021 03:31:18 8.5 C 72 %
23 18-03-2021 03:41:18 8.5 C 72 %
24 18-03-2021 03:51:18 8.4 C 72 %
25 18-03-2021 04:01:17 8.4 C 72 %
Sensor: Nr:Datum:Temp:Feuchte:
G-T/H 26 18-03-2021 04:11:18 8.4 C 71 %
27 18-03-2021 04:21:17 8.4 C 71 %
28 18-03-2021 04:31:18 8.4 C 71 %
29 18-03-2021 04:41:18 8.3 C 71 %
30 18-03-2021 04:51:18 8.3 C 71 %
31 18-03-2021 05:01:18 8.3 C 71 %
32 18-03-2021 05:11:18 8.3 C 71 %
33 18-03-2021 05:21:17 8.2 C 71 %
34 18-03-2021 05:31:17 8.3 C 71 %
35 18-03-2021 05:41:17 8.2 C 71 %
36 18-03-2021 05:51:18 8.2 C 71 %
37 18-03-2021 06:01:18 8.2 C 71 %
38 18-03-2021 06:11:18 8.2 C 71 %
39 18-03-2021 06:21:18 8.2 C 71 %
40 18-03-2021 06:31:17 8.2 C 71 %
41 18-03-2021 06:41:17 8.2 C 71 %
42 18-03-2021 06:51:17 8.1 C 71 %
43 18-03-2021 07:01:18 8.1 C 71 %
44 18-03-2021 07:11:18 8.2 C 71 %
45 18-03-2021 07:21:18 8.1 C 71 %
46 18-03-2021 07:31:17 8.1 C 71 %
47 18-03-2021 07:41:17 8.1 C 71 %
48 18-03-2021 07:51:17 8.1 C 71 %
49 18-03-2021 08:01:17 8.1 C 71 %
50 18-03-2021 08:11:17 8.1 C 71 %
Sensor: Nr:Datum:Temp:Feuchte:
G-T/H 51 18-03-2021 08:21:18 8.1 C 71 %
52 18-03-2021 08:31:18 8.1 C 71 %
53 18-03-2021 08:41:18 8 C 71 %
54 18-03-2021 08:51:18 8 C 71 %
55 18-03-2021 09:01:17 8 C 71 %
56 18-03-2021 09:11:18 8.1 C 71 %
57 18-03-2021 09:21:18 8 C 71 %
58 18-03-2021 09:31:18 8 C 71 %
59 18-03-2021 09:41:18 8 C 71 %
60 18-03-2021 09:51:18 8 C 71 %
61 18-03-2021 10:01:17 8 C 71 %
62 18-03-2021 10:11:17 8 C 71 %
63 18-03-2021 10:21:18 8 C 71 %
64 18-03-2021 10:31:17 8 C 71 %
65 18-03-2021 10:41:17 8 C 71 %
66 18-03-2021 10:51:17 8 C 71 %
67 18-03-2021 11:01:18 8 C 71 %
68 18-03-2021 11:11:18 8 C 71 %
69 18-03-2021 11:21:18 8 C 71 %
70 18-03-2021 11:31:17 8 C 71 %
71 18-03-2021 11:41:17 8 C 71 %
72 18-03-2021 11:51:17 8 C 71 %
73 18-03-2021 12:01:17 8 C 71 %
74 18-03-2021 12:11:17 8 C 72 %
75 18-03-2021 12:21:17 8 C 72 %
Sensor: Nr:Datum:Temp:Feuchte:
G-T/H 76 18-03-2021 12:31:18 8 C 72 %
77 18-03-2021 12:41:18 8 C 72 %
78 18-03-2021 12:51:18 8.1 C 72 %
79 18-03-2021 13:01:18 8.1 C 72 %
80 18-03-2021 13:11:18 8.1 C 72 %
81 18-03-2021 13:21:17 8.1 C 72 %
82 18-03-2021 13:31:17 8.1 C 72 %
83 18-03-2021 13:41:17 8.1 C 72 %
84 18-03-2021 13:51:17 8.1 C 72 %
85 18-03-2021 14:01:17 8.1 C 72 %
86 18-03-2021 14:11:17 8.1 C 72 %
87 18-03-2021 14:21:17 8.1 C 72 %
88 18-03-2021 14:31:18 8.1 C 72 %
89 18-03-2021 14:41:18 8.1 C 72 %
90 18-03-2021 14:51:17 8.1 C 72 %
91 18-03-2021 15:01:18 8.2 C 72 %
92 18-03-2021 15:11:18 8.2 C 72 %
93 18-03-2021 15:21:17 8.2 C 72 %
94 18-03-2021 15:31:17 8.2 C 72 %
95 18-03-2021 15:41:17 8.2 C 72 %
96 18-03-2021 15:51:18 8.2 C 72 %
97 18-03-2021 16:01:17 8.2 C 72 %
98 18-03-2021 16:11:17 8.2 C 72 %
99 18-03-2021 16:21:18 8.2 C 72 %
100 18-03-2021 16:31:17 8.2 C 72 %
Sensor: Nr:Datum:Temp:Feuchte:
G-T/H 101 18-03-2021 16:41:18 8.2 C 72 %
102 18-03-2021 16:51:17 8.2 C 72 %
103 18-03-2021 17:01:17 8.2 C 72 %
104 18-03-2021 17:11:17 8.2 C 72 %
105 18-03-2021 17:21:18 8.3 C 72 %
106 18-03-2021 17:31:17 8.3 C 72 %
107 18-03-2021 17:41:17 8.3 C 72 %
108 18-03-2021 17:51:17 8.3 C 72 %
109 18-03-2021 18:01:17 8.3 C 72 %
110 18-03-2021 18:11:17 8.3 C 72 %
111 18-03-2021 18:21:17 8.3 C 72 %
112 18-03-2021 18:31:18 8.3 C 72 %
113 18-03-2021 18:41:18 8.3 C 72 %
114 18-03-2021 18:51:17 8.4 C 72 %
115 18-03-2021 19:01:17 8.3 C 72 %
116 18-03-2021 19:11:17 8.4 C 72 %
117 18-03-2021 19:21:17 8.4 C 72 %
118 18-03-2021 19:31:17 8.4 C 72 %
119 18-03-2021 19:41:18 8.4 C 72 %
120 18-03-2021 19:51:17 8.4 C 72 %
121 18-03-2021 20:01:17 8.4 C 73 %
122 18-03-2021 20:11:17 8.4 C 73 %
123 18-03-2021 20:21:17 8.4 C 73 %
124 18-03-2021 20:31:17 8.4 C 73 %
125 18-03-2021 20:41:17 8.4 C 73 %
Sensor: Nr:Datum:Temp:Feuchte:
G-T/H 126 18-03-2021 20:51:18 8.4 C 73 %
127 18-03-2021 21:01:17 8.4 C 73 %
128 18-03-2021 21:11:17 8.4 C 73 %
129 18-03-2021 21:21:18 8.4 C 73 %
130 18-03-2021 21:31:17 8.4 C 73 %
131 18-03-2021 21:41:17 8.4 C 73 %
132 18-03-2021 21:51:17 8.4 C 73 %
133 18-03-2021 22:01:18 8.4 C 73 %
134 18-03-2021 22:11:18 8.4 C 73 %
135 18-03-2021 22:21:17 8.4 C 73 %
136 18-03-2021 22:31:18 8.4 C 73 %
137 18-03-2021 22:41:18 8.4 C 73 %
138 18-03-2021 22:51:18 8.5 C 73 %
139 18-03-2021 23:01:18 8.4 C 73 %
140 18-03-2021 23:11:18 8.4 C 73 %
141 18-03-2021 23:21:18 8.4 C 73 %
142 18-03-2021 23:31:17 8.5 C 73 %
143 18-03-2021 23:41:17 8.5 C 73 %
144 18-03-2021 23:51:17 8.5 C 73 %
145 19-03-2021 00:01:17 8.5 C 73 %
146 19-03-2021 00:11:17 8.4 C 73 %
147 19-03-2021 00:21:18 8.5 C 73 %
148 19-03-2021 00:31:17 8.4 C 73 %
149 19-03-2021 00:41:17 8.4 C 73 %
150 19-03-2021 00:51:18 8.4 C 73 %
Sensor: Nr:Datum:Temp:Feuchte:
G-T/H 151 19-03-2021 01:01:17 8.4 C 73 %
152 19-03-2021 01:11:18 8.4 C 73 %
153 19-03-2021 01:21:18 8.4 C 73 %
154 19-03-2021 01:31:18 8.4 C 73 %
155 19-03-2021 01:41:18 8.4 C 73 %
156 19-03-2021 01:51:17 8.4 C 73 %
157 19-03-2021 02:01:18 8.4 C 73 %
158 19-03-2021 02:11:18 8.4 C 73 %
159 19-03-2021 02:21:18 8.4 C 73 %
160 19-03-2021 02:31:17 8.4 C 73 %
161 19-03-2021 02:41:18 8.4 C 73 %
162 19-03-2021 02:51:18 8.4 C 73 %
163 19-03-2021 03:01:17 8.4 C 73 %
164 19-03-2021 03:11:17 8.4 C 73 %
165 19-03-2021 03:21:18 8.4 C 73 %
166 19-03-2021 03:31:17 8.4 C 73 %
167 19-03-2021 03:41:17 8.4 C 73 %
168 19-03-2021 03:51:18 8.4 C 73 %
169 19-03-2021 04:01:18 8.4 C 73 %
170 19-03-2021 04:11:18 8.4 C 73 %
171 19-03-2021 04:21:17 8.3 C 73 %
172 19-03-2021 04:31:17 8.3 C 73 %
173 19-03-2021 04:41:17 8.4 C 73 %
174 19-03-2021 04:51:17 8.3 C 73 %
175 19-03-2021 05:01:18 8.3 C 73 %
Sensor: Nr:Datum:Temp:Feuchte:
G-T/H 176 19-03-2021 05:11:18 8.3 C 73 %
177 19-03-2021 05:21:17 8.3 C 73 %
178 19-03-2021 05:31:17 8.3 C 73 %
179 19-03-2021 05:41:17 8.3 C 73 %
180 19-03-2021 05:51:17 8.3 C 73 %
181 19-03-2021 06:01:17 8.3 C 73 %
182 19-03-2021 06:11:17 8.2 C 73 %
183 19-03-2021 06:21:18 8.2 C 73 %
184 19-03-2021 06:31:17 8.2 C 73 %
185 19-03-2021 06:41:17 8.2 C 73 %
186 19-03-2021 06:51:18 8.2 C 73 %
187 19-03-2021 07:01:18 8.2 C 73 %
188 19-03-2021 07:11:18 8.2 C 72 %
189 19-03-2021 07:21:18 8.2 C 72 %
190 19-03-2021 07:31:17 8.2 C 72 %
191 19-03-2021 07:41:17 8.2 C 72 %
192 19-03-2021 07:51:17 8.2 C 72 %
193 19-03-2021 08:01:17 8.2 C 72 %
194 19-03-2021 08:11:17 8.2 C 72 %
195 19-03-2021 08:21:17 8.2 C 72 %
196 19-03-2021 08:31:17 8.2 C 72 %
197 19-03-2021 08:41:17 8.2 C 72 %
198 19-03-2021 08:51:18 8.2 C 72 %
199 19-03-2021 09:01:17 8.2 C 72 %
200 19-03-2021 09:11:17 8.2 C 72 %
Sensor: Nr:Datum:Temp:Feuchte:
G-T/H 201 19-03-2021 09:21:17 8.2 C 72 %
202 19-03-2021 09:31:18 8.1 C 72 %
203 19-03-2021 09:41:18 8.1 C 72 %
204 19-03-2021 09:51:17 8.1 C 72 %
205 19-03-2021 10:01:18 8.1 C 72 %
206 19-03-2021 10:11:18 8.1 C 72 %
207 19-03-2021 10:21:17 8.1 C 72 %
208 19-03-2021 10:31:18 8.1 C 72 %
209 19-03-2021 10:41:18 8.1 C 72 %
210 19-03-2021 10:51:17 8.1 C 72 %
211 19-03-2021 11:01:17 8.1 C 72 %
212 19-03-2021 11:11:17 8.1 C 72 %
213 19-03-2021 11:21:17 8.1 C 72 %
214 19-03-2021 11:31:18 8.1 C 71 %
215 19-03-2021 11:41:18 8.1 C 71 %
216 19-03-2021 11:51:18 8.1 C 71 %
217 19-03-2021 12:01:17 8.1 C 71 %
218 19-03-2021 12:11:17 8.1 C 71 %
219 19-03-2021 12:21:18 8.1 C 71 %
220 19-03-2021 12:31:17 8.1 C 70 %
221 19-03-2021 12:41:17 8.1 C 70 %
222 19-03-2021 12:51:17 8.1 C 70 %
223 19-03-2021 13:01:18 8.1 C 69 %
224 19-03-2021 13:11:18 8.1 C 69 %
225 19-03-2021 13:21:17 8.1 C 69 %
Sensor: Nr:Datum:Temp:Feuchte:
G-T/H 226 19-03-2021 13:31:17 8.1 C 69 %
227 19-03-2021 13:41:17 8.1 C 69 %
228 19-03-2021 13:51:17 8.2 C 69 %
229 19-03-2021 14:01:18 8.2 C 69 %
230 19-03-2021 14:11:18 8.2 C 68 %
231 19-03-2021 14:21:18 8.2 C 68 %
232 19-03-2021 14:31:18 8.2 C 68 %
233 19-03-2021 14:41:18 8.2 C 68 %
234 19-03-2021 14:51:17 8.2 C 68 %
235 19-03-2021 15:01:18 8.2 C 69 %
236 19-03-2021 15:11:18 8.2 C 69 %
237 19-03-2021 15:21:17 8.2 C 69 %
238 19-03-2021 15:31:17 8.2 C 68 %
239 19-03-2021 15:41:17 8.2 C 68 %
240 19-03-2021 15:51:17 8.2 C 68 %
241 19-03-2021 16:01:17 8.2 C 68 %
242 19-03-2021 16:11:17 8.2 C 68 %
243 19-03-2021 16:21:18 8.2 C 68 %
244 19-03-2021 16:31:17 8.2 C 68 %
245 19-03-2021 16:41:17 8.2 C 68 %
246 19-03-2021 16:51:17 8.2 C 68 %
247 19-03-2021 17:01:18 8.2 C 68 %
248 19-03-2021 17:11:18 8.2 C 68 %
249 19-03-2021 17:21:17 8.3 C 68 %
250 19-03-2021 17:31:18 8.2 C 68 %
Sensor: Nr:Datum:Temp:Feuchte:
G-T/H 251 19-03-2021 17:41:18 8.3 C 68 %
252 19-03-2021 17:51:17 8.3 C 68 %
253 19-03-2021 18:01:17 8.3 C 68 %
254 19-03-2021 18:11:17 8.3 C 68 %
255 19-03-2021 18:21:17 8.3 C 68 %
256 19-03-2021 18:31:17 8.3 C 68 %
257 19-03-2021 18:41:17 8.3 C 68 %
258 19-03-2021 18:51:17 8.3 C 68 %
259 19-03-2021 19:01:17 8.3 C 68 %
260 19-03-2021 19:11:17 8.3 C 69 %
261 19-03-2021 19:21:18 8.3 C 69 %
262 19-03-2021 19:31:18 8.3 C 69 %
263 19-03-2021 19:41:18 8.4 C 69 %
264 19-03-2021 19:51:18 8.4 C 69 %
265 19-03-2021 20:01:18 8.3 C 69 %
266 19-03-2021 20:11:18 8.3 C 69 %
267 19-03-2021 20:21:18 8.3 C 69 %
268 19-03-2021 20:31:18 8.3 C 69 %
269 19-03-2021 20:41:18 8.3 C 69 %
270 19-03-2021 20:51:17 8.3 C 69 %
271 19-03-2021 21:01:18 8.3 C 69 %
272 19-03-2021 21:11:18 8.3 C 70 %
273 19-03-2021 21:21:17 8.3 C 70 %
274 19-03-2021 21:31:17 8.3 C 70 %
275 19-03-2021 21:41:17 8.3 C 70 %
Sensor: Nr:Datum:Temp:Feuchte:
G-T/H 276 19-03-2021 21:51:17 8.3 C 70 %
277 19-03-2021 22:01:18 8.3 C 70 %
278 19-03-2021 22:11:18 8.3 C 70 %
279 19-03-2021 22:21:17 8.3 C 70 %
280 19-03-2021 22:31:18 8.3 C 70 %
281 19-03-2021 22:41:18 8.3 C 70 %
282 19-03-2021 22:51:17 8.2 C 70 %
283 19-03-2021 23:01:17 8.2 C 70 %
284 19-03-2021 23:11:17 8.2 C 70 %
285 19-03-2021 23:21:17 8.2 C 70 %
286 19-03-2021 23:31:18 8.2 C 70 %
287 19-03-2021 23:41:18 8.2 C 70 %
288 19-03-2021 23:51:17 8.2 C 70 %
289 20-03-2021 00:01:17 8.2 C 70 %
290 20-03-2021 00:11:17 8.2 C 70 %
291 20-03-2021 00:21:18 8.2 C 70 %
292 20-03-2021 00:31:18 8.2 C 70 %
293 20-03-2021 00:41:18 8.2 C 70 %
294 20-03-2021 00:51:17 8.1 C 70 %
295 20-03-2021 01:01:17 8.1 C 70 %
296 20-03-2021 01:11:17 8.1 C 70 %
297 20-03-2021 01:21:18 8.1 C 70 %
298 20-03-2021 01:31:17 8.1 C 70 %
299 20-03-2021 01:41:17 8.1 C 70 %
300 20-03-2021 01:51:18 8 C 70 %
Sensor: Nr:Datum:Temp:Feuchte:
G-T/H 301 20-03-2021 02:01:17 8.1 C 70 %
302 20-03-2021 02:11:17 8 C 70 %
303 20-03-2021 02:21:18 8 C 70 %
304 20-03-2021 02:31:18 8 C 69 %
305 20-03-2021 02:41:18 8 C 69 %
306 20-03-2021 02:51:18 8 C 69 %
307 20-03-2021 03:01:17 8 C 69 %
308 20-03-2021 03:11:17 8 C 69 %
309 20-03-2021 03:21:18 7.9 C 70 %
310 20-03-2021 03:31:18 7.9 C 70 %
311 20-03-2021 03:41:18 7.9 C 70 %
312 20-03-2021 03:51:17 7.9 C 70 %
313 20-03-2021 04:01:18 7.9 C 70 %
314 20-03-2021 04:11:18 7.9 C 70 %
315 20-03-2021 04:21:17 7.8 C 70 %
316 20-03-2021 04:31:18 7.8 C 70 %
317 20-03-2021 04:41:18 7.8 C 70 %
318 20-03-2021 04:51:17 7.8 C 70 %
319 20-03-2021 05:01:17 7.8 C 70 %
320 20-03-2021 05:11:17 7.8 C 70 %
321 20-03-2021 05:21:18 7.8 C 70 %
322 20-03-2021 05:31:18 7.7 C 70 %
323 20-03-2021 05:41:18 7.7 C 70 %
324 20-03-2021 05:51:17 7.7 C 70 %
325 20-03-2021 06:01:18 7.7 C 70 %
Sensor: Nr:Datum:Temp:Feuchte:
G-T/H 326 20-03-2021 06:11:18 7.7 C 70 %
327 20-03-2021 06:21:18 7.7 C 70 %
328 20-03-2021 06:31:17 7.6 C 70 %
329 20-03-2021 06:41:17 7.6 C 70 %
330 20-03-2021 06:51:18 7.6 C 70 %
331 20-03-2021 07:01:18 7.6 C 70 %
332 20-03-2021 07:11:18 7.6 C 70 %
333 20-03-2021 07:21:17 7.6 C 70 %
334 20-03-2021 07:31:18 7.6 C 70 %
335 20-03-2021 07:41:18 7.6 C 70 %
336 20-03-2021 07:51:17 7.5 C 70 %
337 20-03-2021 08:01:17 7.5 C 70 %
338 20-03-2021 08:11:17 7.5 C 70 %
339 20-03-2021 08:21:17 7.5 C 70 %
340 20-03-2021 08:31:17 7.5 C 70 %
341 20-03-2021 08:41:18 7.5 C 70 %
342 20-03-2021 08:51:17 7.5 C 70 %
343 20-03-2021 09:01:17 7.5 C 70 %
344 20-03-2021 09:11:18 7.5 C 70 %
345 20-03-2021 09:21:17 7.5 C 70 %
346 20-03-2021 09:31:17 7.5 C 70 %
347 20-03-2021 09:41:17 7.5 C 70 %
348 20-03-2021 09:51:17 7.5 C 70 %
349 20-03-2021 10:01:18 7.5 C 70 %
350 20-03-2021 10:11:18 7.5 C 70 %
Sensor: Nr:Datum:Temp:Feuchte:
G-T/H 351 20-03-2021 10:21:17 7.4 C 70 %
352 20-03-2021 10:31:17 7.4 C 70 %
353 20-03-2021 10:41:18 7.4 C 70 %
354 20-03-2021 10:51:17 7.4 C 70 %
355 20-03-2021 11:01:18 7.4 C 70 %
356 20-03-2021 11:11:18 7.5 C 70 %
357 20-03-2021 11:21:17 7.5 C 70 %
358 20-03-2021 11:31:17 7.4 C 70 %
359 20-03-2021 11:41:17 7.5 C 70 %
360 20-03-2021 11:51:17 7.5 C 70 %
361 20-03-2021 12:01:18 7.5 C 70 %
362 20-03-2021 12:11:18 7.5 C 70 %
363 20-03-2021 12:21:17 7.5 C 70 %
364 20-03-2021 12:31:17 7.5 C 70 %
365 20-03-2021 12:41:17 7.5 C 70 %
366 20-03-2021 12:51:17 7.5 C 68 %
367 20-03-2021 13:01:17 7.5 C 63 %
368 20-03-2021 13:11:17 7.5 C 60 %
369 20-03-2021 13:21:17 7.4 C 59 %
370 20-03-2021 13:31:18 7.5 C 60 %
371 20-03-2021 13:41:18 7.5 C 61 %
372 20-03-2021 13:51:18 7.5 C 62 %
373 20-03-2021 14:01:18 7.6 C 62 %
374 20-03-2021 14:11:18 7.6 C 63 %
375 20-03-2021 14:21:17 7.6 C 64 %
Sensor: Nr:Datum:Temp:Feuchte:
G-T/H 376 20-03-2021 14:31:17 7.6 C 64 %
377 20-03-2021 14:41:17 7.6 C 65 %
378 20-03-2021 14:51:18 7.7 C 65 %
379 20-03-2021 15:01:17 7.6 C 66 %
380 20-03-2021 15:11:17 7.7 C 66 %
381 20-03-2021 15:21:17 7.7 C 66 %
382 20-03-2021 15:31:18 7.7 C 66 %
383 20-03-2021 15:41:18 7.7 C 67 %
384 20-03-2021 15:51:18 7.8 C 67 %
385 20-03-2021 16:01:17 7.8 C 67 %
386 20-03-2021 16:11:17 7.8 C 67 %
387 20-03-2021 16:21:18 7.8 C 68 %
388 20-03-2021 16:31:17 7.8 C 68 %
389 20-03-2021 16:41:17 7.8 C 68 %
390 20-03-2021 16:51:18 7.8 C 68 %
391 20-03-2021 17:01:18 7.8 C 68 %
392 20-03-2021 17:11:18 7.8 C 68 %
393 20-03-2021 17:21:17 7.9 C 68 %
394 20-03-2021 17:31:18 7.9 C 69 %
395 20-03-2021 17:41:18 7.9 C 69 %
396 20-03-2021 17:51:19 7.9 C 69 %
397 20-03-2021 18:01:17 7.9 C 69 %
398 20-03-2021 18:11:17 7.9 C 69 %
399 20-03-2021 18:21:17 7.9 C 69 %
400 20-03-2021 18:31:18 7.9 C 69 %
Sensor: Nr:Datum:Temp:Feuchte:
G-T/H 401 20-03-2021 18:41:18 7.9 C 69 %
402 20-03-2021 18:51:18 7.9 C 69 %
403 20-03-2021 19:01:18 7.9 C 69 %
404 20-03-2021 19:11:18 7.9 C 69 %
405 20-03-2021 19:21:18 8 C 69 %
406 20-03-2021 19:31:17 7.9 C 70 %
407 20-03-2021 19:41:17 7.9 C 70 %
408 20-03-2021 19:51:17 7.9 C 70 %
409 20-03-2021 20:01:18 8 C 69 %
410 20-03-2021 20:11:18 8 C 69 %
411 20-03-2021 20:21:17 8 C 69 %
412 20-03-2021 20:31:17 8 C 69 %
413 20-03-2021 20:41:17 8 C 69 %
414 20-03-2021 20:51:17 8 C 69 %
415 20-03-2021 21:01:18 8 C 69 %
416 20-03-2021 21:11:18 8 C 69 %
417 20-03-2021 21:21:17 8 C 69 %
418 20-03-2021 21:31:17 8 C 69 %
419 20-03-2021 21:41:17 8 C 69 %
420 20-03-2021 21:51:18 8 C 69 %
421 20-03-2021 22:01:18 8 C 69 %
422 20-03-2021 22:11:18 8 C 69 %
423 20-03-2021 22:21:17 8 C 69 %
424 20-03-2021 22:31:17 8 C 69 %
425 20-03-2021 22:41:17 8 C 70 %
Sensor: Nr:Datum:Temp:Feuchte:
G-T/H 426 20-03-2021 22:51:18 8 C 70 %
427 20-03-2021 23:01:17 8.1 C 70 %
428 20-03-2021 23:11:17 8.1 C 70 %
429 20-03-2021 23:21:17 8.1 C 70 %
430 20-03-2021 23:31:17 8.1 C 70 %
431 20-03-2021 23:41:18 8.1 C 70 %
432 20-03-2021 23:51:17 8.1 C 70 %
433 21-03-2021 00:01:18 8 C 70 %
434 21-03-2021 00:11:18 8 C 70 %
435 21-03-2021 00:21:18 8.1 C 70 %
436 21-03-2021 00:31:17 8.1 C 70 %
437 21-03-2021 00:41:17 8.1 C 70 %
438 21-03-2021 00:51:18 8 C 70 %
439 21-03-2021 01:01:17 8.1 C 70 %
440 21-03-2021 01:11:17 8.1 C 70 %
441 21-03-2021 01:21:18 8.1 C 70 %
442 21-03-2021 01:31:17 8.1 C 70 %
443 21-03-2021 01:41:17 8 C 70 %
444 21-03-2021 01:51:17 8 C 70 %
445 21-03-2021 02:01:17 8.1 C 70 %
446 21-03-2021 02:11:17 8.1 C 70 %
447 21-03-2021 02:21:17 8.1 C 70 %
448 21-03-2021 02:31:17 8.1 C 70 %
449 21-03-2021 02:41:17 8.1 C 70 %
450 21-03-2021 02:51:17 8.1 C 70 %
Sensor: Nr:Datum:Temp:Feuchte:
G-T/H 451 21-03-2021 03:01:18 8.1 C 70 %
452 21-03-2021 03:11:18 8.1 C 70 %
453 21-03-2021 03:21:18 8.1 C 70 %
454 21-03-2021 03:31:18 8.1 C 70 %
455 21-03-2021 03:41:18 8.1 C 70 %
456 21-03-2021 03:51:17 8.1 C 70 %
457 21-03-2021 04:01:18 8.1 C 70 %
458 21-03-2021 04:11:18 8.1 C 71 %
459 21-03-2021 04:21:18 8.1 C 71 %
460 21-03-2021 04:31:17 8.1 C 71 %
461 21-03-2021 04:41:17 8.1 C 71 %
462 21-03-2021 04:51:17 8.1 C 71 %
463 21-03-2021 05:01:18 8.1 C 71 %
464 21-03-2021 05:11:18 8.1 C 71 %
465 21-03-2021 05:21:17 8.1 C 71 %
466 21-03-2021 05:31:17 8.1 C 71 %
467 21-03-2021 05:41:17 8.1 C 71 %
468 21-03-2021 05:51:17 8.1 C 71 %
469 21-03-2021 06:01:17 8.1 C 71 %
470 21-03-2021 06:11:17 8.1 C 71 %
471 21-03-2021 06:21:17 8.1 C 71 %
472 21-03-2021 06:31:17 8.1 C 71 %
473 21-03-2021 06:41:17 8.1 C 71 %
474 21-03-2021 06:51:17 8.1 C 71 %
475 21-03-2021 07:01:18 8.1 C 71 %
Sensor: Nr:Datum:Temp:Feuchte:
G-T/H 476 21-03-2021 07:11:18 8.1 C 71 %
477 21-03-2021 07:21:17 8.1 C 71 %
478 21-03-2021 07:31:17 8.1 C 71 %
479 21-03-2021 07:41:17 8.1 C 71 %
480 21-03-2021 07:51:17 8.1 C 71 %
481 21-03-2021 08:01:18 8.1 C 71 %
482 21-03-2021 08:11:18 8.1 C 71 %
483 21-03-2021 08:21:18 8.1 C 71 %
484 21-03-2021 08:31:17 8.1 C 71 %
485 21-03-2021 08:41:17 8.1 C 71 %
486 21-03-2021 08:51:17 8.1 C 71 %
487 21-03-2021 09:01:18 8.1 C 71 %
488 21-03-2021 09:11:18 8.1 C 72 %
489 21-03-2021 09:21:18 8.1 C 72 %
490 21-03-2021 09:31:18 8.1 C 72 %
491 21-03-2021 09:41:18 8.1 C 72 %
492 21-03-2021 09:51:17 8.1 C 72 %
493 21-03-2021 10:01:18 8.1 C 72 %
494 21-03-2021 10:11:18 8.1 C 72 %
495 21-03-2021 10:21:17 8.1 C 72 %
496 21-03-2021 10:31:18 8.1 C 72 %
497 21-03-2021 10:41:18 8.2 C 72 %
498 21-03-2021 10:51:18 8.2 C 72 %
499 21-03-2021 11:01:17 8.1 C 72 %
500 21-03-2021 11:11:17 8.2 C 72 %
Sensor: Nr:Datum:Temp:Feuchte:
G-T/H 501 21-03-2021 11:21:17 8.2 C 72 %
502 21-03-2021 11:31:17 8.2 C 72 %
503 21-03-2021 11:41:17 8.2 C 72 %
504 21-03-2021 11:51:17 8.2 C 72 %
505 21-03-2021 12:01:18 8.2 C 72 %
506 21-03-2021 12:11:18 8.2 C 72 %
507 21-03-2021 12:21:18 8.2 C 72 %
508 21-03-2021 12:31:18 8.2 C 72 %
509 21-03-2021 12:41:18 8.2 C 72 %
510 21-03-2021 12:51:18 8.2 C 72 %
511 21-03-2021 13:01:17 8.2 C 72 %
512 21-03-2021 13:11:17 8.2 C 72 %
513 21-03-2021 13:21:17 8.3 C 72 %
514 21-03-2021 13:31:17 8.3 C 72 %
515 21-03-2021 13:41:17 8.3 C 72 %
516 21-03-2021 13:51:18 8.3 C 72 %
517 21-03-2021 14:01:17 8.3 C 72 %
518 21-03-2021 14:11:17 8.3 C 72 %
519 21-03-2021 14:21:17 8.3 C 72 %
520 21-03-2021 14:31:18 8.4 C 72 %
521 21-03-2021 14:41:18 8.4 C 72 %
522 21-03-2021 14:51:17 8.4 C 72 %
523 21-03-2021 15:01:18 8.4 C 72 %
524 21-03-2021 15:11:18 8.4 C 72 %
525 21-03-2021 15:21:18 8.4 C 72 %
Sensor: Nr:Datum:Temp:Feuchte:
G-T/H 526 21-03-2021 15:31:18 8.4 C 72 %
527 21-03-2021 15:41:18 8.5 C 71 %
528 21-03-2021 15:51:18 8.5 C 71 %
529 21-03-2021 16:01:17 8.5 C 71 %
530 21-03-2021 16:11:17 8.5 C 72 %
531 21-03-2021 16:21:17 8.5 C 72 %
532 21-03-2021 16:31:18 8.5 C 72 %
533 21-03-2021 16:41:18 8.5 C 72 %
534 21-03-2021 16:51:17 8.5 C 72 %
535 21-03-2021 17:01:18 8.5 C 72 %
536 21-03-2021 17:11:18 8.5 C 72 %
537 21-03-2021 17:21:18 8.6 C 72 %
538 21-03-2021 17:31:17 8.6 C 72 %
539 21-03-2021 17:41:17 8.5 C 72 %
540 21-03-2021 17:51:17 8.6 C 72 %
541 21-03-2021 18:01:18 8.6 C 72 %
542 21-03-2021 18:11:18 8.6 C 72 %
543 21-03-2021 18:21:18 8.6 C 72 %
544 21-03-2021 18:31:17 8.6 C 72 %
545 21-03-2021 18:41:17 8.6 C 72 %
546 21-03-2021 18:51:18 8.6 C 72 %
547 21-03-2021 19:01:18 8.6 C 72 %
548 21-03-2021 19:11:18 8.6 C 72 %
549 21-03-2021 19:21:17 8.6 C 72 %
550 21-03-2021 19:31:18 8.6 C 72 %
Sensor: Nr:Datum:Temp:Feuchte:
G-T/H 551 21-03-2021 19:41:18 8.6 C 72 %
552 21-03-2021 19:51:18 8.7 C 72 %
553 21-03-2021 20:01:18 8.6 C 72 %
554 21-03-2021 20:11:18 8.6 C 72 %
555 21-03-2021 20:21:17 8.7 C 72 %
556 21-03-2021 20:31:17 8.7 C 72 %
557 21-03-2021 20:41:17 8.7 C 72 %
558 21-03-2021 20:51:17 8.7 C 72 %
559 21-03-2021 21:01:18 8.7 C 72 %
560 21-03-2021 21:11:18 8.6 C 72 %
561 21-03-2021 21:21:17 8.7 C 72 %
562 21-03-2021 21:31:17 8.7 C 72 %
563 21-03-2021 21:41:17 8.6 C 72 %
564 21-03-2021 21:51:17 8.7 C 72 %
565 21-03-2021 22:01:17 8.7 C 72 %
566 21-03-2021 22:11:17 8.7 C 72 %
567 21-03-2021 22:21:18 8.7 C 72 %
568 21-03-2021 22:31:17 8.6 C 72 %
569 21-03-2021 22:41:17 8.7 C 72 %
570 21-03-2021 22:51:18 8.7 C 72 %
571 21-03-2021 23:01:18 8.7 C 72 %
572 21-03-2021 23:11:18 8.6 C 72 %
573 21-03-2021 23:21:17 8.6 C 72 %
574 21-03-2021 23:31:18 8.6 C 72 %
575 21-03-2021 23:41:18 8.6 C 72 %
Sensor: Nr:Datum:Temp:Feuchte:
G-T/H 576 21-03-2021 23:51:17 8.6 C 72 %
577 22-03-2021 00:01:17 8.6 C 72 %
578 22-03-2021 00:11:17 8.6 C 72 %
579 22-03-2021 00:21:18 8.6 C 72 %
580 22-03-2021 00:31:17 8.6 C 72 %
581 22-03-2021 00:41:17 8.6 C 72 %
582 22-03-2021 00:51:17 8.6 C 72 %
583 22-03-2021 01:01:17 8.6 C 72 %
584 22-03-2021 01:11:17 8.6 C 72 %
585 22-03-2021 01:21:18 8.6 C 72 %
586 22-03-2021 01:31:18 8.6 C 72 %
587 22-03-2021 01:41:18 8.6 C 72 %
588 22-03-2021 01:51:18 8.6 C 72 %
589 22-03-2021 02:01:18 8.5 C 72 %
590 22-03-2021 02:11:18 8.5 C 72 %
591 22-03-2021 02:21:18 8.5 C 72 %
592 22-03-2021 02:31:18 8.5 C 72 %
593 22-03-2021 02:41:18 8.5 C 72 %
594 22-03-2021 02:51:18 8.5 C 72 %
595 22-03-2021 03:01:17 8.5 C 72 %
596 22-03-2021 03:11:17 8.5 C 72 %
597 22-03-2021 03:21:17 8.5 C 72 %
598 22-03-2021 03:31:18 8.5 C 72 %
599 22-03-2021 03:41:18 8.5 C 72 %
600 22-03-2021 03:51:18 8.5 C 72 %
Sensor: Nr:Datum:Temp:Feuchte:
G-T/H 601 22-03-2021 04:01:17 8.5 C 72 %
602 22-03-2021 04:11:18 8.5 C 72 %
603 22-03-2021 04:21:18 8.5 C 72 %
604 22-03-2021 04:31:18 8.5 C 72 %
605 22-03-2021 04:41:18 8.5 C 72 %
606 22-03-2021 04:51:18 8.5 C 72 %
607 22-03-2021 05:01:18 8.5 C 72 %
608 22-03-2021 05:11:18 8.4 C 72 %
609 22-03-2021 05:21:18 8.4 C 72 %
610 22-03-2021 05:31:18 8.4 C 72 %
611 22-03-2021 05:41:18 8.4 C 72 %
612 22-03-2021 05:51:17 8.4 C 72 %
613 22-03-2021 06:01:17 8.4 C 72 %
614 22-03-2021 06:11:18 8.4 C 72 %
615 22-03-2021 06:21:18 8.4 C 72 %
616 22-03-2021 06:31:18 8.4 C 72 %
617 22-03-2021 06:41:18 8.4 C 72 %
618 22-03-2021 06:51:18 8.4 C 72 %
619 22-03-2021 07:01:17 8.4 C 72 %
620 22-03-2021 07:11:17 8.4 C 72 %
621 22-03-2021 07:21:17 8.4 C 72 %
622 22-03-2021 07:31:17 8.4 C 72 %
623 22-03-2021 07:41:17 8.4 C 72 %
624 22-03-2021 07:51:17 8.4 C 72 %
625 22-03-2021 08:01:17 8.4 C 72 %
Sensor: Nr:Datum:Temp:Feuchte:
G-T/H 626 22-03-2021 08:11:18 8.4 C 72 %
627 22-03-2021 08:21:18 8.4 C 72 %
628 22-03-2021 08:31:17 8.4 C 72 %
629 22-03-2021 08:41:17 8.4 C 72 %
630 22-03-2021 08:51:18 8.4 C 72 %
631 22-03-2021 09:01:17 8.4 C 72 %
632 22-03-2021 09:11:17 8.4 C 72 %
633 22-03-2021 09:21:17 8.4 C 72 %
634 22-03-2021 09:31:17 8.4 C 72 %
635 22-03-2021 09:41:17 8.4 C 72 %
636 22-03-2021 09:51:17 8.4 C 72 %
637 22-03-2021 10:01:17 8.4 C 72 %
638 22-03-2021 10:11:17 8.4 C 72 %
639 22-03-2021 10:21:17 8.4 C 72 %
640 22-03-2021 10:31:18 8.4 C 72 %
641 22-03-2021 10:41:18 8.4 C 72 %
642 22-03-2021 10:51:18 8.4 C 72 %
643 22-03-2021 11:01:17 8.4 C 72 %
644 22-03-2021 11:11:17 8.4 C 72 %
645 22-03-2021 11:21:17 8.4 C 72 %
646 22-03-2021 11:31:17 8.4 C 73 %
647 22-03-2021 11:41:17 8.4 C 73 %
648 22-03-2021 11:51:18 8.4 C 73 %
649 22-03-2021 12:01:17 8.5 C 72 %
650 22-03-2021 12:11:17 8.5 C 72 %
Sensor: Nr:Datum:Temp:Feuchte:
G-T/H 651 22-03-2021 12:21:17 8.5 C 72 %
652 22-03-2021 12:31:18 8.4 C 72 %
653 22-03-2021 12:41:18 8.5 C 72 %
654 22-03-2021 12:51:17 8.5 C 72 %
655 22-03-2021 13:01:17 8.4 C 72 %
656 22-03-2021 13:11:17 8.5 C 72 %
657 22-03-2021 13:21:17 8.5 C 72 %
658 22-03-2021 13:31:17 8.5 C 72 %
659 22-03-2021 13:41:17 8.5 C 72 %
660 22-03-2021 13:51:17 8.5 C 72 %
661 22-03-2021 14:01:18 8.5 C 72 %
662 22-03-2021 14:11:18 8.5 C 72 %
663 22-03-2021 14:21:17 8.5 C 72 %
664 22-03-2021 14:31:18 8.5 C 72 %
665 22-03-2021 14:41:18 8.5 C 72 %
666 22-03-2021 14:51:17 8.5 C 72 %
667 22-03-2021 15:01:17 8.5 C 72 %
668 22-03-2021 15:11:17 8.5 C 73 %
669 22-03-2021 15:21:18 8.6 C 73 %
670 22-03-2021 15:31:17 8.6 C 73 %
671 22-03-2021 15:41:17 8.6 C 73 %
672 22-03-2021 15:51:18 8.6 C 73 %
673 22-03-2021 16:01:17 8.6 C 73 %
674 22-03-2021 16:11:17 8.6 C 73 %
675 22-03-2021 16:21:17 8.6 C 73 %
Sensor: Nr:Datum:Temp:Feuchte:
G-T/H 676 22-03-2021 16:31:18 8.6 C 73 %
677 22-03-2021 16:41:18 8.6 C 73 %
678 22-03-2021 16:51:17 8.6 C 73 %
679 22-03-2021 17:01:18 8.6 C 73 %
680 22-03-2021 17:11:18 8.6 C 73 %
681 22-03-2021 17:21:17 8.6 C 73 %
682 22-03-2021 17:31:17 8.7 C 73 %
683 22-03-2021 17:41:17 8.7 C 73 %
684 22-03-2021 17:51:18 8.7 C 73 %
685 22-03-2021 18:01:18 8.7 C 73 %
686 22-03-2021 18:11:18 8.7 C 73 %
687 22-03-2021 18:21:17 8.7 C 73 %
688 22-03-2021 18:31:17 8.7 C 73 %
689 22-03-2021 18:41:17 8.7 C 73 %
690 22-03-2021 18:51:17 8.7 C 73 %
691 22-03-2021 19:01:18 8.7 C 73 %
692 22-03-2021 19:11:18 8.7 C 73 %
693 22-03-2021 19:21:18 8.7 C 73 %
694 22-03-2021 19:31:17 8.7 C 73 %
695 22-03-2021 19:41:18 8.7 C 73 %
696 22-03-2021 19:51:18 8.8 C 73 %
697 22-03-2021 20:01:18 8.7 C 73 %
698 22-03-2021 20:11:18 8.7 C 73 %
699 22-03-2021 20:21:17 8.7 C 73 %
700 22-03-2021 20:31:18 8.8 C 73 %
Sensor: Nr:Datum:Temp:Feuchte:
G-T/H 701 22-03-2021 20:41:18 8.8 C 73 %
702 22-03-2021 20:51:17 8.8 C 73 %
703 22-03-2021 21:01:17 8.8 C 73 %
704 22-03-2021 21:11:17 8.8 C 73 %
705 22-03-2021 21:21:18 8.8 C 73 %
706 22-03-2021 21:31:18 8.8 C 73 %
707 22-03-2021 21:41:18 8.8 C 73 %
708 22-03-2021 21:51:17 8.8 C 73 %
709 22-03-2021 22:01:17 8.8 C 73 %
710 22-03-2021 22:11:17 8.8 C 73 %
711 22-03-2021 22:21:17 8.8 C 73 %
712 22-03-2021 22:31:17 8.8 C 73 %
713 22-03-2021 22:41:17 8.8 C 73 %
714 22-03-2021 22:51:18 8.8 C 73 %
715 22-03-2021 23:01:18 8.8 C 73 %
716 22-03-2021 23:11:18 8.8 C 73 %
717 22-03-2021 23:21:17 8.9 C 73 %
718 22-03-2021 23:31:17 8.9 C 73 %
719 22-03-2021 23:41:18 8.9 C 73 %
720 22-03-2021 23:51:18 8.9 C 73 %
721 23-03-2021 00:01:17 8.9 C 73 %
722 23-03-2021 00:11:17 8.9 C 73 %
723 23-03-2021 00:21:17 8.8 C 73 %
724 23-03-2021 00:31:17 8.9 C 73 %
725 23-03-2021 00:41:18 8.9 C 73 %
Sensor: Nr:Datum:Temp:Feuchte:
G-T/H 726 23-03-2021 00:51:18 8.9 C 73 %
727 23-03-2021 01:01:17 8.9 C 73 %
728 23-03-2021 01:11:17 8.8 C 73 %
729 23-03-2021 01:21:18 8.9 C 73 %
730 23-03-2021 01:31:17 8.9 C 73 %
731 23-03-2021 01:41:17 8.8 C 73 %
732 23-03-2021 01:51:17 8.9 C 73 %
733 23-03-2021 02:01:18 8.9 C 73 %
734 23-03-2021 02:11:18 8.8 C 73 %
735 23-03-2021 02:21:18 8.9 C 73 %
736 23-03-2021 02:31:18 8.9 C 73 %
737 23-03-2021 02:41:18 8.9 C 73 %
738 23-03-2021 02:51:17 8.8 C 73 %
739 23-03-2021 03:01:17 8.9 C 73 %
740 23-03-2021 03:11:17 8.9 C 73 %
741 23-03-2021 03:21:17 8.9 C 73 %
742 23-03-2021 03:31:17 8.9 C 73 %
743 23-03-2021 03:41:17 8.8 C 73 %
744 23-03-2021 03:51:17 8.9 C 73 %
745 23-03-2021 04:01:17 8.8 C 73 %
746 23-03-2021 04:11:17 8.8 C 73 %
747 23-03-2021 04:21:17 8.8 C 73 %
748 23-03-2021 04:31:17 8.8 C 73 %
749 23-03-2021 04:41:18 8.8 C 73 %
750 23-03-2021 04:51:18 8.8 C 73 %
Sensor: Nr:Datum:Temp:Feuchte:
G-T/H 751 23-03-2021 05:01:18 8.8 C 73 %
752 23-03-2021 05:11:18 8.8 C 73 %
753 23-03-2021 05:21:17 8.8 C 73 %
754 23-03-2021 05:31:18 8.8 C 73 %
755 23-03-2021 05:41:18 8.8 C 73 %
756 23-03-2021 05:51:17 8.8 C 73 %
757 23-03-2021 06:01:18 8.8 C 73 %
758 23-03-2021 06:11:18 8.8 C 73 %
759 23-03-2021 06:21:18 8.8 C 73 %
760 23-03-2021 06:31:17 8.8 C 73 %
761 23-03-2021 06:41:17 8.8 C 73 %
762 23-03-2021 06:51:18 8.8 C 73 %
763 23-03-2021 07:01:17 8.8 C 73 %
764 23-03-2021 07:11:17 8.8 C 73 %
765 23-03-2021 07:21:17 8.8 C 73 %
766 23-03-2021 07:31:17 8.8 C 73 %
767 23-03-2021 07:41:17 8.8 C 73 %
768 23-03-2021 07:51:18 8.8 C 73 %
769 23-03-2021 08:01:17 8.8 C 73 %
770 23-03-2021 08:11:17 8.8 C 73 %
771 23-03-2021 08:21:17 8.8 C 73 %
772 23-03-2021 08:31:17 8.8 C 73 %
773 23-03-2021 08:41:17 8.8 C 73 %
774 23-03-2021 08:51:17 8.8 C 73 %
775 23-03-2021 09:01:17 8.8 C 73 %
Sensor: Nr:Datum:Temp:Feuchte:
G-T/H 776 23-03-2021 09:11:17 8.8 C 73 %
777 23-03-2021 09:21:17 8.8 C 73 %
778 23-03-2021 09:31:17 8.8 C 73 %
779 23-03-2021 09:41:17 8.8 C 73 %
780 23-03-2021 09:51:17 8.8 C 73 %
781 23-03-2021 10:01:17 8.8 C 73 %
782 23-03-2021 10:11:18 8.9 C 73 %
783 23-03-2021 10:21:18 8.8 C 73 %
784 23-03-2021 10:31:17 8.8 C 73 %
785 23-03-2021 10:41:18 8.8 C 73 %
786 23-03-2021 10:51:18 8.8 C 73 %
787 23-03-2021 11:01:17 8.9 C 73 %
788 23-03-2021 11:11:17 8.9 C 73 %
789 23-03-2021 11:21:18 8.9 C 73 %
790 23-03-2021 11:31:17 8.9 C 73 %
791 23-03-2021 11:41:17 8.9 C 73 %
792 23-03-2021 11:51:18 8.9 C 73 %
793 23-03-2021 12:01:18 8.9 C 73 %
794 23-03-2021 12:11:18 8.9 C 73 %
795 23-03-2021 12:21:18 9 C 72 %
796 23-03-2021 12:31:18 9 C 72 %
797 23-03-2021 12:41:18 9 C 72 %
798 23-03-2021 12:51:17 9 C 72 %
799 23-03-2021 13:01:17 9 C 72 %
800 23-03-2021 13:11:17 9 C 72 %
Sensor: Nr:Datum:Temp:Feuchte:
G-T/H 801 23-03-2021 13:21:17 9 C 73 %
802 23-03-2021 13:31:18 9.1 C 73 %
803 23-03-2021 13:41:18 9.1 C 73 %
804 23-03-2021 13:51:18 9.1 C 73 %
805 23-03-2021 14:01:17 9.1 C 73 %
806 23-03-2021 14:11:17 9.1 C 73 %
807 23-03-2021 14:21:17 9.1 C 73 %
808 23-03-2021 14:31:18 9.1 C 73 %
809 23-03-2021 14:41:18 9.2 C 73 %
810 23-03-2021 14:51:17 9.2 C 73 %
811 23-03-2021 15:01:18 9.2 C 73 %
812 23-03-2021 15:11:18 9.2 C 73 %
813 23-03-2021 15:21:18 9.2 C 73 %
814 23-03-2021 15:31:18 9.2 C 73 %
815 23-03-2021 15:41:18 9.2 C 73 %
816 23-03-2021 15:51:17 9.3 C 73 %
817 23-03-2021 16:01:17 9.3 C 73 %
818 23-03-2021 16:11:17 9.3 C 73 %
819 23-03-2021 16:21:17 9.3 C 73 %
820 23-03-2021 16:31:18 9.3 C 73 %
821 23-03-2021 16:41:18 9.4 C 73 %
822 23-03-2021 16:51:18 9.3 C 73 %
823 23-03-2021 17:01:18 9.4 C 73 %
824 23-03-2021 17:11:18 9.4 C 73 %
825 23-03-2021 17:21:17 9.4 C 73 %
Sensor: Nr:Datum:Temp:Feuchte:
G-T/H 826 23-03-2021 17:31:17 9.4 C 73 %
827 23-03-2021 17:41:18 9.5 C 73 %
828 23-03-2021 17:51:17 9.5 C 73 %
829 23-03-2021 18:01:17 9.5 C 73 %
830 23-03-2021 18:11:17 9.5 C 73 %
831 23-03-2021 18:21:18 9.5 C 73 %
832 23-03-2021 18:31:18 9.5 C 73 %
833 23-03-2021 18:41:18 9.5 C 73 %
834 23-03-2021 18:51:17 9.5 C 73 %
835 23-03-2021 19:01:17 9.5 C 73 %
836 23-03-2021 19:11:17 9.5 C 73 %
837 23-03-2021 19:21:17 9.5 C 73 %
838 23-03-2021 19:31:18 9.5 C 73 %
839 23-03-2021 19:41:18 9.5 C 73 %
840 23-03-2021 19:51:17 9.5 C 73 %
841 23-03-2021 20:01:17 9.5 C 73 %
842 23-03-2021 20:11:17 9.5 C 73 %
843 23-03-2021 20:21:17 9.5 C 73 %
844 23-03-2021 20:31:17 9.5 C 73 %
845 23-03-2021 20:41:17 9.5 C 73 %
846 23-03-2021 20:51:18 9.5 C 73 %
847 23-03-2021 21:01:17 9.5 C 73 %
848 23-03-2021 21:11:17 9.5 C 73 %
849 23-03-2021 21:21:17 9.5 C 73 %
850 23-03-2021 21:31:18 9.5 C 73 %
Sensor: Nr:Datum:Temp:Feuchte:
G-T/H 851 23-03-2021 21:41:18 9.5 C 73 %
852 23-03-2021 21:51:17 9.5 C 73 %
853 23-03-2021 22:01:17 9.5 C 73 %
854 23-03-2021 22:11:17 9.5 C 73 %
855 23-03-2021 22:21:18 9.5 C 73 %
856 23-03-2021 22:31:18 9.5 C 73 %
857 23-03-2021 22:41:18 9.5 C 73 %
858 23-03-2021 22:51:18 9.4 C 73 %
859 23-03-2021 23:01:17 9.5 C 73 %
860 23-03-2021 23:11:17 9.4 C 73 %
861 23-03-2021 23:21:17 9.4 C 73 %
862 23-03-2021 23:31:17 9.4 C 73 %
863 23-03-2021 23:41:18 9.4 C 73 %
864 23-03-2021 23:51:18 9.4 C 73 %
865 24-03-2021 00:01:17 9.4 C 73 %
866 24-03-2021 00:11:17 9.4 C 72 %
867 24-03-2021 00:21:18 9.4 C 72 %
868 24-03-2021 00:31:17 9.3 C 72 %
869 24-03-2021 00:41:17 9.3 C 72 %
870 24-03-2021 00:51:17 9.3 C 72 %
871 24-03-2021 01:01:17 9.3 C 72 %
872 24-03-2021 01:11:17 9.3 C 72 %
873 24-03-2021 01:21:17 9.3 C 72 %
874 24-03-2021 01:31:17 9.3 C 72 %
875 24-03-2021 01:41:17 9.3 C 72 %
Sensor: Nr:Datum:Temp:Feuchte:
G-T/H 876 24-03-2021 01:51:17 9.2 C 72 %
877 24-03-2021 02:01:17 9.2 C 72 %
878 24-03-2021 02:11:17 9.2 C 72 %
879 24-03-2021 02:21:17 9.2 C 72 %
880 24-03-2021 02:31:18 9.1 C 72 %
881 24-03-2021 02:41:18 9.2 C 72 %
882 24-03-2021 02:51:17 9.2 C 72 %
883 24-03-2021 03:01:17 9.1 C 72 %
884 24-03-2021 03:11:17 9.1 C 72 %
885 24-03-2021 03:21:17 9.1 C 72 %
886 24-03-2021 03:31:17 9.1 C 72 %
887 24-03-2021 03:41:17 9.1 C 72 %
888 24-03-2021 03:51:18 9 C 71 %
889 24-03-2021 04:01:18 9 C 71 %
890 24-03-2021 04:11:18 9 C 71 %
891 24-03-2021 04:21:17 9 C 71 %
892 24-03-2021 04:31:17 8.9 C 72 %
893 24-03-2021 04:41:17 8.9 C 72 %
894 24-03-2021 04:51:17 8.9 C 72 %
895 24-03-2021 05:01:17 8.9 C 72 %
896 24-03-2021 05:11:17 8.9 C 72 %
897 24-03-2021 05:21:18 8.8 C 72 %
898 24-03-2021 05:31:18 8.8 C 72 %
899 24-03-2021 05:41:18 8.8 C 72 %
900 24-03-2021 05:51:18 8.7 C 72 %
Sensor: Nr:Datum:Temp:Feuchte:
G-T/H 901 24-03-2021 06:01:17 8.8 C 72 %
902 24-03-2021 06:11:17 8.7 C 72 %
903 24-03-2021 06:21:18 8.7 C 72 %
904 24-03-2021 06:31:17 8.7 C 72 %
905 24-03-2021 06:41:17 8.6 C 72 %
906 24-03-2021 06:51:18 8.6 C 72 %
907 24-03-2021 07:01:18 8.6 C 72 %
908 24-03-2021 07:11:18 8.6 C 71 %
909 24-03-2021 07:21:17 8.6 C 71 %
910 24-03-2021 07:31:18 8.6 C 71 %
911 24-03-2021 07:41:18 8.5 C 71 %
912 24-03-2021 07:51:17 8.5 C 71 %
913 24-03-2021 08:01:17 8.5 C 71 %
914 24-03-2021 08:11:18 8.5 C 71 %
915 24-03-2021 08:21:17 8.5 C 71 %
916 24-03-2021 08:31:17 8.5 C 71 %
917 24-03-2021 08:41:17 8.5 C 71 %
918 24-03-2021 08:51:17 8.4 C 71 %
919 24-03-2021 09:01:18 8.4 C 71 %
920 24-03-2021 09:11:18 8.4 C 71 %
921 24-03-2021 09:21:17 8.4 C 71 %
922 24-03-2021 09:31:18 8.4 C 71 %
923 24-03-2021 09:41:18 8.4 C 71 %
924 24-03-2021 09:51:17 8.3 C 71 %
925 24-03-2021 10:01:17 8.3 C 71 %
Sensor: Nr:Datum:Temp:Feuchte:
G-T/H 926 24-03-2021 10:11:17 8.4 C 71 %
927 24-03-2021 10:21:17 8.4 C 71 %
928 24-03-2021 10:31:17 8.4 C 72 %
929 24-03-2021 10:41:17 8.4 C 72 %
930 24-03-2021 10:51:18 8.3 C 72 %
931 24-03-2021 11:01:17 8.4 C 72 %
932 24-03-2021 11:11:17 8.4 C 72 %
933 24-03-2021 11:21:18 8.4 C 72 %
934 24-03-2021 11:31:17 8.4 C 72 %
935 24-03-2021 11:41:17 8.4 C 72 %
936 24-03-2021 11:51:17 8.4 C 72 %
937 24-03-2021 12:01:18 8.4 C 72 %
938 24-03-2021 12:11:18 8.4 C 72 %
939 24-03-2021 12:21:18 8.5 C 72 %
940 24-03-2021 12:31:17 8.5 C 72 %
941 24-03-2021 12:41:17 8.5 C 72 %
942 24-03-2021 12:51:17 8.5 C 73 %
943 24-03-2021 13:01:18 8.5 C 73 %
944 24-03-2021 13:11:18 8.5 C 73 %
945 24-03-2021 13:21:17 8.8 C 72 %
946 24-03-2021 13:31:18 8.7 C 72 %
947 24-03-2021 13:41:18 8.7 C 72 %
948 24-03-2021 13:51:17 8.7 C 72 %
949 24-03-2021 14:01:17 8.7 C 72 %
950 24-03-2021 14:11:17 8.7 C 72 %
Sensor: Nr:Datum:Temp:Feuchte:
G-T/H 951 24-03-2021 14:21:17 8.7 C 72 %
952 24-03-2021 14:31:18 8.7 C 72 %
953 24-03-2021 14:41:18 8.7 C 72 %
954 24-03-2021 14:51:17 8.8 C 72 %
955 24-03-2021 15:01:17 8.8 C 72 %
956 24-03-2021 15:11:17 8.9 C 72 %
957 24-03-2021 15:21:17 8.9 C 72 %
958 24-03-2021 15:31:17 8.9 C 72 %
959 24-03-2021 15:41:17 8.9 C 72 %
960 24-03-2021 15:51:18 9 C 71 %
961 24-03-2021 16:01:17 9 C 71 %
962 24-03-2021 16:11:17 9 C 71 %
963 24-03-2021 16:21:17 9 C 71 %
964 24-03-2021 16:31:18 10.1 C 65 %
965 24-03-2021 16:41:18 11.3 C 57 %
966 24-03-2021 16:51:18 11.6 C 53 %
967 24-03-2021 17:01:18 11.9 C 51 %
968 24-03-2021 17:11:18 12.1 C 49 %
969 24-03-2021 17:21:17 12.3 C 49 %
970 24-03-2021 17:31:18 12.3 C 50 %
971 24-03-2021 17:41:18 12 C 52 %
972 24-03-2021 17:51:18 11.7 C 55 %
973 24-03-2021 18:01:18 11.6 C 57 %
974 24-03-2021 18:11:18 11.4 C 59 %
975 24-03-2021 18:21:17 11.3 C 60 %
Sensor: Nr:Datum:Temp:Feuchte:
G-T/H 976 24-03-2021 18:31:17 11.2 C 60 %
977 24-03-2021 18:41:17 11.1 C 61 %
978 24-03-2021 18:51:17 11.1 C 62 %
979 24-03-2021 19:01:18 11 C 62 %
980 24-03-2021 19:11:18 10.9 C 64 %
981 24-03-2021 19:21:18 10.9 C 64 %
982 24-03-2021 19:31:18 10.8 C 64 %
983 24-03-2021 19:41:18 10.8 C 65 %
984 24-03-2021 19:51:18 10.8 C 65 %
985 24-03-2021 20:01:18 10.7 C 65 %
986 24-03-2021 20:11:18 10.7 C 66 %
987 24-03-2021 20:21:18 10.7 C 66 %
988 24-03-2021 20:31:17 10.6 C 66 %
989 24-03-2021 20:41:17 10.6 C 66 %
990 24-03-2021 20:51:18 10.6 C 67 %
991 24-03-2021 21:01:18 10.6 C 67 %
992 24-03-2021 21:11:18 10.6 C 67 %
993 24-03-2021 21:21:17 10.5 C 67 %
994 24-03-2021 21:31:18 10.5 C 67 %
995 24-03-2021 21:41:18 10.5 C 67 %
996 24-03-2021 21:51:18 10.5 C 68 %
997 24-03-2021 22:01:18 10.5 C 68 %
998 24-03-2021 22:11:18 10.5 C 68 %
999 24-03-2021 22:21:17 10.4 C 68 %
1000 24-03-2021 22:31:18 10.4 C 68 %
Sensor: Nr:Datum:Temp:Feuchte:
G-T/H 1001 24-03-2021 22:41:18 10.4 C 68 %
1002 24-03-2021 22:51:18 10.4 C 68 %
1003 24-03-2021 23:01:17 10.4 C 68 %
1004 24-03-2021 23:11:18 10.3 C 68 %
1005 24-03-2021 23:21:17 10.3 C 68 %
1006 24-03-2021 23:31:18 10.3 C 68 %
1007 24-03-2021 23:41:18 10.3 C 69 %
1008 24-03-2021 23:51:18 10.2 C 68 %
1009 25-03-2021 00:01:18 10.2 C 68 %
1010 25-03-2021 00:11:18 10.2 C 68 %
1011 25-03-2021 00:21:17 10.2 C 68 %
1012 25-03-2021 00:31:17 10.1 C 68 %
1013 25-03-2021 00:41:17 10.1 C 68 %
1014 25-03-2021 00:51:18 10.1 C 67 %
1015 25-03-2021 01:01:18 10.1 C 67 %
1016 25-03-2021 01:11:18 10 C 67 %
1017 25-03-2021 01:21:17 10 C 67 %
1018 25-03-2021 01:31:18 10 C 67 %
1019 25-03-2021 01:41:18 10 C 67 %
1020 25-03-2021 01:51:18 10 C 67 %
1021 25-03-2021 02:01:17 10 C 66 %
1022 25-03-2021 02:11:17 9.9 C 67 %
1023 25-03-2021 02:21:17 9.9 C 67 %
1024 25-03-2021 02:31:17 9.8 C 67 %
1025 25-03-2021 02:41:17 9.8 C 67 %
Sensor: Nr:Datum:Temp:Feuchte:
G-T/H 1026 25-03-2021 02:51:18 9.8 C 67 %
1027 25-03-2021 03:01:17 9.8 C 67 %
1028 25-03-2021 03:11:17 9.8 C 67 %
1029 25-03-2021 03:21:17 9.7 C 67 %
1030 25-03-2021 03:31:17 9.7 C 66 %
1031 25-03-2021 03:41:17 9.7 C 66 %
1032 25-03-2021 03:51:17 9.7 C 66 %
1033 25-03-2021 04:01:17 9.6 C 66 %
1034 25-03-2021 04:11:17 9.6 C 66 %
1035 25-03-2021 04:21:17 9.6 C 66 %
1036 25-03-2021 04:31:17 9.6 C 66 %
1037 25-03-2021 04:41:18 9.6 C 67 %
1038 25-03-2021 04:51:17 9.6 C 67 %
1039 25-03-2021 05:01:17 9.6 C 67 %
1040 25-03-2021 05:11:17 9.6 C 67 %
1041 25-03-2021 05:21:18 9.6 C 67 %
1042 25-03-2021 05:31:18 9.6 C 67 %
1043 25-03-2021 05:41:18 9.6 C 67 %
1044 25-03-2021 05:51:18 9.5 C 68 %
1045 25-03-2021 06:01:18 9.5 C 68 %
1046 25-03-2021 06:11:18 9.5 C 68 %
1047 25-03-2021 06:21:17 9.5 C 68 %
1048 25-03-2021 06:31:17 9.5 C 68 %
1049 25-03-2021 06:41:17 9.5 C 68 %
1050 25-03-2021 06:51:17 9.5 C 68 %
Sensor: Nr:Datum:Temp:Feuchte:
G-T/H 1051 25-03-2021 07:01:17 9.4 C 68 %
1052 25-03-2021 07:11:17 9.4 C 68 %
1053 25-03-2021 07:21:18 9.4 C 68 %
1054 25-03-2021 07:31:17 9.4 C 68 %
1055 25-03-2021 07:41:17 9.4 C 68 %
1056 25-03-2021 07:52:17 9.4 C 68 %
1057 25-03-2021 08:01:18 9.4 C 68 %
1058 25-03-2021 08:11:18 9.4 C 68 %
1059 25-03-2021 08:21:18 9.4 C 68 %
1060 25-03-2021 08:31:17 9.4 C 68 %
1061 25-03-2021 08:41:17 9.4 C 68 %
1062 25-03-2021 08:51:17 9.4 C 68 %
1063 25-03-2021 09:01:18 9.3 C 69 %
1064 25-03-2021 09:11:18 9.3 C 69 %
1065 25-03-2021 09:21:18 9.3 C 69 %
1066 25-03-2021 09:32:17 9.3 C 69 %
1067 25-03-2021 09:42:17 9.3 C 69 %
1068 25-03-2021 09:51:18 9.3 C 69 %
1069 25-03-2021 10:01:17 9.3 C 69 %
1070 25-03-2021 10:11:17 9.3 C 69 %
1071 25-03-2021 10:21:17 9.3 C 69 %
1072 25-03-2021 10:31:17 9.3 C 69 %
1073 25-03-2021 10:41:17 9.4 C 69 %
1074 25-03-2021 10:51:17 9.4 C 69 %
1075 25-03-2021 11:01:17 9.4 C 69 %
Sensor: Nr:Datum:Temp:Feuchte:
G-T/H 1076 25-03-2021 11:11:18 9.4 C 69 %
1077 25-03-2021 11:21:18 9.4 C 70 %
1078 25-03-2021 11:31:18 9.4 C 70 %
1079 25-03-2021 11:41:18 9.4 C 70 %
1080 25-03-2021 11:52:17 9.4 C 70 %
1081 25-03-2021 12:01:17 9.4 C 70 %
1082 25-03-2021 12:11:17 9.5 C 70 %
1083 25-03-2021 12:21:17 9.5 C 70 %
1084 25-03-2021 12:31:18 9.5 C 70 %
1085 25-03-2021 12:41:18 9.5 C 70 %
1086 25-03-2021 12:52:17 9.5 C 70 %
1087 25-03-2021 13:01:18 9.5 C 70 %
1088 25-03-2021 13:11:18 9.6 C 70 %
1089 25-03-2021 13:22:17 9.6 C 70 %
1090 25-03-2021 13:31:18 9.6 C 70 %
1091 25-03-2021 13:41:18 9.6 C 70 %
1092 25-03-2021 13:52:17 9.6 C 70 %
1093 25-03-2021 14:01:18 9.7 C 70 %
1094 25-03-2021 14:11:18 9.7 C 70 %
1095 25-03-2021 14:22:17 9.7 C 70 %
1096 25-03-2021 14:31:18 9.7 C 71 %
1097 25-03-2021 14:41:18 9.8 C 71 %
1098 25-03-2021 14:51:18 9.8 C 71 %
1099 25-03-2021 15:02:17 9.9 C 71 %
1100 25-03-2021 15:12:17 9.9 C 71 %
Sensor: Nr:Datum:Temp:Feuchte:
G-T/H 1101 25-03-2021 15:22:17 9.9 C 71 %
1102 25-03-2021 15:31:18 9.9 C 71 %
1103 25-03-2021 15:41:18 10 C 70 %
1104 25-03-2021 15:52:17 10 C 70 %
1105 25-03-2021 16:02:18 10 C 70 %
1106 25-03-2021 16:11:18 10 C 70 %
1107 25-03-2021 16:21:18 10 C 70 %
1108 25-03-2021 16:31:18 10 C 70 %
1109 25-03-2021 16:41:18 10.1 C 70 %
1110 25-03-2021 16:51:18 10.1 C 70 %
1111 25-03-2021 17:02:17 10.1 C 70 %
1112 25-03-2021 17:12:17 10.1 C 70 %
1113 25-03-2021 17:21:18 10.2 C 70 %
1114 25-03-2021 17:32:17 10.1 C 70 %
1115 25-03-2021 17:42:18 10.2 C 70 %
1116 25-03-2021 17:52:17 10.2 C 70 %
1117 25-03-2021 18:02:18 10.2 C 70 %
1118 25-03-2021 18:11:18 10.2 C 70 %
1119 25-03-2021 18:22:17 10.2 C 70 %
1120 25-03-2021 18:32:18 10.2 C 70 %
1121 25-03-2021 18:42:18 10.2 C 70 %
1122 25-03-2021 18:52:17 10.3 C 70 %
1123 25-03-2021 19:02:17 10.3 C 70 %
1124 25-03-2021 19:12:17 10.3 C 71 %
1125 25-03-2021 19:22:17 10.3 C 71 %
Sensor: Nr:Datum:Temp:Feuchte:
G-T/H 1126 25-03-2021 19:32:18 10.3 C 71 %
1127 25-03-2021 19:42:18 10.4 C 71 %
1128 25-03-2021 19:52:17 10.4 C 71 %
1129 25-03-2021 20:02:18 10.4 C 71 %
1130 25-03-2021 20:11:18 10.4 C 71 %
1131 25-03-2021 20:22:17 10.4 C 71 %
1132 25-03-2021 20:32:18 10.4 C 71 %
1133 25-03-2021 20:42:18 10.4 C 71 %
1134 25-03-2021 20:51:18 10.4 C 71 %
1135 25-03-2021 21:02:17 10.4 C 71 %
1136 25-03-2021 21:12:18 10.4 C 71 %
1137 25-03-2021 21:21:18 10.5 C 71 %
1138 25-03-2021 21:32:17 10.5 C 71 %
1139 25-03-2021 21:42:17 10.5 C 71 %
1140 25-03-2021 21:52:18 10.5 C 71 %
1141 25-03-2021 22:01:18 10.4 C 71 %
1142 25-03-2021 22:11:18 10.5 C 71 %
1143 25-03-2021 22:22:18 10.5 C 71 %
1144 25-03-2021 22:32:17 10.5 C 71 %
1145 25-03-2021 22:42:17 10.5 C 71 %
1146 25-03-2021 22:52:18 10.5 C 71 %
1147 25-03-2021 23:02:17 10.5 C 71 %
1148 25-03-2021 23:12:17 10.5 C 71 %
1149 25-03-2021 23:22:18 10.5 C 71 %
1150 25-03-2021 23:32:17 10.5 C 71 %
Sensor: Nr:Datum:Temp:Feuchte:
G-T/H 1151 25-03-2021 23:42:18 10.5 C 71 %
1152 25-03-2021 23:52:18 10.5 C 71 %
1153 26-03-2021 00:02:18 10.5 C 71 %
1154 26-03-2021 00:12:18 10.5 C 71 %
1155 26-03-2021 00:22:18 10.5 C 71 %
1156 26-03-2021 00:32:17 10.5 C 71 %
1157 26-03-2021 00:42:18 10.5 C 71 %
1158 26-03-2021 00:52:18 10.5 C 71 %
1159 26-03-2021 01:02:18 10.4 C 71 %
1160 26-03-2021 01:12:18 10.5 C 71 %
1161 26-03-2021 01:21:18 10.5 C 71 %
1162 26-03-2021 01:32:17 10.5 C 71 %
1163 26-03-2021 01:42:17 10.5 C 71 %
1164 26-03-2021 01:52:18 10.4 C 71 %
1165 26-03-2021 02:02:18 10.4 C 71 %
1166 26-03-2021 02:12:19 10.5 C 71 %
1167 26-03-2021 02:22:18 10.4 C 71 %
1168 26-03-2021 02:32:18 10.4 C 71 %
1169 26-03-2021 02:42:19 10.4 C 71 %
1170 26-03-2021 02:52:18 10.4 C 71 %
1171 26-03-2021 03:02:17 10.4 C 71 %
1172 26-03-2021 03:12:18 10.4 C 72 %
1173 26-03-2021 03:22:18 10.4 C 72 %
1174 26-03-2021 03:32:18 10.4 C 71 %
1175 26-03-2021 03:42:18 10.4 C 71 %
Sensor: Nr:Datum:Temp:Feuchte:
G-T/H 1176 26-03-2021 03:52:17 10.4 C 71 %
1177 26-03-2021 04:02:17 10.4 C 71 %
1178 26-03-2021 04:12:17 10.4 C 72 %
1179 26-03-2021 04:22:18 10.4 C 72 %
1180 26-03-2021 04:32:17 10.4 C 72 %
1181 26-03-2021 04:42:17 10.3 C 72 %
1182 26-03-2021 04:52:18 10.3 C 72 %
1183 26-03-2021 05:02:17 10.3 C 71 %
1184 26-03-2021 05:12:17 10.3 C 71 %
1185 26-03-2021 05:22:18 10.3 C 71 %
1186 26-03-2021 05:32:17 10.3 C 71 %
1187 26-03-2021 05:42:17 10.2 C 71 %
1188 26-03-2021 05:52:18 10.2 C 71 %
1189 26-03-2021 06:02:18 10.2 C 71 %
1190 26-03-2021 06:12:18 10.1 C 71 %
1191 26-03-2021 06:22:18 10.2 C 71 %
1192 26-03-2021 06:32:17 10.1 C 71 %
1193 26-03-2021 06:42:17 10.1 C 70 %
1194 26-03-2021 06:52:18 10.1 C 70 %
1195 26-03-2021 07:02:17 10.1 C 70 %
1196 26-03-2021 07:12:17 10.1 C 70 %
1197 26-03-2021 07:22:17 10 C 69 %
1198 26-03-2021 07:32:18 10 C 69 %
1199 26-03-2021 07:42:18 10 C 69 %
1200 26-03-2021 07:52:17 10 C 69 %
Sensor: Nr:Datum:Temp:Feuchte:
G-T/H 1201 26-03-2021 08:02:17 10 C 69 %
1202 26-03-2021 08:12:17 10 C 69 %
1203 26-03-2021 08:22:18 10 C 70 %
1204 26-03-2021 08:32:17 10 C 70 %
1205 26-03-2021 08:42:17 10 C 70 %
1206 26-03-2021 08:52:18 10 C 70 %
1207 26-03-2021 09:02:18 10 C 70 %
1208 26-03-2021 09:12:18 10 C 70 %
1209 26-03-2021 09:22:17 9.9 C 71 %
1210 26-03-2021 09:32:18 10 C 70 %
1211 26-03-2021 09:42:18 10 C 70 %
1212 26-03-2021 09:52:18 10 C 70 %
1213 26-03-2021 10:02:18 9.9 C 71 %
1214 26-03-2021 10:12:18 10 C 70 %
1215 26-03-2021 10:22:18 10 C 70 %
1216 26-03-2021 10:32:17 10 C 70 %
1217 26-03-2021 10:42:17 10 C 70 %
1218 26-03-2021 10:52:18 10 C 71 %
1219 26-03-2021 11:02:17 10 C 71 %
1220 26-03-2021 11:12:17 10 C 71 %
1221 26-03-2021 11:22:18 10 C 71 %
1222 26-03-2021 11:32:18 10 C 71 %
1223 26-03-2021 11:42:18 10 C 71 %
1224 26-03-2021 11:52:17 10 C 71 %
1225 26-03-2021 12:02:17 10.1 C 71 %
Sensor: Nr:Datum:Temp:Feuchte:
G-T/H 1226 26-03-2021 12:12:18 10.1 C 71 %
1227 26-03-2021 12:22:18 10 C 71 %
1228 26-03-2021 12:32:18 10.1 C 71 %
1229 26-03-2021 12:42:18 10.1 C 71 %
1230 26-03-2021 12:52:17 10.1 C 71 %
1231 26-03-2021 13:02:17 10.1 C 71 %
1232 26-03-2021 13:12:17 10.2 C 71 %
1233 26-03-2021 13:22:17 10.2 C 71 %
1234 26-03-2021 13:32:18 10.2 C 71 %
1235 26-03-2021 13:42:18 10.2 C 71 %
1236 26-03-2021 13:52:18 10.2 C 71 %
1237 26-03-2021 14:02:18 10.2 C 71 %
1238 26-03-2021 14:12:18 10.3 C 71 %
1239 26-03-2021 14:22:18 10.3 C 71 %
1240 26-03-2021 14:32:17 10.3 C 71 %
1241 26-03-2021 14:42:17 11.4 C 66 %
1242 26-03-2021 14:52:17 12 C 59 %
1243 26-03-2021 15:02:18 12.2 C 57 %
1244 26-03-2021 15:12:18 12.5 C 56 %
1245 26-03-2021 15:22:18 12.6 C 54 %
1246 26-03-2021 15:32:17 12.8 C 53 %
1247 26-03-2021 15:42:17 12.8 C 54 %
1248 26-03-2021 15:52:18 12.8 C 54 %
1249 26-03-2021 16:02:17 13 C 52 %
1250 26-03-2021 16:12:17 13 C 52 %
Sensor: Nr:Datum:Temp:Feuchte:
G-T/H 1251 26-03-2021 16:22:18 13 C 52 %
1252 26-03-2021 16:32:18 13.1 C 52 %
1253 26-03-2021 16:42:18 13.2 C 51 %
1254 26-03-2021 16:52:18 13.2 C 51 %
1255 26-03-2021 17:02:18 13.2 C 51 %
1256 26-03-2021 17:12:18 13.1 C 51 %
1257 26-03-2021 17:22:18 13.1 C 51 %
1258 26-03-2021 17:32:17 13.1 C 51 %
1259 26-03-2021 17:42:17 13.2 C 51 %
1260 26-03-2021 17:52:18 13.3 C 51 %
1261 26-03-2021 18:02:17 13.2 C 51 %
1262 26-03-2021 18:12:17 13.3 C 51 %
1263 26-03-2021 18:22:18 13.3 C 51 %
1264 26-03-2021 18:32:18 13.2 C 51 %
1265 26-03-2021 18:42:18 13.1 C 52 %
1266 26-03-2021 18:52:17 12.8 C 53 %
1267 26-03-2021 19:02:17 12.6 C 54 %
1268 26-03-2021 19:12:17 12.5 C 55 %
1269 26-03-2021 19:22:18 12.3 C 56 %
1270 26-03-2021 19:32:17 12.2 C 56 %
1271 26-03-2021 19:42:18 12.2 C 57 %
1272 26-03-2021 19:52:18 12.1 C 57 %
1273 26-03-2021 20:02:17 12.1 C 58 %
1274 26-03-2021 20:12:17 12.1 C 58 %
1275 26-03-2021 20:22:17 12 C 59 %
Sensor: Nr:Datum:Temp:Feuchte:
G-T/H 1276 26-03-2021 20:32:17 12 C 59 %
1277 26-03-2021 20:42:18 12 C 60 %
1278 26-03-2021 20:52:17 12 C 60 %
1279 26-03-2021 21:02:18 11.9 C 61 %
1280 26-03-2021 21:12:18 11.9 C 62 %
1281 26-03-2021 21:22:18 11.9 C 62 %
1282 26-03-2021 21:32:17 11.9 C 62 %
1283 26-03-2021 21:42:17 11.8 C 62 %
1284 26-03-2021 21:52:17 11.8 C 63 %
1285 26-03-2021 22:02:17 11.8 C 63 %
1286 26-03-2021 22:12:17 11.8 C 63 %
1287 26-03-2021 22:22:18 11.7 C 63 %
1288 26-03-2021 22:32:18 11.8 C 63 %
1289 26-03-2021 22:42:18 11.8 C 64 %
1290 26-03-2021 22:52:18 11.7 C 64 %
1291 26-03-2021 23:02:18 11.7 C 64 %
1292 26-03-2021 23:12:18 11.7 C 64 %
1293 26-03-2021 23:22:17 11.7 C 64 %
1294 26-03-2021 23:32:17 11.7 C 64 %
1295 26-03-2021 23:42:17 11.7 C 65 %
1296 26-03-2021 23:52:18 11.6 C 65 %
1297 27-03-2021 00:02:18 11.7 C 65 %
1298 27-03-2021 00:12:18 11.6 C 65 %
1299 27-03-2021 00:22:18 11.6 C 65 %
1300 27-03-2021 00:32:17 11.6 C 65 %
Sensor: Nr:Datum:Temp:Feuchte:
G-T/H 1301 27-03-2021 00:42:17 11.6 C 65 %
1302 27-03-2021 00:52:18 11.6 C 65 %
1303 27-03-2021 01:02:18 11.5 C 66 %
1304 27-03-2021 01:12:18 11.5 C 66 %
1305 27-03-2021 01:22:17 11.6 C 66 %
1306 27-03-2021 01:32:17 11.6 C 66 %
1307 27-03-2021 01:42:18 11.6 C 66 %
1308 27-03-2021 01:52:18 11.6 C 66 %
1309 27-03-2021 02:02:18 11.5 C 66 %
1310 27-03-2021 02:12:18 11.5 C 66 %
1311 27-03-2021 02:22:17 11.5 C 66 %
1312 27-03-2021 02:32:17 11.5 C 66 %
1313 27-03-2021 02:42:17 11.5 C 66 %
1314 27-03-2021 02:52:17 11.5 C 67 %
1315 27-03-2021 03:02:18 11.5 C 67 %
1316 27-03-2021 03:12:18 11.5 C 67 %
1317 27-03-2021 03:22:17 11.4 C 67 %
1318 27-03-2021 03:32:18 11.5 C 67 %
1319 27-03-2021 03:42:18 11.4 C 67 %
1320 27-03-2021 03:52:17 11.4 C 67 %
1321 27-03-2021 04:02:18 11.4 C 67 %
1322 27-03-2021 04:12:18 11.4 C 67 %
1323 27-03-2021 04:22:17 11.4 C 67 %
1324 27-03-2021 04:32:17 11.4 C 67 %
1325 27-03-2021 04:42:17 11.3 C 67 %
Sensor: Nr:Datum:Temp:Feuchte:
G-T/H 1326 27-03-2021 04:52:17 11.3 C 67 %
1327 27-03-2021 05:02:18 11.3 C 67 %
1328 27-03-2021 05:12:18 11.3 C 67 %
1329 27-03-2021 05:22:17 11.3 C 67 %
1330 27-03-2021 05:32:17 11.2 C 67 %
1331 27-03-2021 05:42:18 11.2 C 67 %
1332 27-03-2021 05:52:17 11.1 C 66 %
1333 27-03-2021 06:02:17 11.1 C 66 %
1334 27-03-2021 06:12:17 11.1 C 65 %
1335 27-03-2021 06:22:18 11.1 C 65 %
1336 27-03-2021 06:32:17 11 C 64 %
1337 27-03-2021 06:42:18 11 C 64 %
1338 27-03-2021 06:52:18 11 C 64 %
1339 27-03-2021 07:02:17 11 C 64 %
1340 27-03-2021 07:12:17 11 C 63 %
1341 27-03-2021 07:22:18 11 C 63 %
1342 27-03-2021 07:32:17 11 C 64 %
1343 27-03-2021 07:42:17 11 C 64 %
1344 27-03-2021 07:52:17 11 C 64 %
1345 27-03-2021 08:02:18 10.9 C 65 %
1346 27-03-2021 08:12:18 10.9 C 65 %
1347 27-03-2021 08:22:17 10.9 C 65 %
1348 27-03-2021 08:32:17 10.9 C 65 %
1349 27-03-2021 08:42:17 10.9 C 65 %
1350 27-03-2021 08:52:18 10.9 C 66 %
Sensor: Nr:Datum:Temp:Feuchte:
G-T/H 1351 27-03-2021 09:02:17 10.9 C 66 %
1352 27-03-2021 09:12:17 10.9 C 66 %
1353 27-03-2021 09:22:18 10.9 C 66 %
1354 27-03-2021 09:32:18 10.9 C 66 %
1355 27-03-2021 09:42:18 10.9 C 66 %
1356 27-03-2021 09:52:18 10.9 C 66 %
1357 27-03-2021 10:02:17 10.9 C 66 %
1358 27-03-2021 10:12:17 10.8 C 66 %
1359 27-03-2021 10:22:18 10.8 C 66 %
1360 27-03-2021 10:32:18 10.7 C 65 %
1361 27-03-2021 10:42:18 10.7 C 64 %
1362 27-03-2021 10:52:17 10.7 C 64 %
1363 27-03-2021 11:02:17 10.7 C 65 %
1364 27-03-2021 11:12:17 10.7 C 65 %
1365 27-03-2021 11:22:17 10.7 C 65 %
1366 27-03-2021 11:32:17 10.7 C 65 %
1367 27-03-2021 11:42:17 10.8 C 65 %
1368 27-03-2021 11:52:17 10.8 C 66 %
1369 27-03-2021 12:02:18 10.8 C 66 %
1370 27-03-2021 12:12:18 10.8 C 66 %
1371 27-03-2021 12:22:17 10.8 C 66 %
1372 27-03-2021 12:32:17 10.8 C 66 %
1373 27-03-2021 12:42:17 10.8 C 66 %
1374 27-03-2021 12:52:18 10.8 C 66 %
1375 27-03-2021 13:02:18 10.8 C 66 %
Sensor: Nr:Datum:Temp:Feuchte:
G-T/H 1376 27-03-2021 13:12:18 10.8 C 67 %
1377 27-03-2021 13:22:17 10.7 C 67 %
1378 27-03-2021 13:32:18 10.8 C 67 %
1379 27-03-2021 13:42:18 10.7 C 67 %
1380 27-03-2021 13:52:18 10.7 C 67 %
1381 27-03-2021 14:02:18 10.7 C 67 %
1382 27-03-2021 14:12:18 10.7 C 67 %
1383 27-03-2021 14:22:18 10.7 C 67 %
1384 27-03-2021 14:32:18 10.7 C 67 %
1385 27-03-2021 14:42:18 10.7 C 67 %
1386 27-03-2021 14:52:18 10.7 C 67 %
1387 27-03-2021 15:02:18 10.7 C 67 %
1388 27-03-2021 15:12:18 10.7 C 67 %
1389 27-03-2021 15:22:17 10.7 C 67 %
1390 27-03-2021 15:32:17 10.7 C 67 %
1391 27-03-2021 15:42:17 10.7 C 67 %
1392 27-03-2021 15:52:17 10.7 C 67 %
1393 27-03-2021 16:02:17 10.7 C 67 %
1394 27-03-2021 16:12:17 10.7 C 67 %
1395 27-03-2021 16:22:18 10.7 C 66 %
1396 27-03-2021 16:32:18 10.7 C 66 %
1397 27-03-2021 16:42:18 10.7 C 66 %
1398 27-03-2021 16:52:18 10.7 C 66 %
1399 27-03-2021 17:02:18 10.7 C 66 %
1400 27-03-2021 17:12:18 10.7 C 66 %
Sensor: Nr:Datum:Temp:Feuchte:
G-T/H 1401 27-03-2021 17:22:17 10.7 C 66 %
1402 27-03-2021 17:32:18 10.7 C 66 %
1403 27-03-2021 17:42:18 10.7 C 66 %
1404 27-03-2021 17:52:19 10.7 C 66 %
1405 27-03-2021 18:02:18 10.7 C 66 %
1406 27-03-2021 18:12:18 10.7 C 66 %
1407 27-03-2021 18:22:17 10.6 C 67 %
1408 27-03-2021 18:32:18 10.6 C 67 %
1409 27-03-2021 18:42:18 10.6 C 67 %
1410 27-03-2021 18:52:18 10.6 C 67 %
1411 27-03-2021 19:02:18 10.6 C 67 %
1412 27-03-2021 19:12:18 10.6 C 67 %
1413 27-03-2021 19:22:18 10.5 C 67 %
1414 27-03-2021 19:32:18 10.5 C 67 %
1415 27-03-2021 19:42:18 10.5 C 67 %
1416 27-03-2021 19:52:17 10.5 C 67 %
1417 27-03-2021 20:02:18 10.5 C 67 %
1418 27-03-2021 20:12:18 10.5 C 67 %
1419 27-03-2021 20:22:17 10.5 C 67 %
1420 27-03-2021 20:32:17 10.5 C 67 %
1421 27-03-2021 20:42:17 10.5 C 67 %
1422 27-03-2021 20:52:17 10.4 C 67 %
1423 27-03-2021 21:02:17 10.5 C 67 %
1424 27-03-2021 21:12:17 10.4 C 67 %
1425 27-03-2021 21:22:18 10.4 C 67 %
Sensor: Nr:Datum:Temp:Feuchte:
G-T/H 1426 27-03-2021 21:32:18 10.4 C 67 %
1427 27-03-2021 21:42:18 10.4 C 68 %
1428 27-03-2021 21:52:18 10.4 C 68 %
1429 27-03-2021 22:02:17 10.4 C 68 %
1430 27-03-2021 22:12:17 10.4 C 68 %
1431 27-03-2021 22:22:18 10.4 C 68 %
1432 27-03-2021 22:32:17 10.3 C 68 %
1433 27-03-2021 22:42:17 10.3 C 68 %
1434 27-03-2021 22:52:17 10.3 C 68 %
1435 27-03-2021 23:02:18 10.3 C 68 %
1436 27-03-2021 23:12:18 10.3 C 68 %
1437 27-03-2021 23:22:18 10.2 C 68 %
1438 27-03-2021 23:32:17 10.2 C 67 %
1439 27-03-2021 23:42:17 10.2 C 67 %
1440 27-03-2021 23:52:18 10.2 C 67 %
1441 28-03-2021 00:02:17 10.2 C 67 %
1442 28-03-2021 00:12:17 10.1 C 67 %
1443 28-03-2021 00:22:17 10.1 C 67 %
1444 28-03-2021 00:32:17 10.1 C 67 %
1445 28-03-2021 00:42:17 10.1 C 67 %
1446 28-03-2021 00:52:18 10.1 C 67 %
1447 28-03-2021 01:02:17 10.1 C 67 %
1448 28-03-2021 01:12:17 10 C 67 %
1449 28-03-2021 01:22:17 10 C 67 %
1450 28-03-2021 01:32:17 10 C 67 %
Sensor: Nr:Datum:Temp:Feuchte:
G-T/H 1451 28-03-2021 01:42:17 10 C 67 %
1452 28-03-2021 01:52:17 10 C 67 %
1453 28-03-2021 02:02:17 10 C 67 %
1454 28-03-2021 02:12:17 10 C 67 %
1455 28-03-2021 02:22:17 10 C 67 %
1456 28-03-2021 02:32:17 10 C 67 %
1457 28-03-2021 02:42:18 10 C 67 %
1458 28-03-2021 02:52:18 9.9 C 68 %
1459 28-03-2021 04:02:18 9.9 C 68 %
1460 28-03-2021 04:12:18 10 C 67 %
1461 28-03-2021 04:22:18 9.9 C 68 %
1462 28-03-2021 04:32:17 9.9 C 68 %
1463 28-03-2021 04:42:17 9.9 C 68 %
1464 28-03-2021 04:52:18 9.8 C 68 %
1465 28-03-2021 05:02:17 9.8 C 68 %
1466 28-03-2021 05:12:17 9.8 C 69 %
1467 28-03-2021 05:22:17 9.8 C 69 %
1468 28-03-2021 05:32:18 9.8 C 69 %
1469 28-03-2021 05:42:18 9.7 C 69 %
1470 28-03-2021 05:52:18 9.7 C 69 %
1471 28-03-2021 06:02:17 9.7 C 69 %
1472 28-03-2021 06:12:18 9.7 C 69 %
1473 28-03-2021 06:22:17 9.7 C 69 %
1474 28-03-2021 06:32:17 9.7 C 69 %
1475 28-03-2021 06:42:17 9.7 C 69 %
Sensor: Nr:Datum:Temp:Feuchte:
G-T/H 1476 28-03-2021 06:52:17 9.7 C 69 %
1477 28-03-2021 07:02:18 9.7 C 69 %
1478 28-03-2021 07:12:18 9.6 C 69 %
1479 28-03-2021 07:22:17 9.6 C 69 %
1480 28-03-2021 07:32:18 9.6 C 69 %
1481 28-03-2021 07:42:18 9.6 C 69 %
1482 28-03-2021 07:52:18 9.6 C 69 %
1483 28-03-2021 08:02:17 9.6 C 69 %
1484 28-03-2021 08:12:18 9.6 C 69 %
1485 28-03-2021 08:22:17 9.6 C 69 %
1486 28-03-2021 08:32:18 9.6 C 69 %
1487 28-03-2021 08:42:18 9.6 C 69 %
1488 28-03-2021 08:52:18 9.6 C 69 %
1489 28-03-2021 09:02:17 9.6 C 69 %
1490 28-03-2021 09:12:17 9.6 C 69 %
1491 28-03-2021 09:22:18 9.6 C 69 %
1492 28-03-2021 09:32:18 9.6 C 69 %
1493 28-03-2021 09:42:18 9.6 C 69 %
1494 28-03-2021 09:52:18 9.6 C 69 %
1495 28-03-2021 10:02:17 9.6 C 69 %
1496 28-03-2021 10:12:18 9.6 C 69 %
1497 28-03-2021 10:22:18 9.5 C 69 %
1498 28-03-2021 10:32:17 9.5 C 69 %
1499 28-03-2021 10:42:17 9.5 C 69 %
1500 28-03-2021 10:52:17 9.6 C 69 %
Sensor: Nr:Datum:Temp:Feuchte:
G-T/H 1501 28-03-2021 11:02:17 9.6 C 69 %
1502 28-03-2021 11:12:17 9.6 C 69 %
1503 28-03-2021 11:22:17 9.6 C 69 %
1504 28-03-2021 11:32:17 9.6 C 69 %
1505 28-03-2021 11:42:17 9.6 C 70 %
1506 28-03-2021 11:52:17 9.6 C 70 %
1507 28-03-2021 12:02:18 9.6 C 70 %
1508 28-03-2021 12:12:18 9.6 C 70 %
1509 28-03-2021 12:22:18 9.7 C 70 %
1510 28-03-2021 12:32:18 9.7 C 69 %
1511 28-03-2021 12:42:18 9.7 C 69 %
1512 28-03-2021 12:52:17 9.6 C 69 %
1513 28-03-2021 13:02:17 9.7 C 69 %
1514 28-03-2021 13:12:17 9.7 C 69 %
1515 28-03-2021 13:22:18 9.7 C 69 %
1516 28-03-2021 13:32:18 9.7 C 69 %
1517 28-03-2021 13:42:18 9.7 C 69 %
1518 28-03-2021 13:52:18 9.8 C 69 %
1519 28-03-2021 14:02:18 9.7 C 69 %
1520 28-03-2021 14:12:18 9.8 C 69 %
1521 28-03-2021 14:22:18 9.8 C 69 %
1522 28-03-2021 14:32:18 9.8 C 69 %
1523 28-03-2021 14:42:18 9.8 C 69 %
1524 28-03-2021 14:52:18 9.9 C 69 %
1525 28-03-2021 15:02:18 10 C 68 %
Sensor: Nr:Datum:Temp:Feuchte:
G-T/H 1526 28-03-2021 15:12:18 10 C 68 %
1527 28-03-2021 15:22:18 9.9 C 69 %
1528 28-03-2021 15:32:18 10 C 68 %
1529 28-03-2021 15:42:18 10 C 68 %
1530 28-03-2021 15:52:18 10 C 68 %
1531 28-03-2021 16:02:18 10 C 68 %
1532 28-03-2021 16:12:18 10.1 C 68 %
1533 28-03-2021 16:22:18 10.1 C 68 %
1534 28-03-2021 16:32:17 10.1 C 68 %
1535 28-03-2021 16:42:18 10.1 C 68 %
1536 28-03-2021 16:52:17 10.2 C 68 %
1537 28-03-2021 17:02:18 10.2 C 68 %
1538 28-03-2021 17:12:18 10.2 C 68 %
1539 28-03-2021 17:22:18 10.2 C 68 %
1540 28-03-2021 17:32:18 10.2 C 68 %
1541 28-03-2021 17:42:18 10.3 C 68 %
1542 28-03-2021 17:52:18 10.3 C 68 %
1543 28-03-2021 18:02:17 10.3 C 68 %
1544 28-03-2021 18:12:17 10.4 C 68 %
1545 28-03-2021 18:22:17 10.4 C 68 %
1546 28-03-2021 18:32:17 10.4 C 68 %
1547 28-03-2021 18:42:17 10.4 C 68 %
1548 28-03-2021 18:52:17 10.5 C 68 %
1549 28-03-2021 19:02:18 10.5 C 68 %
1550 28-03-2021 19:12:18 10.5 C 68 %
Sensor: Nr:Datum:Temp:Feuchte:
G-T/H 1551 28-03-2021 19:22:18 10.5 C 68 %
1552 28-03-2021 19:32:18 10.5 C 68 %
1553 28-03-2021 19:42:18 10.5 C 68 %
1554 28-03-2021 19:52:18 10.5 C 68 %
1555 28-03-2021 20:02:18 10.5 C 69 %
1556 28-03-2021 20:12:18 10.5 C 69 %
1557 28-03-2021 20:22:17 10.5 C 69 %
1558 28-03-2021 20:32:18 10.5 C 69 %
1559 28-03-2021 20:42:18 10.5 C 69 %
1560 28-03-2021 20:52:17 10.6 C 69 %
1561 28-03-2021 21:02:18 10.6 C 69 %
1562 28-03-2021 21:12:18 10.6 C 69 %
1563 28-03-2021 21:22:17 10.6 C 69 %
1564 28-03-2021 21:32:17 10.6 C 69 %
1565 28-03-2021 21:42:17 10.6 C 69 %
1566 28-03-2021 21:52:18 10.6 C 69 %
1567 28-03-2021 22:02:17 10.7 C 69 %
1568 28-03-2021 22:12:18 10.6 C 69 %
1569 28-03-2021 22:22:18 10.6 C 69 %
1570 28-03-2021 22:32:18 10.7 C 69 %
1571 28-03-2021 22:42:18 10.7 C 69 %
1572 28-03-2021 22:52:18 10.7 C 69 %
1573 28-03-2021 23:02:18 10.7 C 69 %
1574 28-03-2021 23:12:18 10.7 C 69 %
1575 28-03-2021 23:22:18 10.7 C 69 %
Sensor: Nr:Datum:Temp:Feuchte:
G-T/H 1576 28-03-2021 23:32:18 10.7 C 69 %
1577 28-03-2021 23:42:18 10.7 C 70 %
1578 28-03-2021 23:52:17 10.7 C 70 %
1579 29-03-2021 00:02:17 10.7 C 70 %
1580 29-03-2021 00:12:17 10.7 C 70 %
1581 29-03-2021 00:22:17 10.7 C 70 %
1582 29-03-2021 00:32:17 10.7 C 70 %
1583 29-03-2021 00:42:17 10.7 C 70 %
1584 29-03-2021 00:52:17 10.7 C 70 %
1585 29-03-2021 01:02:17 10.7 C 70 %
1586 29-03-2021 01:12:18 10.7 C 70 %
1587 29-03-2021 01:22:17 10.7 C 70 %
1588 29-03-2021 01:32:17 10.7 C 70 %
1589 29-03-2021 01:42:17 10.7 C 70 %
1590 29-03-2021 01:52:18 10.7 C 70 %
1591 29-03-2021 02:02:17 10.7 C 70 %
1592 29-03-2021 02:12:17 10.6 C 70 %
1593 29-03-2021 02:22:17 10.6 C 70 %
1594 29-03-2021 02:32:17 10.7 C 70 %
1595 29-03-2021 02:42:17 10.6 C 70 %
1596 29-03-2021 02:52:17 10.7 C 70 %
1597 29-03-2021 03:02:18 10.7 C 70 %
1598 29-03-2021 03:12:18 10.7 C 70 %
1599 29-03-2021 03:22:17 10.6 C 70 %
1600 29-03-2021 03:32:17 10.6 C 70 %
Sensor: Nr:Datum:Temp:Feuchte:
G-T/H 1601 29-03-2021 03:42:17 10.6 C 70 %
1602 29-03-2021 03:52:17 10.6 C 70 %
1603 29-03-2021 04:02:17 10.6 C 70 %
1604 29-03-2021 04:12:18 10.5 C 70 %
1605 29-03-2021 04:22:17 10.5 C 69 %
1606 29-03-2021 04:32:17 10.5 C 69 %
1607 29-03-2021 04:42:18 10.5 C 69 %
1608 29-03-2021 04:52:17 10.4 C 69 %
1609 29-03-2021 05:02:17 10.4 C 68 %
1610 29-03-2021 05:12:18 10.4 C 68 %
1611 29-03-2021 05:22:18 10.4 C 68 %
1612 29-03-2021 05:32:17 10.3 C 68 %
1613 29-03-2021 05:42:18 10.3 C 67 %
1614 29-03-2021 05:52:17 10.3 C 67 %
1615 29-03-2021 06:02:17 10.3 C 67 %
1616 29-03-2021 06:12:17 10.2 C 67 %
1617 29-03-2021 06:22:17 10.2 C 67 %
1618 29-03-2021 06:32:18 10.2 C 66 %
1619 29-03-2021 06:42:18 10.2 C 66 %
1620 29-03-2021 06:52:18 10.2 C 66 %
1621 29-03-2021 07:02:18 10.2 C 66 %
1622 29-03-2021 07:12:18 10.2 C 66 %
1623 29-03-2021 07:22:18 10.1 C 66 %
1624 29-03-2021 07:32:18 10.1 C 66 %
1625 29-03-2021 07:42:18 10.1 C 66 %
Sensor: Nr:Datum:Temp:Feuchte:
G-T/H 1626 29-03-2021 07:52:18 10.1 C 66 %
1627 29-03-2021 08:02:18 10.1 C 66 %
1628 29-03-2021 08:12:18 10.1 C 66 %
1629 29-03-2021 08:22:18 10.1 C 67 %
1630 29-03-2021 08:32:18 10.1 C 67 %
1631 29-03-2021 08:42:18 10.1 C 67 %
1632 29-03-2021 08:52:18 10 C 67 %
1633 29-03-2021 09:02:18 10 C 67 %
1634 29-03-2021 09:12:18 10 C 67 %
1635 29-03-2021 09:22:17 10 C 67 %
1636 29-03-2021 09:32:18 10 C 67 %
1637 29-03-2021 09:42:18 10 C 67 %
1638 29-03-2021 09:52:18 10 C 67 %
1639 29-03-2021 10:02:17 10 C 67 %
1640 29-03-2021 10:12:17 10 C 67 %
1641 29-03-2021 10:22:17 10 C 67 %
1642 29-03-2021 10:32:17 10 C 67 %
1643 29-03-2021 10:42:18 10 C 68 %
1644 29-03-2021 10:52:18 10 C 68 %
1645 29-03-2021 11:02:18 10 C 68 %
1646 29-03-2021 11:12:18 10 C 68 %
1647 29-03-2021 11:22:18 10 C 68 %
1648 29-03-2021 11:32:18 10 C 68 %
1649 29-03-2021 11:42:18 10 C 68 %
1650 29-03-2021 11:52:18 10 C 68 %
Sensor: Nr:Datum:Temp:Feuchte:
G-T/H 1651 29-03-2021 12:02:18 10 C 68 %
1652 29-03-2021 12:12:18 10.1 C 68 %
1653 29-03-2021 12:22:18 10.1 C 68 %
1654 29-03-2021 12:32:17 10.1 C 68 %
1655 29-03-2021 12:42:17 10.1 C 68 %
1656 29-03-2021 12:52:18 10.1 C 68 %
1657 29-03-2021 13:02:18 10.1 C 68 %
1658 29-03-2021 13:12:18 10.2 C 68 %
1659 29-03-2021 13:22:17 10.2 C 68 %
1660 29-03-2021 13:32:17 10.2 C 68 %
1661 29-03-2021 13:42:17 10.2 C 68 %
1662 29-03-2021 13:52:17 10.2 C 68 %
1663 29-03-2021 14:02:18 10.3 C 68 %
1664 29-03-2021 14:12:18 10.3 C 68 %
1665 29-03-2021 14:22:17 10.3 C 68 %
1666 29-03-2021 14:32:18 10.4 C 68 %
1667 29-03-2021 14:42:18 10.4 C 68 %
1668 29-03-2021 14:52:18 10.4 C 68 %
1669 29-03-2021 15:02:17 10.5 C 68 %
1670 29-03-2021 15:12:17 10.5 C 68 %
1671 29-03-2021 15:22:17 10.5 C 68 %
1672 29-03-2021 15:32:18 10.5 C 68 %
1673 29-03-2021 15:42:18 10.6 C 68 %
1674 29-03-2021 15:52:18 10.6 C 68 %
1675 29-03-2021 16:02:18 10.6 C 68 %
Sensor: Nr:Datum:Temp:Feuchte:
G-T/H 1676 29-03-2021 16:12:18 12.6 C 68 %
1677 29-03-2021 16:22:18 13.7 C 66 %
1678 29-03-2021 16:32:17 14.2 C 64 %
1679 29-03-2021 16:42:17 14.6 C 62 %
1680 29-03-2021 16:52:18 14.7 C 60 %
1681 29-03-2021 17:02:17 14.9 C 58 %
1682 29-03-2021 17:12:17 15.1 C 56 %
1683 29-03-2021 17:22:18 15.2 C 54 %
1684 29-03-2021 17:32:17 15.6 C 52 %
1685 29-03-2021 17:42:17 15.7 C 50 %
1686 29-03-2021 18:02:17 15.9 C 37 %
1687 29-03-2021 18:12:17 16.1 C 36 %
1688 29-03-2021 18:22:18 16.2 C 37 %
1689 29-03-2021 18:32:18 16.3 C 36 %
1690 29-03-2021 18:42:18 16.4 C 37 %
1691 29-03-2021 18:52:18 16.4 C 37 %
1692 29-03-2021 19:02:18 16.4 C 38 %
1693 29-03-2021 19:12:18 16.2 C 40 %
1694 29-03-2021 19:22:17 15.9 C 41 %
1695 29-03-2021 19:32:17 15.6 C 42 %
1696 29-03-2021 19:42:18 15.2 C 43 %
1697 29-03-2021 19:52:18 14.9 C 45 %
1698 29-03-2021 20:02:18 14.6 C 46 %
1699 29-03-2021 20:12:18 14.2 C 47 %
1700 29-03-2021 20:22:17 14 C 48 %
Sensor: Nr:Datum:Temp:Feuchte:
G-T/H 1701 29-03-2021 20:32:17 13.9 C 50 %
1702 29-03-2021 20:42:18 13.7 C 51 %
1703 29-03-2021 20:52:17 13.7 C 52 %
1704 29-03-2021 21:02:18 13.5 C 53 %
1705 29-03-2021 21:12:18 13.5 C 53 %
1706 29-03-2021 21:22:17 13.4 C 54 %
1707 29-03-2021 21:32:17 13.3 C 54 %
1708 29-03-2021 21:42:17 13.2 C 55 %
1709 29-03-2021 21:52:17 13.2 C 55 %
1710 29-03-2021 22:02:18 13.2 C 56 %
1711 29-03-2021 22:12:18 13.1 C 56 %
1712 29-03-2021 22:22:18 13.1 C 56 %
1713 29-03-2021 22:32:18 13 C 57 %
1714 29-03-2021 22:42:18 13 C 57 %
1715 29-03-2021 22:52:18 13 C 57 %
1716 29-03-2021 23:02:18 12.9 C 59 %
1717 29-03-2021 23:12:18 12.9 C 59 %
1718 29-03-2021 23:22:18 12.8 C 59 %
1719 29-03-2021 23:32:17 12.8 C 59 %
1720 29-03-2021 23:42:17 12.8 C 59 %
1721 29-03-2021 23:52:18 12.8 C 60 %
1722 30-03-2021 00:02:17 12.7 C 60 %
1723 30-03-2021 00:12:17 12.7 C 60 %
1724 30-03-2021 00:22:17 12.7 C 60 %
1725 30-03-2021 00:32:17 12.7 C 60 %
Sensor: Nr:Datum:Temp:Feuchte:
G-T/H 1726 30-03-2021 00:42:17 12.6 C 60 %
1727 30-03-2021 00:52:17 12.6 C 60 %
1728 30-03-2021 01:02:18 12.6 C 61 %
1729 30-03-2021 01:12:18 12.5 C 61 %
1730 30-03-2021 01:22:17 12.5 C 61 %
1731 30-03-2021 01:32:17 12.5 C 61 %
1732 30-03-2021 01:42:17 12.5 C 61 %
1733 30-03-2021 01:52:18 12.5 C 61 %
1734 30-03-2021 02:02:18 12.4 C 61 %
1735 30-03-2021 02:12:18 12.4 C 61 %
1736 30-03-2021 02:22:18 12.4 C 61 %
1737 30-03-2021 02:32:17 12.4 C 61 %
1738 30-03-2021 02:42:17 12.4 C 61 %
1739 30-03-2021 02:52:17 12.3 C 62 %
1740 30-03-2021 03:02:17 12.3 C 62 %
1741 30-03-2021 03:12:17 12.2 C 62 %
1742 30-03-2021 03:22:17 12.2 C 62 %
1743 30-03-2021 03:32:18 12.2 C 62 %
1744 30-03-2021 03:42:18 12.2 C 62 %
1745 30-03-2021 03:52:17 12.2 C 62 %
1746 30-03-2021 04:02:17 12.2 C 62 %
1747 30-03-2021 04:12:17 12.1 C 62 %
1748 30-03-2021 04:22:17 12.1 C 62 %
1749 30-03-2021 04:32:17 12 C 62 %
1750 30-03-2021 04:42:17 12 C 62 %
Sensor: Nr:Datum:Temp:Feuchte:
G-T/H 1751 30-03-2021 04:52:17 12 C 62 %
1752 30-03-2021 05:02:17 12 C 62 %
1753 30-03-2021 05:12:17 11.9 C 63 %
1754 30-03-2021 05:22:17 11.9 C 63 %
1755 30-03-2021 05:32:18 11.9 C 63 %
1756 30-03-2021 05:42:18 11.9 C 63 %
1757 30-03-2021 05:52:17 11.8 C 63 %
1758 30-03-2021 06:02:18 11.8 C 63 %
1759 30-03-2021 06:12:18 11.8 C 63 %
1760 30-03-2021 06:22:18 11.8 C 63 %
1761 30-03-2021 06:32:17 11.7 C 63 %
1762 30-03-2021 06:42:17 11.7 C 63 %
1763 30-03-2021 06:52:18 11.7 C 63 %
1764 30-03-2021 07:02:17 11.7 C 63 %
1765 30-03-2021 07:12:17 11.6 C 63 %
1766 30-03-2021 07:22:18 11.6 C 63 %
1767 30-03-2021 07:32:18 11.6 C 63 %
1768 30-03-2021 07:42:18 11.6 C 63 %
1769 30-03-2021 07:52:17 11.5 C 63 %
1770 30-03-2021 08:02:17 11.5 C 63 %
1771 30-03-2021 08:12:17 11.5 C 63 %
1772 30-03-2021 08:22:18 11.4 C 63 %
1773 30-03-2021 08:32:18 11.4 C 63 %
1774 30-03-2021 08:42:18 11.4 C 63 %
1775 30-03-2021 08:52:17 11.4 C 63 %
Sensor: Nr:Datum:Temp:Feuchte:
G-T/H 1776 30-03-2021 09:02:17 11.3 C 63 %
1777 30-03-2021 09:12:17 11.3 C 63 %
1778 30-03-2021 09:22:17 11.2 C 63 %
1779 30-03-2021 09:32:17 11.3 C 63 %
1780 30-03-2021 09:42:17 11.2 C 63 %
1781 30-03-2021 09:52:18 11.2 C 63 %
1782 30-03-2021 10:02:18 11.2 C 63 %
1783 30-03-2021 10:12:18 11.2 C 63 %
1784 30-03-2021 10:22:17 11.2 C 64 %
1785 30-03-2021 10:32:18 11.1 C 64 %
1786 30-03-2021 10:42:18 11.1 C 64 %
1787 30-03-2021 10:52:17 11.1 C 64 %
1788 30-03-2021 11:02:17 11.1 C 64 %
1789 30-03-2021 11:12:17 11.1 C 64 %
1790 30-03-2021 11:22:18 11.1 C 64 %
1791 30-03-2021 11:32:17 11.1 C 64 %
1792 30-03-2021 11:42:17 11 C 64 %
1793 30-03-2021 11:52:17 11.1 C 64 %
1794 30-03-2021 12:02:17 11 C 64 %
1795 30-03-2021 12:12:17 11.1 C 65 %
1796 30-03-2021 12:22:18 11.1 C 65 %
1797 30-03-2021 12:32:17 11.1 C 65 %
1798 30-03-2021 12:42:17 11.1 C 65 %
1799 30-03-2021 12:52:17 11.1 C 65 %
1800 30-03-2021 13:02:17 11.1 C 65 %
Sensor: Nr:Datum:Temp:Feuchte:
G-T/H 1801 30-03-2021 13:12:17 11.1 C 65 %
1802 30-03-2021 13:22:17 11.1 C 65 %
1803 30-03-2021 13:32:17 11.1 C 65 %
1804 30-03-2021 13:42:17 11.2 C 65 %
1805 30-03-2021 13:52:17 11.1 C 65 %
1806 30-03-2021 14:02:17 11.2 C 65 %
1807 30-03-2021 14:12:17 11.2 C 65 %
1808 30-03-2021 14:22:18 11.2 C 65 %
1809 30-03-2021 14:32:18 11.2 C 65 %
1810 30-03-2021 14:42:18 11.3 C 65 %
1811 30-03-2021 14:52:18 11.3 C 65 %
1812 30-03-2021 15:02:18 11.3 C 65 %
1813 30-03-2021 15:12:18 11.4 C 65 %
1814 30-03-2021 15:22:18 11.4 C 65 %
1815 30-03-2021 15:32:18 11.4 C 65 %
1816 30-03-2021 15:42:18 11.4 C 65 %
1817 30-03-2021 15:52:17 11.4 C 65 %
1818 30-03-2021 16:02:18 11.5 C 65 %
1819 30-03-2021 16:12:18 11.5 C 65 %
1820 30-03-2021 16:22:18 11.5 C 65 %
1821 30-03-2021 16:32:18 11.5 C 65 %
1822 30-03-2021 16:42:18 11.6 C 64 %
1823 30-03-2021 16:52:17 11.6 C 64 %
1824 30-03-2021 17:02:17 11.6 C 64 %
1825 30-03-2021 17:12:18 11.7 C 64 %
Sensor: Nr:Datum:Temp:Feuchte:
G-T/H 1826 30-03-2021 17:22:17 11.7 C 64 %
1827 30-03-2021 17:32:17 11.8 C 64 %
1828 30-03-2021 17:42:17 11.8 C 63 %
1829 30-03-2021 17:52:17 11.8 C 63 %
1830 30-03-2021 18:02:17 11.9 C 63 %
1831 30-03-2021 18:12:17 12 C 62 %
1832 30-03-2021 18:22:17 12 C 61 %
1833 30-03-2021 18:32:17 12 C 61 %
1834 30-03-2021 18:42:17 12 C 61 %
1835 30-03-2021 18:52:17 12.1 C 61 %
1836 30-03-2021 19:02:18 12.1 C 61 %
1837 30-03-2021 19:12:18 12.1 C 61 %
1838 30-03-2021 19:22:18 12.1 C 61 %
1839 30-03-2021 19:32:17 12.1 C 61 %
1840 30-03-2021 19:42:18 12 C 61 %
1841 30-03-2021 19:52:17 12.1 C 61 %
1842 30-03-2021 20:02:17 12.1 C 61 %
1843 30-03-2021 20:12:17 12 C 61 %
1844 30-03-2021 20:22:18 12 C 61 %
1845 30-03-2021 20:32:18 12 C 61 %
1846 30-03-2021 20:42:18 12 C 62 %
1847 30-03-2021 20:52:17 12.1 C 62 %
1848 30-03-2021 21:02:18 12.1 C 62 %
1849 30-03-2021 21:12:18 12 C 62 %
1850 30-03-2021 21:22:18 12.1 C 62 %
Sensor: Nr:Datum:Temp:Feuchte:
G-T/H 1851 30-03-2021 21:32:18 12.1 C 62 %
1852 30-03-2021 21:42:18 12.1 C 62 %
1853 30-03-2021 21:52:17 12.1 C 62 %
1854 30-03-2021 22:02:17 12.1 C 62 %
1855 30-03-2021 22:12:17 12.1 C 63 %
1856 30-03-2021 22:22:18 12 C 63 %
1857 30-03-2021 22:32:17 12.1 C 63 %
1858 30-03-2021 22:42:17 12 C 63 %
1859 30-03-2021 22:52:17 12.1 C 63 %
1860 30-03-2021 23:02:18 12.1 C 63 %
1861 30-03-2021 23:12:18 12.1 C 63 %
1862 30-03-2021 23:22:18 12.1 C 63 %
1863 30-03-2021 23:32:18 12 C 63 %
1864 30-03-2021 23:42:18 12.1 C 63 %
1865 30-03-2021 23:52:18 12 C 63 %
1866 31-03-2021 00:02:17 12.1 C 63 %
1867 31-03-2021 00:12:17 12.1 C 63 %
1868 31-03-2021 00:22:17 12 C 63 %
1869 31-03-2021 00:32:17 12 C 64 %
1870 31-03-2021 00:42:17 12 C 64 %
1871 31-03-2021 00:52:17 12 C 64 %
1872 31-03-2021 01:02:17 12 C 64 %
1873 31-03-2021 01:12:17 12 C 64 %
1874 31-03-2021 01:22:17 12 C 64 %
1875 31-03-2021 01:32:18 12 C 64 %
Sensor: Nr:Datum:Temp:Feuchte:
G-T/H 1876 31-03-2021 01:42:18 12 C 64 %
1877 31-03-2021 01:52:17 12 C 64 %
1878 31-03-2021 02:02:17 12 C 64 %
1879 31-03-2021 02:12:17 12 C 64 %
1880 31-03-2021 02:22:17 12 C 64 %
1881 31-03-2021 02:32:17 12 C 64 %
1882 31-03-2021 02:42:17 12 C 64 %
1883 31-03-2021 02:52:17 11.9 C 65 %
1884 31-03-2021 03:02:17 11.9 C 65 %
1885 31-03-2021 03:12:17 11.9 C 65 %
1886 31-03-2021 03:22:17 11.9 C 65 %
1887 31-03-2021 03:32:18 11.9 C 65 %
1888 31-03-2021 03:42:18 11.8 C 65 %
1889 31-03-2021 03:52:17 11.8 C 65 %
1890 31-03-2021 04:02:17 11.8 C 65 %
1891 31-03-2021 04:12:17 11.8 C 65 %
1892 31-03-2021 04:22:17 11.8 C 65 %
1893 31-03-2021 04:32:17 11.7 C 65 %
1894 31-03-2021 04:42:18 11.7 C 64 %
1895 31-03-2021 04:52:17 11.7 C 64 %
1896 31-03-2021 05:02:17 11.6 C 64 %
1897 31-03-2021 05:12:17 11.6 C 63 %
1898 31-03-2021 05:22:18 11.6 C 63 %
1899 31-03-2021 05:32:18 11.5 C 63 %
1900 31-03-2021 05:42:18 11.5 C 62 %
Sensor: Nr:Datum:Temp:Feuchte:
G-T/H 1901 31-03-2021 05:52:17 11.5 C 62 %
1902 31-03-2021 06:02:17 11.5 C 62 %
1903 31-03-2021 06:12:17 11.4 C 62 %
1904 31-03-2021 06:22:17 11.4 C 62 %
1905 31-03-2021 06:32:17 11.4 C 62 %
1906 31-03-2021 06:42:17 11.3 C 61 %
1907 31-03-2021 06:52:18 11.3 C 61 %
1908 31-03-2021 07:02:17 11.3 C 61 %
1909 31-03-2021 07:12:17 11.2 C 61 %
1910 31-03-2021 07:22:18 11.2 C 61 %
1911 31-03-2021 07:32:18 11.2 C 61 %
1912 31-03-2021 07:42:18 11.2 C 61 %
1913 31-03-2021 07:52:18 11.2 C 61 %
1914 31-03-2021 08:02:17 11.2 C 61 %
1915 31-03-2021 08:12:17 11.2 C 62 %
1916 31-03-2021 08:22:18 11.2 C 62 %
1917 31-03-2021 08:32:18 11.2 C 62 %
1918 31-03-2021 08:42:18 11.2 C 62 %
1919 31-03-2021 08:52:18 11.2 C 62 %
1920 31-03-2021 09:02:17 11.1 C 62 %
1921 31-03-2021 09:12:18 11.1 C 62 %
1922 31-03-2021 09:22:18 11.1 C 62 %
1923 31-03-2021 09:32:17 11.1 C 63 %
1924 31-03-2021 09:42:18 11.1 C 63 %
1925 31-03-2021 09:52:18 11 C 63 %
Sensor: Nr:Datum:Temp:Feuchte:
G-T/H 1926 31-03-2021 10:02:18 11.1 C 63 %
1927 31-03-2021 10:12:18 11 C 63 %
1928 31-03-2021 10:22:18 11 C 63 %
1929 31-03-2021 10:32:18 11 C 63 %
1930 31-03-2021 10:42:18 11 C 63 %
1931 31-03-2021 10:52:18 11 C 64 %
1932 31-03-2021 11:02:18 11 C 64 %
1933 31-03-2021 11:12:18 11 C 64 %
1934 31-03-2021 11:22:18 11 C 64 %
1935 31-03-2021 11:32:18 11 C 64 %
1936 31-03-2021 11:42:18 11 C 64 %
1937 31-03-2021 11:52:18 11 C 64 %
1938 31-03-2021 12:02:17 11.1 C 64 %
1939 31-03-2021 12:12:17 11.1 C 64 %
1940 31-03-2021 12:22:17 11.1 C 64 %
1941 31-03-2021 12:32:17 11.1 C 64 %
1942 31-03-2021 12:42:17 11.1 C 64 %
1943 31-03-2021 12:52:18 11.1 C 65 %
1944 31-03-2021 13:02:17 11.1 C 65 %
1945 31-03-2021 13:12:17 11.2 C 65 %
1946 31-03-2021 13:22:17 11.2 C 65 %
1947 31-03-2021 13:32:18 11.2 C 65 %
1948 31-03-2021 13:42:18 11.2 C 65 %
1949 31-03-2021 13:52:18 11.2 C 65 %
1950 31-03-2021 14:02:18 11.3 C 65 %
Sensor: Nr:Datum:Temp:Feuchte:
G-T/H 1951 31-03-2021 14:12:18 11.3 C 65 %
1952 31-03-2021 14:22:17 11.3 C 65 %
1953 31-03-2021 14:32:17 11.4 C 65 %
1954 31-03-2021 14:42:18 11.4 C 65 %
1955 31-03-2021 14:52:17 11.4 C 65 %
1956 31-03-2021 15:02:17 11.5 C 65 %
1957 31-03-2021 15:12:18 11.5 C 65 %
1958 31-03-2021 15:22:17 11.6 C 65 %
1959 31-03-2021 15:32:18 11.6 C 65 %
1960 31-03-2021 15:42:18 11.6 C 65 %
1961 31-03-2021 15:52:17 11.7 C 65 %
1962 31-03-2021 16:02:17 11.7 C 65 %
1963 31-03-2021 16:12:18 11.7 C 65 %
1964 31-03-2021 16:22:17 11.7 C 65 %
1965 31-03-2021 16:32:18 11.8 C 65 %
1966 31-03-2021 16:42:18 11.8 C 65 %
1967 31-03-2021 16:52:18 11.8 C 65 %
1968 31-03-2021 17:02:17 11.9 C 65 %
1969 31-03-2021 17:12:18 11.9 C 65 %
1970 31-03-2021 17:22:17 12 C 64 %
1971 31-03-2021 17:32:18 12 C 64 %
1972 31-03-2021 17:42:18 12 C 64 %
1973 31-03-2021 17:52:18 12 C 64 %
1974 31-03-2021 18:02:18 12.1 C 64 %
1975 31-03-2021 18:12:18 12.1 C 64 %
Sensor: Nr:Datum:Temp:Feuchte:
G-T/H 1976 31-03-2021 18:22:18 12.1 C 64 %
1977 31-03-2021 18:32:18 12.1 C 64 %
1978 31-03-2021 18:42:18 12.2 C 64 %
1979 31-03-2021 18:52:17 12.2 C 64 %
1980 31-03-2021 19:02:17 12.3 C 64 %
1981 31-03-2021 19:12:17 12.3 C 64 %
1982 31-03-2021 19:22:18 12.3 C 64 %
1983 31-03-2021 19:32:17 12.4 C 64 %
1984 31-03-2021 19:42:17 12.4 C 64 %
1985 31-03-2021 19:52:18 12.4 C 64 %
1986 31-03-2021 20:02:17 12.4 C 64 %
1987 31-03-2021 20:12:18 12.4 C 64 %
1988 31-03-2021 20:22:17 12.4 C 64 %
1989 31-03-2021 20:32:18 12.4 C 64 %
1990 31-03-2021 20:42:18 12.4 C 64 %
1991 31-03-2021 20:52:18 12.4 C 64 %
1992 31-03-2021 21:02:18 12.4 C 64 %
1993 31-03-2021 21:12:18 12.4 C 64 %
1994 31-03-2021 21:22:17 12.4 C 64 %
1995 31-03-2021 21:32:17 12.4 C 64 %
1996 31-03-2021 21:42:18 12.4 C 64 %
1997 31-03-2021 21:52:18 12.4 C 64 %
1998 31-03-2021 22:02:18 12.4 C 64 %
1999 31-03-2021 22:12:18 12.4 C 64 %
2000 31-03-2021 22:22:18 12.4 C 64 %
Sensor: Nr:Datum:Temp:Feuchte:
G-T/H 2001 31-03-2021 22:32:17 12.5 C 65 %
2002 31-03-2021 22:42:17 12.5 C 65 %
2003 31-03-2021 22:52:18 12.5 C 65 %
2004 31-03-2021 23:02:18 12.5 C 65 %
2005 31-03-2021 23:12:18 12.5 C 65 %
2006 31-03-2021 23:22:17 12.5 C 65 %
2007 31-03-2021 23:32:18 12.5 C 65 %
2008 31-03-2021 23:42:18 12.5 C 65 %
2009 31-03-2021 23:52:18 12.5 C 65 %

Legende:
   Min
   Max


Maximal/Minimal-Werte vom 18.03.2021 - 31.03.2021

Sensor Min Max Avg
Temp
(Aussen-T/F)
-2.6 °C
20-03-2021  03:51:17
32.4 °C
31-03-2021  15:32:18
7.76 °C
Feuchte
(Aussen-T/F)
20 %
20-03-2021  13:31:18
51 %
18-03-2021  05:31:17
36.6 %
Temp
(G-T/H)
7.4 °C
20-03-2021  10:21:17
16.4 °C
29-03-2021  18:42:18
9.75 °C
Feuchte
(G-T/H)
36 %
29-03-2021  18:12:17
73 %
18-03-2021  00:01:17
68.3 %

Die Daten stammen von einer Davis Vantage Pro 2 Wetter-Station und werden unter Linux mit der Software wview2wettercgi und aufbereitet. Alle Angaben erfolgen ohne Gewähr für ihre Vollständigkeit oder Richtigkeit.
Kontakt: Rainer Krienke krienke@uni-koblenz.de . Meine Webseiten an der Uni Koblenz oder privat.
Version: $Revision: 0.78 $